[[{"header":{"parameterUnit":"m.s-1","parameterCategory":1,"la1":30.6,"la2":29.2853,"lo1":-89.7004,"lo2":-87.6739,"dy":0.0162,"dx":0.0183,"nx":112,"ny":82,"refTime":"2023-06-01T12:00:00:Z","depth":0,"parameterNumber":2,"parameterNumberName":"U-component_of_WINDS"},"data":[0.0,0.0,0.0,0.0,0.0,0.0,0.0,0.0,0.0,0.0,0.0,0.0,0.0,0.0,0.0,0.0,0.0,0.0,0.0,0.0,0.0,0.0,0.0,0.0,0.0,0.0,0.0,0.0,0.0,0.0,0.0,0.0,0.0,0.0,0.0,0.0,0.0,0.0,0.0,0.0,0.0,0.0,0.0,0.0,0.0,0.0,0.0,0.0,0.0,0.0,0.0,0.0,0.0,0.0,0.0,0.0,0.0,0.0,0.0,0.0,0.0,0.0,0.0,0.0,0.0,0.0,0.0,0.0,0.0,0.0,0.0,0.0,0.0,0.0,0.0,0.0,0.0,0.0,0.0,0.0,0.0,0.0,0.0,0.0,0.0,0.0,0.0,0.0,0.0,0.0,0.0,-0.7897,-0.6465,-0.5557,-0.5428,-0.5428,-0.5428,-0.5428,0.0,0.0,0.0,0.0,0.0,0.0,0.0,0.0,0.0,0.0,0.0,0.0,0.0,0.0,0.0,0.0,0.0,0.0,0.0,0.0,0.0,0.0,0.0,0.0,0.0,0.0,0.0,0.0,0.0,0.0,0.0,0.0,0.0,0.0,0.0,0.0,0.0,0.0,0.0,0.0,0.0,0.0,0.0,0.0,0.0,0.0,0.0,0.0,0.0,0.0,0.0,0.0,0.0,0.0,0.0,0.0,0.0,0.0,0.0,0.0,0.0,0.0,0.0,0.0,0.0,0.0,0.0,0.0,0.0,0.0,0.0,0.0,0.0,0.0,0.0,0.0,0.0,0.0,0.0,0.0,0.0,0.0,0.0,0.0,0.0,0.0,0.0,0.0,0.0,0.0,0.0,0.0,0.0,0.0,0.0,0.0,0.0,0.0,0.0,0.0,0.0,0.0,0.0,0.0,-0.8678,-0.7046,-0.6654,-0.6203,-0.5491,-0.5428,-0.5428,-0.5428,0.0,0.0,0.0,0.0,0.0,0.0,0.0,0.0,0.0,0.0,0.0,0.0,0.0,0.0,0.0,0.0,0.0,0.0,0.0,0.0,0.0,0.0,0.0,0.0,0.0,0.0,0.0,0.0,0.0,0.0,0.0,0.0,0.0,0.0,0.0,0.0,0.0,0.0,0.0,0.0,0.0,0.0,0.0,0.0,0.0,0.0,0.0,0.0,0.0,0.0,0.0,0.0,0.0,0.0,0.0,0.0,0.0,0.0,0.0,0.0,0.0,0.0,0.0,0.0,0.0,0.0,0.0,0.0,0.0,0.0,0.0,0.0,0.0,0.0,0.0,0.0,0.0,0.0,0.0,0.0,0.0,0.0,0.0,0.0,0.0,0.0,0.0,0.0,0.0,0.0,0.0,0.0,0.0,0.0,0.0,0.0,0.0,0.0,0.0,0.0,0.0,0.0,0.0,-0.9849,-0.8812,-0.7567,-0.6981,-0.6334,-0.5495,-0.5428,-0.5428,-0.5428,-0.5428,0.0,0.0,0.0,0.0,0.0,0.0,0.0,0.0,0.0,0.0,0.0,0.0,0.0,0.0,0.0,0.0,0.0,0.0,0.0,0.0,0.0,0.0,0.0,0.0,0.0,0.0,0.0,0.0,0.0,0.0,0.0,0.0,0.0,0.0,0.0,0.0,0.0,0.0,0.0,0.0,0.0,0.0,0.0,0.0,0.0,0.0,0.0,0.0,0.0,0.0,0.0,0.0,0.0,0.0,0.0,0.0,0.0,0.0,0.0,0.0,0.0,0.0,0.0,0.0,0.0,0.0,0.0,0.0,0.0,0.0,0.0,0.0,0.0,0.0,0.0,0.0,0.0,0.0,0.0,0.0,0.0,0.0,0.0,0.0,0.0,0.0,0.0,0.0,0.0,0.0,0.0,0.0,0.0,0.0,0.0,0.0,0.0,0.0,0.0,0.0,0.0,0.0,-1.0047,-0.9204,-0.8091,-0.7372,-0.6593,-0.5491,-0.5428,-0.5428,-0.5428,-0.5428,0.0,0.0,0.0,0.0,0.0,0.0,0.0,0.0,0.0,0.0,0.0,0.0,0.0,0.0,0.0,0.0,0.0,0.0,0.0,0.0,0.0,0.0,0.0,0.0,0.0,0.0,0.0,0.0,0.0,0.0,0.0,0.0,0.0,0.0,0.0,0.0,0.0,0.0,0.0,0.0,0.0,0.0,0.0,0.0,0.0,0.0,0.0,0.0,0.0,0.0,0.0,0.0,0.0,0.0,0.0,0.0,0.0,0.0,0.0,0.0,0.0,0.0,0.0,0.0,0.0,0.0,0.0,0.0,0.0,0.0,0.0,0.0,0.0,0.0,0.0,0.0,0.0,0.0,0.0,0.0,0.0,0.0,0.0,0.0,0.0,0.0,0.0,0.0,0.0,0.0,0.0,0.0,0.0,0.0,0.0,0.0,0.0,0.0,0.0,0.0,0.0,0.0,-1.0561,-0.9843,-0.8156,-0.7962,-0.7246,-0.5557,-0.5428,-0.5428,-0.5428,-0.5428,0.0,0.0,0.0,0.0,0.0,0.0,0.0,0.0,0.0,0.0,0.0,0.0,0.0,0.0,0.0,0.0,0.0,0.0,0.0,0.0,0.0,0.0,0.0,0.0,0.0,0.0,0.0,0.0,0.0,0.0,0.0,0.0,0.0,0.0,0.0,0.0,0.0,0.0,0.0,0.0,0.0,0.0,0.0,0.0,0.0,0.0,0.0,0.0,0.0,0.0,0.0,0.0,0.0,0.0,0.0,0.0,0.0,0.0,0.0,0.0,0.0,0.0,0.0,0.0,0.0,0.0,0.0,0.0,0.0,0.0,0.0,0.0,0.0,0.0,0.0,0.0,0.0,0.0,0.0,0.0,0.0,0.0,0.0,0.0,0.0,0.0,0.0,0.0,0.0,0.0,0.0,0.0,0.0,0.0,0.0,0.0,0.0,0.0,0.0,0.0,0.0,0.0,-1.0624,-1.0168,0.0,-0.8355,-0.7507,-0.6334,-0.5686,-0.5428,-0.5428,0.0,0.0,0.0,0.0,0.0,0.0,0.0,0.0,0.0,0.0,0.0,0.0,0.0,0.0,0.0,0.0,0.0,0.0,0.0,0.0,0.0,0.0,0.0,0.0,0.0,0.0,0.0,0.0,0.0,0.0,0.0,0.0,0.0,0.0,0.0,0.0,0.0,0.0,0.0,0.0,0.0,0.0,0.0,0.0,0.0,0.0,0.0,0.0,0.0,0.0,0.0,0.0,0.0,0.0,0.0,0.0,0.0,0.0,0.0,0.0,0.0,0.0,0.0,0.0,0.0,0.0,0.0,0.0,0.0,0.0,0.0,0.0,0.0,0.0,0.0,0.0,0.0,0.0,0.0,0.0,0.0,0.0,0.0,0.0,0.0,0.0,0.0,0.0,0.0,0.0,0.0,0.0,0.0,0.0,0.0,0.0,0.0,0.0,0.0,0.0,0.0,0.0,-1.0238,-1.0174,-0.9722,0.0,-0.7962,-0.7246,-0.6334,-0.5749,-0.5428,-0.5428,0.0,0.0,0.0,0.0,0.0,0.0,0.0,0.0,0.0,0.0,0.0,0.0,0.0,0.0,0.0,0.0,0.0,0.0,0.0,0.0,0.0,0.0,0.0,0.0,0.0,0.0,0.0,0.0,0.0,0.0,0.0,0.0,0.0,0.0,0.0,0.0,0.0,0.0,0.0,0.0,0.0,0.0,0.0,0.0,0.0,0.0,0.0,0.0,0.0,0.0,0.0,0.0,0.0,0.0,0.0,0.0,0.0,0.0,0.0,0.0,0.0,0.0,0.0,0.0,0.0,0.0,0.0,0.0,0.0,0.0,0.0,0.0,0.0,0.0,0.0,0.0,0.0,0.0,0.0,0.0,0.0,0.0,0.0,0.0,0.0,0.0,0.0,0.0,0.0,0.0,0.0,0.0,0.0,0.0,0.0,0.0,0.0,0.0,0.0,0.0,0.0,0.0,-0.9402,-0.9274,-0.8619,-0.6915,-0.6719,-0.6334,-0.5491,-0.5428,-0.5428,0.0,0.0,0.0,0.0,0.0,0.0,0.0,0.0,0.0,0.0,0.0,0.0,0.0,0.0,0.0,0.0,0.0,0.0,0.0,0.0,0.0,0.0,0.0,0.0,0.0,0.0,0.0,0.0,0.0,0.0,0.0,0.0,0.0,0.0,0.0,0.0,0.0,0.0,0.0,0.0,0.0,0.0,0.0,0.0,0.0,0.0,0.0,0.0,0.0,0.0,0.0,0.0,0.0,0.0,0.0,0.0,0.0,0.0,0.0,0.0,0.0,0.0,0.0,0.0,0.0,0.0,0.0,0.0,0.0,0.0,0.0,0.0,0.0,0.0,0.0,0.0,0.0,0.0,0.0,0.0,0.0,0.0,0.0,0.0,0.0,0.0,0.0,0.0,0.0,0.0,0.0,0.0,0.0,0.0,0.0,0.0,0.0,0.0,0.0,0.0,0.0,0.0,0.0,-0.9338,-0.8748,-0.8156,-0.7702,-0.7046,-0.6588,-0.633,-0.5752,-0.5428,-0.5428,0.0,0.0,0.0,0.0,0.0,0.0,0.0,0.0,0.0,0.0,0.0,0.0,0.0,0.0,0.0,0.0,0.0,0.0,0.0,0.0,0.0,0.0,0.0,0.0,0.0,0.0,0.0,0.0,0.0,0.0,0.0,0.0,0.0,0.0,0.0,0.0,0.0,0.0,0.0,0.0,0.0,0.0,0.0,0.0,0.0,0.0,0.0,0.0,0.0,0.0,0.0,0.0,0.0,0.0,0.0,0.0,0.0,0.0,0.0,0.0,0.0,0.0,0.0,0.0,0.0,0.0,0.0,0.0,0.0,0.0,0.0,0.0,0.0,0.0,0.0,0.0,0.0,0.0,0.0,0.0,0.0,0.0,0.0,0.0,0.0,0.0,0.0,0.0,0.0,0.0,0.0,0.0,0.0,0.0,0.0,0.0,0.0,0.0,0.0,0.0,0.0,0.0,-0.8355,-0.7827,-0.7372,-0.699,-0.6531,-0.6242,-0.6242,-0.5837,-0.5511,-0.5457,0.0,0.0,0.0,0.0,0.0,0.0,0.0,0.0,0.0,0.0,0.0,0.0,0.0,0.0,0.0,0.0,0.0,0.0,0.0,0.0,0.0,0.0,0.0,0.0,0.0,0.0,0.0,0.0,0.0,0.0,0.0,0.0,0.0,0.0,0.0,0.0,0.0,0.0,0.0,0.0,0.0,0.0,0.0,0.0,0.0,0.0,0.0,0.0,0.0,0.0,0.0,0.0,0.0,0.0,0.0,0.0,0.0,0.0,0.0,0.0,0.0,0.0,0.0,0.0,0.0,0.0,0.0,0.0,0.0,0.0,0.0,0.0,0.0,0.0,0.0,0.0,0.0,0.0,0.0,0.0,0.0,0.0,0.0,0.0,0.0,0.0,0.0,0.0,0.0,0.0,0.0,0.0,0.0,0.0,0.0,0.0,0.0,0.0,0.0,0.0,0.0,0.0,-0.71,-0.6705,-0.6316,-0.5536,-0.5528,-0.561,-0.561,-0.5728,-0.5745,-0.5616,0.0,0.0,0.0,0.0,0.0,0.0,0.0,0.0,0.0,0.0,0.0,0.0,0.0,0.0,0.0,0.0,0.0,0.0,0.0,0.0,0.0,0.0,0.0,0.0,0.0,0.0,0.0,0.0,0.0,0.0,0.0,0.0,0.0,0.0,0.0,0.0,0.0,0.0,0.0,0.0,0.0,0.0,0.0,0.0,0.0,0.0,0.0,0.0,0.0,0.0,0.0,0.0,0.0,0.0,0.0,0.0,0.0,0.0,0.0,0.0,-1.0441,0.0,0.0,0.0,0.0,0.0,0.0,0.0,0.0,0.0,0.0,0.0,0.0,0.0,0.0,0.0,0.0,0.0,0.0,0.0,0.0,0.0,0.0,0.0,0.0,0.0,0.0,0.0,0.0,0.0,0.0,0.0,0.0,0.0,0.0,0.0,0.0,0.0,0.0,0.0,0.0,0.0,-0.8275,-0.6888,-0.5913,-0.5708,-0.5735,-0.5755,-0.5755,-0.5783,-0.5789,-0.5755,0.0,0.0,0.0,0.0,0.0,0.0,0.0,0.0,0.0,0.0,0.0,0.0,0.0,0.0,0.0,0.0,0.0,0.0,0.0,0.0,0.0,0.0,0.0,0.0,0.0,0.0,0.0,0.0,0.0,0.0,0.0,0.0,0.0,0.0,0.0,0.0,0.0,0.0,0.0,0.0,0.0,0.0,0.0,0.0,0.0,0.0,0.0,0.0,0.0,0.0,0.0,0.0,0.0,0.0,0.0,0.0,0.0,0.0,0.0,0.0,0.0,-1.0624,0.0,0.0,0.0,0.0,0.0,0.0,0.0,0.0,0.0,0.0,0.0,0.0,0.0,0.0,0.0,0.0,0.0,0.0,0.0,0.0,0.0,0.0,0.0,0.0,0.0,0.0,0.0,0.0,0.0,0.0,0.0,0.0,0.0,0.0,0.0,0.0,0.0,0.0,0.0,0.0,-0.8061,-0.7145,-0.6365,-0.5871,-0.5867,-0.5911,-0.5911,-0.5979,-0.5989,-0.5915,-0.5911,0.0,0.0,0.0,0.0,0.0,0.0,0.0,0.0,0.0,0.0,0.0,0.0,0.0,0.0,0.0,0.0,0.0,0.0,0.0,0.0,0.0,0.0,0.0,0.0,0.0,0.0,0.0,0.0,0.0,0.0,0.0,0.0,0.0,0.0,0.0,0.0,0.0,0.0,0.0,0.0,0.0,0.0,0.0,0.0,0.0,0.0,0.0,0.0,0.0,0.0,0.0,0.0,0.0,0.0,-1.1196,-1.1423,-1.1423,-1.1423,-1.1403,-1.0922,-1.0715,-1.0715,0.0,0.0,0.0,0.0,0.0,0.0,0.0,0.0,0.0,0.0,0.0,0.0,0.0,0.0,0.0,0.0,0.0,0.0,0.0,0.0,0.0,0.0,0.0,0.0,0.0,-1.1423,-1.1296,0.0,0.0,0.0,0.0,0.0,0.0,0.0,0.0,0.0,0.0,0.0,0.0,-0.7879,-0.7309,-0.6813,-0.5954,-0.5996,-0.6071,-0.6071,-0.6186,-0.6207,-0.6078,-0.6071,-0.6013,0.0,0.0,0.0,0.0,0.0,0.0,0.0,0.0,0.0,0.0,0.0,0.0,0.0,0.0,0.0,0.0,0.0,0.0,0.0,0.0,0.0,0.0,0.0,0.0,0.0,0.0,0.0,0.0,0.0,0.0,0.0,0.0,-0.9466,-0.9466,0.0,0.0,0.0,0.0,0.0,0.0,0.0,0.0,0.0,0.0,0.0,0.0,0.0,0.0,-1.1309,-1.1309,-1.1329,-1.1369,-1.1369,-1.139,-1.1423,-1.1423,-1.1423,-1.1423,-1.1349,0.0,-1.1309,-1.1309,0.0,0.0,0.0,0.0,0.0,0.0,0.0,0.0,0.0,0.0,0.0,0.0,0.0,0.0,0.0,0.0,0.0,0.0,0.0,0.0,0.0,0.0,-1.1423,-1.1423,-1.1423,-1.1403,0.0,-1.1343,-1.1369,-1.1369,0.0,0.0,0.0,0.0,0.0,0.0,0.0,0.0,-0.9055,-0.7483,-0.6353,-0.6276,-0.6217,-0.623,-0.623,-0.6247,-0.6251,-0.6234,-0.623,-0.622,-0.62,-0.62,0.0,0.0,0.0,0.0,0.0,0.0,0.0,0.0,0.0,0.0,0.0,0.0,0.0,0.0,0.0,0.0,0.0,0.0,0.0,0.0,0.0,0.0,0.0,0.0,0.0,0.0,0.0,0.0,0.0,-1.0047,-1.0104,-1.0257,-1.0607,-1.0868,0.0,0.0,0.0,0.0,0.0,0.0,0.0,0.0,0.0,-1.1229,-1.1236,-1.1296,-1.1423,-1.1423,-1.151,-1.167,-1.167,-1.185,-1.2164,-1.1997,-1.2011,-1.2158,-1.1991,-1.1917,-1.1891,-1.1563,-1.1423,-1.1423,0.0,0.0,0.0,0.0,0.0,-1.1423,-1.1423,0.0,0.0,0.0,0.0,0.0,0.0,0.0,0.0,0.0,0.0,0.0,0.0,0.0,0.0,-1.1917,-1.1917,-1.1917,-1.1917,-1.1917,-1.187,0.0,-1.1804,-1.1917,-1.1917,0.0,0.0,0.0,0.0,0.0,-1.019,-0.8912,-0.7783,-0.7176,-0.6644,-0.6338,-0.6338,-0.6338,-0.6338,-0.6338,-0.6338,-0.6338,-0.6338,-0.6338,-0.6338,0.0,0.0,0.0,0.0,0.0,0.0,0.0,0.0,0.0,0.0,0.0,0.0,0.0,0.0,0.0,0.0,0.0,0.0,0.0,0.0,0.0,0.0,0.0,0.0,0.0,0.0,0.0,0.0,-1.0451,-1.0529,-1.0743,-1.0969,-1.1189,0.0,0.0,0.0,0.0,0.0,0.0,-1.1423,-1.1423,-1.1496,-1.1643,-1.165,-1.1724,-1.1884,-1.1884,-1.1991,-1.2211,-1.2211,-1.2438,-1.2859,-1.2632,-1.2659,-1.2852,-1.2632,-1.2532,-1.2485,-1.1891,-1.165,-1.165,-1.165,-1.165,-1.165,-1.165,-1.165,-1.165,-1.165,-1.165,-1.1683,-1.1904,0.0,-1.2024,-1.2238,0.0,0.0,0.0,0.0,-1.2305,-1.2305,-1.2305,-1.2305,-1.2305,-1.2305,-1.2305,-1.2305,-1.2305,-1.2238,0.0,-1.2151,-1.2305,-1.2305,0.0,0.0,0.0,0.0,-1.162,-1.0932,-0.9895,-0.8917,-0.7936,-0.7099,-0.6567,-0.6338,-0.6338,-0.6338,-0.6338,-0.6338,-0.6338,-0.6338,-0.6338,-0.6338,-0.6338,0.0,0.0,0.0,0.0,0.0,0.0,0.0,0.0,0.0,0.0,0.0,0.0,0.0,0.0,0.0,0.0,0.0,0.0,0.0,0.0,0.0,0.0,0.0,0.0,0.0,0.0,0.0,0.0,0.0,-1.0152,-1.0848,0.0,0.0,0.0,0.0,-1.1423,-1.1423,-1.1423,-1.1423,-1.1423,-1.1683,-1.2238,-1.2258,-1.2532,-1.3113,-1.312,-1.3126,-1.314,-1.314,-1.316,-1.3186,-1.3173,-1.3173,-1.3186,-1.3173,-1.316,-1.312,-1.2512,-1.2258,-1.2258,-1.2258,-1.2258,-1.2258,-1.2258,-1.2258,-1.2258,-1.2258,-1.2258,-1.2265,-1.2278,-1.2278,-1.2285,-1.2298,-1.2305,0.0,0.0,-1.2305,-1.2305,-1.2305,-1.2305,-1.2305,-1.2305,-1.2305,-1.2305,-1.2305,-1.2305,-1.2298,0.0,-1.2291,-1.2305,-1.2305,0.0,-1.2305,-1.2305,-1.1465,-1.0858,-1.0783,-0.9895,-0.8917,-0.7936,-0.7783,-0.7326,-0.6416,-0.6338,-0.6338,-0.6338,-0.6338,-0.6338,-0.6338,-0.6338,-0.6338,-0.6338,-0.6338,0.0,0.0,0.0,0.0,0.0,0.0,0.0,0.0,0.0,0.0,0.0,0.0,0.0,0.0,0.0,0.0,0.0,0.0,0.0,0.0,0.0,0.0,0.0,0.0,0.0,0.0,0.0,0.0,-1.1256,-1.1499,0.0,0.0,-1.1991,-1.1991,-1.1991,-1.2164,-1.2278,-1.2278,-1.2465,-1.2672,-1.2879,-1.2886,-1.2993,-1.3206,-1.3213,-1.3213,-1.3213,-1.3213,-1.3307,-1.348,-1.33,-1.3313,-1.348,-1.3287,-1.3213,-1.3193,-1.2979,-1.2772,-1.2585,-1.2585,-1.2472,-1.2305,-1.2305,-1.2305,-1.2305,-1.2305,-1.2305,-1.2305,-1.2305,-1.2305,-1.2305,-1.2305,-1.2305,-1.2305,-1.2305,-1.2305,-1.2305,-1.2305,-1.2305,-1.2305,-1.2305,-1.2305,-1.2305,-1.2305,-1.2305,-1.2305,-1.2305,-1.2305,-1.2305,-1.2305,-1.2305,-1.2305,-1.2305,-1.1996,-1.1539,-1.0864,-0.9895,-0.8917,-0.7936,-0.7249,-0.6721,-0.6338,-0.6338,-0.6338,-0.6338,-0.6338,-0.6338,-0.6338,-0.6338,-0.6338,-0.6338,-0.6338,-0.6338,0.0,0.0,0.0,0.0,0.0,0.0,0.0,0.0,0.0,0.0,0.0,0.0,0.0,0.0,0.0,0.0,0.0,0.0,0.0,0.0,0.0,0.0,0.0,0.0,0.0,0.0,-1.183,-1.2131,-1.2164,-1.2278,-1.2579,-1.2605,-1.2605,-1.2605,-1.2792,-1.2946,-1.3046,-1.3247,-1.3447,-1.3647,-1.3654,-1.3701,-1.3801,-1.3801,-1.3801,-1.3801,-1.3801,-1.3901,-1.4082,-1.3788,-1.3761,-1.3921,-1.3634,-1.3507,-1.3507,-1.3507,-1.3327,-1.3039,-1.2939,-1.2779,-1.2605,-1.2605,-1.2605,-1.2605,-1.2605,-1.2605,-1.2592,-1.2485,-1.2452,-1.2432,-1.2331,-1.2305,-1.2305,-1.2305,-1.2305,-1.2305,-1.2305,-1.2305,-1.2305,-1.2305,-1.2305,-1.2305,-1.2305,-1.2305,-1.2305,-1.2305,-1.2305,-1.2305,-1.2305,-1.2305,-1.2305,-1.2305,-1.2305,-1.207,-1.1391,-1.0421,-0.9442,-0.8389,-0.7403,-0.6641,-0.6338,-0.6338,-0.6338,-0.6338,-0.6338,-0.6338,-0.6338,-0.6338,-0.6338,-0.6338,-0.6338,-0.6338,-0.6338,0.0,0.0,0.0,0.0,0.0,0.0,0.0,0.0,0.0,0.0,0.0,0.0,0.0,0.0,0.0,0.0,0.0,0.0,0.0,0.0,0.0,0.0,0.0,-1.2318,-1.2318,-1.2425,-1.2802,-1.2835,-1.2879,-1.3193,-1.3227,-1.3227,-1.324,-1.3247,-1.3373,-1.3572,-1.3681,-1.3948,-1.4516,-1.4536,-1.4669,-1.4963,-1.4963,-1.4963,-1.4963,-1.4963,-1.4963,-1.495,-1.4663,-1.4536,-1.4516,-1.4235,-1.4115,-1.4115,-1.4108,-1.3928,-1.3641,-1.334,-1.322,-1.3213,-1.3213,-1.3213,-1.3213,-1.3213,-1.3213,-1.316,-1.2936,-1.2835,-1.2782,-1.2418,-1.2331,-1.2331,-1.2331,-1.2331,-1.2331,-1.2331,-1.2331,-1.2331,-1.2331,-1.2331,-1.2331,-1.2331,-1.2325,-1.2318,-1.2318,-1.2311,-1.2305,-1.2305,-1.2305,-1.2305,-1.2305,-1.2305,0.0,-1.2224,-1.1391,-1.0415,-0.9372,-0.8466,-0.7403,-0.6412,-0.6338,-0.6338,-0.6338,-0.6338,-0.6338,-0.6338,-0.6338,-0.6338,-0.6338,-0.6338,-0.6338,-0.6338,0.0,0.0,0.0,0.0,0.0,0.0,0.0,0.0,0.0,0.0,0.0,0.0,0.0,0.0,0.0,0.0,0.0,0.0,0.0,0.0,0.0,0.0,-1.2625,-1.2625,-1.2625,-1.2739,-1.3046,-1.308,-1.32,-1.3494,-1.3527,-1.3614,-1.3828,-1.4041,-1.4195,-1.4275,-1.4482,-1.4676,-1.4836,-1.4843,-1.4883,-1.4963,-1.4963,-1.4963,-1.4963,-1.4963,-1.4963,-1.4963,-1.4877,-1.4843,-1.4836,-1.4756,-1.4723,-1.4703,-1.4489,-1.4355,-1.4229,-1.3721,-1.3394,-1.3213,-1.3213,-1.3213,-1.3213,-1.3213,-1.3213,-1.32,-1.3113,-1.308,-1.3066,-1.2986,-1.2959,-1.2959,-1.2959,-1.2959,-1.2959,-1.2959,-1.2959,-1.2959,-1.2959,-1.2959,-1.2959,-1.2959,-1.2786,-1.2625,-1.2625,-1.2452,-1.2305,-1.2305,-1.2305,-1.2305,-1.2305,-1.2305,0.0,-1.1316,-1.0932,-1.0415,-0.9372,-0.9074,-0.8466,-0.748,-0.7403,-0.7099,0.0,-0.6338,-0.6338,-0.6338,-0.6338,-0.6338,-0.6338,-0.6338,-0.6338,0.0,0.0,0.0,0.0,0.0,0.0,0.0,0.0,0.0,0.0,0.0,0.0,0.0,0.0,0.0,0.0,0.0,0.0,0.0,0.0,0.0,0.0,-1.2959,-1.3166,-1.3287,-1.32,-1.3233,-1.354,-1.3687,-1.3874,-1.4168,-1.4195,-1.4269,-1.4442,-1.4609,-1.4756,-1.4883,-1.505,-1.5204,-1.5317,-1.5331,-1.5331,-1.5331,-1.5331,-1.5331,-1.5331,-1.5331,-1.5331,-1.5317,-1.5204,-1.5144,0.0,-1.5017,-1.4963,-1.495,-1.4776,-1.4703,0.0,0.0,0.0,0.0,0.0,-1.3581,-1.3581,-1.3581,-1.3581,-1.3554,-1.3434,-1.3394,-1.3367,-1.3247,-1.3213,-1.3213,-1.3213,-1.3213,-1.3213,-1.3213,-1.3213,-1.3213,-1.3213,-1.3213,-1.3213,-1.3213,-1.3066,-1.2939,-1.2939,0.0,0.0,-1.2512,-1.2385,-1.2305,-1.2305,-1.2305,-1.2077,-1.1465,-1.1087,-1.0559,-0.997,-0.9523,-0.9069,-0.8466,-0.8466,0.0,0.0,0.0,-0.6718,-0.6338,-0.6338,0.0,0.0,0.0,-0.6338,-0.6338,0.0,0.0,0.0,-0.6338,-0.6338,0.0,0.0,0.0,0.0,0.0,0.0,0.0,0.0,0.0,0.0,0.0,0.0,0.0,0.0,0.0,0.0,-1.3347,-1.3808,-1.4135,-1.3988,-1.3928,-1.4162,-1.4416,-1.4689,-1.4983,-1.5017,-1.5023,-1.5057,-1.5064,-1.517,-1.5431,0.0,0.0,0.0,0.0,-1.5832,-1.5832,-1.5832,-1.5832,-1.5832,-1.5832,-1.5832,-1.5818,-1.5565,-1.5444,-1.5431,-1.517,-1.5064,-1.5057,-1.5023,-1.499,-1.491,-1.4355,-1.4115,-1.4088,-1.4088,-1.4088,0.0,0.0,0.0,0.0,-1.3781,-1.3694,-1.3647,-1.3387,-1.3307,-1.3307,-1.3307,-1.3307,-1.3307,-1.3307,-1.3307,-1.3307,-1.3307,-1.3307,-1.3307,-1.3307,-1.328,-1.326,-1.326,-1.3233,-1.312,-1.2923,-1.2552,-1.2338,-1.2305,-1.2305,-1.2305,-1.2305,-1.1539,-1.0932,-1.0932,0.0,0.0,-0.9448,-0.9448,-0.9069,-0.8012,-0.7859,-0.7403,-0.649,-0.6338,-0.6338,-0.6338,-0.6338,-0.6338,-0.6338,-0.6338,-0.6338,-0.6338,-0.6338,-0.6338,0.0,0.0,0.0,0.0,0.0,0.0,0.0,0.0,0.0,0.0,0.0,0.0,0.0,0.0,0.0,-1.3748,-1.3928,-1.4188,-1.4716,-1.4943,-1.499,-1.4816,-1.4843,-1.499,-1.5284,-1.5311,-1.5411,-1.5645,-1.5665,-1.5685,-1.5745,-1.5745,0.0,-1.5832,-1.5832,-1.5832,-1.5832,-1.5832,-1.5832,-1.5832,0.0,0.0,-1.5825,-1.5772,-1.5745,-1.5745,-1.5685,-1.5665,-1.5645,-1.5411,-1.5177,-1.493,-1.4576,-1.4295,-1.4088,-1.4088,-1.4088,-1.4088,-1.4088,-1.4088,-1.4075,-1.4021,-1.4001,-1.3988,-1.3935,-1.3921,0.0,-1.3921,-1.3921,-1.3921,-1.3921,-1.3921,-1.3921,-1.3921,-1.3921,-1.3921,-1.3921,-1.3728,-1.3561,-1.3561,-1.3367,-1.3193,-1.3133,-1.2866,-1.2579,-1.2338,-1.2305,-1.2305,-1.2305,-1.215,-1.1996,-1.1996,-1.1848,-1.1397,-1.0565,-1.049,-1.0115,-0.9069,-0.8237,-0.7706,-0.7557,-0.6718,-0.6338,-0.6338,-0.6338,-0.6338,-0.6338,-0.6338,-0.6338,-0.6338,-0.6338,-0.6338,0.0,0.0,0.0,0.0,0.0,0.0,0.0,0.0,0.0,0.0,0.0,-1.2916,0.0,0.0,-1.3794,-1.4229,-1.4549,-1.4843,-1.5137,-1.5431,-1.5504,-1.5217,-1.5311,-1.5451,-1.5598,-1.5611,-1.5671,-1.5818,-1.5832,-1.5832,-1.5832,-1.5832,-1.5832,-1.5832,-1.5832,-1.5832,-1.5832,-1.5832,-1.5832,-1.5832,-1.5832,-1.5832,-1.5832,-1.5832,-1.5832,-1.5832,-1.5832,-1.5832,-1.5818,-1.5671,-1.5444,-1.5255,-1.5707,-1.5531,-1.5106,-1.4951,-1.522,-1.5718,-1.5718,-1.5718,-1.5718,-1.5718,-1.5304,-1.4894,-1.4894,-1.4489,-1.4088,-1.4088,-1.4088,-1.4088,-1.4088,-1.4088,-1.4088,-1.4088,-1.4088,-1.4088,-1.4088,-1.3968,-1.3868,-1.3868,-1.3748,-1.3601,-1.3454,-1.33,-1.3039,-1.2592,-1.2525,-1.2472,-1.2318,-1.2305,-1.2305,-1.2305,-1.2305,-1.2077,-1.162,-1.1087,-1.0559,-1.0115,-0.8613,-0.7783,-0.7783,-0.6872,-0.6338,-0.6338,-0.6338,-0.6338,-0.6338,-0.6338,-0.6338,-0.6338,-0.6338,-0.6338,0.0,0.0,0.0,0.0,0.0,0.0,0.0,0.0,-1.2478,-1.2772,-1.3003,-1.3153,-1.3641,-1.4021,-1.4355,-1.4643,-1.5084,-1.5418,-1.5471,-1.5678,-1.5745,-1.5504,-1.5691,-1.5832,-1.5832,-1.5832,-1.5832,-1.5832,-1.5832,-1.5832,-1.5832,-1.5832,-1.5832,-1.5832,-1.5832,-1.5832,-1.5832,-1.5832,-1.5832,-1.5832,-1.5832,-1.5832,-1.5832,-1.5832,-1.5832,-1.5832,-1.5832,-1.5832,-1.5832,-1.5832,-1.5691,-1.5564,-1.6478,-1.6751,-1.6581,-1.627,-1.6539,-1.7024,-1.7033,-1.7009,-1.6927,-1.6772,-1.6198,-1.5696,-1.5696,-1.5137,-1.4412,-1.4412,-1.425,-1.4088,-1.4088,-1.4088,-1.4088,-1.4088,-1.4088,-1.4088,-1.4088,-1.4088,-1.4088,-1.4088,-1.4088,-1.4008,-1.3768,-1.3728,-1.3527,-1.2926,-1.2862,-1.2735,-1.2418,-1.2338,-1.2305,-1.2305,-1.2305,-1.2305,-1.2305,-1.1545,-1.1087,-1.1087,-0.9362,-0.8309,-0.8084,-0.7099,-0.649,-0.6338,-0.6338,-0.6338,-0.6338,-0.6338,-0.6338,-0.6338,-0.6338,-0.6338,-1.7706,-1.6376,-1.4807,-1.381,-1.2952,-1.2371,0.0,0.0,-1.2786,-1.3093,-1.3574,-1.3955,-1.4021,-1.4489,-1.4957,-1.5251,-1.5351,-1.5484,-1.5745,-1.5805,-1.5818,-1.5785,-1.5812,-1.5832,-1.5832,-1.5832,-1.5832,-1.5832,-1.5832,-1.5832,-1.5832,-1.5832,-1.5832,-1.5832,-1.5832,-1.5832,-1.5832,-1.5832,-1.5832,-1.5832,-1.5832,-1.5832,-1.5832,-1.5832,-1.5832,-1.5832,-1.5832,-1.5832,-1.5832,-1.5832,-1.5812,-1.5752,-1.5677,-1.6777,-1.8482,-1.7899,-1.7143,-1.6169,-1.5967,-1.5861,-1.5703,-1.4741,-1.5061,-1.5696,-1.5696,-1.5621,-1.5538,-1.5538,-1.481,-1.4088,-1.4088,-1.4088,-1.4088,-1.4088,-1.4088,-1.4088,-1.4088,-1.4088,-1.4088,-1.4088,-1.4088,-1.4075,-1.4041,-1.4041,-1.3841,-1.3247,-1.2926,-1.2808,-1.2775,-1.2465,-1.2305,-1.2305,-1.2305,-1.2305,-1.2305,-1.2224,-1.215,-1.215,-1.1087,-1.004,-0.9145,-0.8161,-0.7176,-0.6338,-0.6338,-0.6338,-0.6338,-0.6338,-0.6338,-0.6338,-0.6338,-0.6338,-1.5799,-1.5376,-1.4856,0.0,-1.3301,-1.3311,-1.3101,-1.3019,-1.3153,-1.3627,-1.3915,-1.4242,-1.4756,-1.505,-1.5311,0.0,-1.5651,-1.5691,-1.5812,-1.5832,-1.5832,-1.5832,-1.5832,-1.5832,-1.5832,-1.5832,-1.5832,-1.5832,-1.5832,-1.5832,-1.5832,-1.5992,-1.6086,-1.6086,-1.6253,-1.6339,-1.6339,-1.6172,-1.6086,-1.6086,-1.5912,-1.5832,-1.5832,-1.5832,-1.5832,-1.5832,-1.5832,-1.5832,-1.5832,-1.5832,-1.6204,-1.6929,-1.68,-1.7735,-1.8995,-1.7676,-1.8184,-1.9323,-1.826,-1.7887,-1.7853,-1.7155,-1.6355,-1.5696,-1.5696,-1.5296,-1.4734,-1.4734,-1.4412,-1.4088,-1.4088,-1.4088,-1.4088,-1.4088,-1.4088,-1.4088,-1.4088,-1.4088,-1.4088,-1.4088,-1.4088,-1.4088,-1.4088,-1.4088,-1.4001,-1.3761,-1.346,-1.314,-1.2869,-1.2714,-1.2492,-1.2318,-1.2305,-1.2305,-1.2305,-1.2305,-1.2305,-1.2305,-1.1391,-1.034,-0.9372,-0.8313,-0.7326,-0.6338,-0.6338,-0.6338,-0.6338,-0.6338,-0.6338,-0.6338,-0.6338,-0.6338,-1.5072,-1.4953,-1.4969,-1.3611,-1.3627,-1.3789,-1.3419,-1.3327,-1.35,-1.4088,-1.4275,-1.4549,-1.5264,-1.5464,-1.5585,-1.5798,-1.5832,-1.5832,-1.5832,-1.5832,-1.5832,-1.5832,-1.5832,-1.5832,-1.5832,-1.5832,-1.5832,-1.5832,-1.5832,-1.5865,-1.5945,-1.6152,-1.6306,-1.6386,-1.66,-1.6707,-1.6707,-1.642,-1.6273,-1.6273,-1.5972,-1.5832,-1.5825,-1.6204,-1.6292,-1.6386,-1.6655,-1.6835,-1.6835,-1.6835,-1.7397,-1.8234,-1.8234,-1.8948,-1.9785,-1.8013,-1.9168,-2.1379,-2.009,-1.9696,-1.9651,-1.9037,-1.7796,-1.6453,-1.6684,-1.5755,-1.4677,-1.4929,-1.458,-1.4088,-1.4088,-1.4088,-1.4088,-1.4088,-1.4088,-1.4088,-1.4088,-1.4088,-1.4088,-1.4088,-1.4088,-1.4088,-1.4088,-1.4088,-1.4088,-1.4088,-1.3901,-1.3581,-1.306,-1.2929,-1.2741,-1.2445,-1.2351,-1.2305,-1.2305,-1.2305,-1.2305,-1.2305,-1.162,-1.064,-0.9372,-0.8618,-0.7629,-0.6338,-0.6338,-0.6338,-0.6338,-0.6338,-0.6338,-0.6338,-0.6338,-0.6338,-1.7063,-1.6276,-1.5396,-1.4697,-1.3874,-1.3273,-1.3567,-1.3627,-1.3794,-1.4382,-1.4736,-1.503,-1.5337,-1.5625,-1.5818,-1.5832,-1.5832,-1.5832,-1.5832,-1.5832,-1.5832,-1.5832,-1.5832,-1.5832,0.0,-1.5832,-1.5832,-1.5832,-1.5832,-1.5952,-1.6246,-1.6266,-1.64,-1.6687,-1.67,-1.6707,-1.6707,-1.642,-1.6273,-1.6273,-1.5972,-1.5832,-1.5825,-1.7037,-1.7591,-1.7684,-1.8864,-1.9405,-1.9405,-1.9405,-1.9397,-1.9405,-1.9405,-2.0215,-2.1105,-1.9827,-1.9949,-2.0643,-2.0322,-2.0186,-2.0009,-1.8982,-1.8468,-1.8487,-1.9221,-1.7846,-1.6184,-1.6942,-1.5718,-1.4088,-1.4088,-1.4088,-1.4088,-1.4088,-1.4088,-1.4088,-1.4088,-1.4088,-1.4088,-1.4088,-1.4088,-1.4088,-1.4088,-1.4088,-1.4088,-1.4088,-1.4082,-1.3961,-1.3654,-1.3106,-1.2822,-1.2808,-1.2478,-1.2305,-1.2305,-1.2305,-1.2305,-1.2305,-1.2305,-1.1397,-0.9372,-0.9296,-0.8313,-0.6338,-0.6338,-0.6338,-0.6338,-0.6338,-0.6338,-0.6338,-0.6338,-0.6338,-1.7359,-1.7588,-1.7732,-1.6423,-1.6374,-1.6472,-1.6113,-1.6029,-1.616,-1.6615,-1.68,-1.6794,-1.6538,-1.6543,-1.6408,-1.5886,-1.5832,-1.5832,-1.5832,-1.5832,-1.5832,-1.5832,-1.5832,0.0,0.0,0.0,0.0,-1.5832,-1.6012,-1.6166,-1.6266,-1.664,-1.6901,-1.7001,-1.7188,-1.7288,-1.7288,-1.7001,-1.6754,-1.6553,-1.6066,-1.5832,-1.5825,-1.7131,-1.7692,-1.7785,-1.8956,-1.9497,-1.9497,-1.9497,-1.9943,-2.0567,-1.9852,-2.0764,-2.2315,-2.1123,-2.1398,-2.2138,-2.0921,-2.0603,-2.0558,-1.9862,-1.9187,-1.8562,-1.8863,-1.8396,-1.7859,-1.8085,-1.7629,-1.6869,-1.6102,-1.5929,-1.5676,-1.4926,-1.4669,-1.4616,-1.4416,-1.4376,-1.4315,-1.4122,-1.4088,-1.4088,-1.4088,-1.4088,-1.4088,-1.4088,-1.3921,-1.3761,-1.3572,-1.33,-1.3053,-1.3053,-1.2779,-1.2599,-1.2599,-1.2418,-1.2305,-1.2305,-1.1694,-1.072,-0.9372,-0.8694,-0.7706,-0.6338,-0.6338,-0.6338,-0.6338,-0.6338,-0.6338,-0.6338,-0.6338,-0.6338,-1.7579,-1.8138,-1.861,-1.7352,-1.7533,-1.7847,-1.7365,-1.7342,-1.736,-1.7729,-1.7803,-1.773,-1.7505,-1.7078,-1.6831,-1.6892,-1.6579,-1.6341,-1.6466,-1.648,-1.6298,-1.5825,-1.5832,0.0,0.0,0.0,0.0,-1.5838,-1.6106,-1.6319,-1.642,-1.6887,-1.7194,-1.7301,-1.7482,-1.7582,-1.7582,-1.7295,-1.6947,-1.6547,-1.6532,-1.648,-1.6574,-1.8218,-1.8956,-1.9039,-2.0223,-2.0764,-2.0764,-2.0764,-2.1212,-2.1845,-2.1123,-2.1765,-2.3047,-2.2217,-2.2403,-2.2921,-2.1917,-2.164,-2.1603,-2.1332,-2.0458,-1.9644,-1.9868,-1.9393,-1.8841,-1.9136,-1.8922,-1.8415,-1.7628,-1.7113,-1.6595,-1.5821,-1.5308,-1.491,-1.4723,-1.4676,-1.4589,-1.4295,-1.4242,-1.4208,-1.4108,-1.4088,-1.4088,-1.4088,-1.3928,-1.3801,-1.3801,-1.3547,-1.3367,-1.3367,-1.3093,-1.2913,-1.2913,-1.2639,-1.2458,-1.2458,-1.1446,-1.034,-0.9372,-0.8313,-0.7326,-0.6338,-0.6338,-0.6338,-0.6338,-0.6338,-0.6338,-0.6338,-0.6338,-0.6338,-1.7926,-1.8091,-1.8246,-1.7654,-1.7504,-1.7504,-1.7504,-1.7504,-1.7514,-1.7846,-1.7913,-1.7936,-1.8214,-1.7321,-1.7094,-1.8515,-1.7866,-1.7182,-1.7524,-1.7584,-1.7131,0.0,0.0,0.0,0.0,0.0,0.0,-1.5892,0.0,-1.644,-1.6714,-1.7007,-1.7295,-1.7575,-1.7582,-1.7582,-1.7582,-1.7281,-1.6948,-1.6384,-1.7297,-1.7684,-1.787,-2.0215,-2.1293,-2.1382,-2.2589,-2.3135,-2.3135,-2.3135,-2.3135,-2.3135,-2.3135,-2.3135,-2.3135,-2.3135,-2.3135,-2.3135,-2.3135,-2.3135,-2.3135,-2.3135,-2.2306,-2.1496,-2.2303,-2.103,-1.9448,-2.0112,-1.958,-1.881,-1.8646,-1.7771,-1.6903,-1.6815,-1.5871,-1.5003,-1.499,-1.4983,-1.4897,-1.4603,-1.4529,-1.4429,-1.4135,-1.4088,-1.4088,-1.4088,-1.4088,-1.4088,-1.4088,-1.3841,-1.3667,-1.3667,-1.3407,-1.3233,-1.3233,-1.2946,-1.2849,-1.2849,-1.1501,-1.0299,-0.9408,-0.8331,-0.7261,-0.6349,-0.6264,-0.6338,-0.6338,-0.6338,-0.6338,-0.6338,-0.6345,-0.6271,-1.9331,-1.9678,-1.9946,-1.9806,-1.9756,-1.9756,-1.9756,-1.9756,-1.97,-1.9416,-1.9369,-1.9178,-1.8681,-1.7689,-1.6983,-1.7152,-1.6397,0.0,-1.5948,-1.6154,0.0,-1.5825,0.0,-1.6159,-1.6159,-1.6426,0.0,0.0,-1.6754,-1.6961,-1.7034,-1.7315,-1.7508,-1.7582,-1.7582,-1.7582,-1.7582,-1.7074,-1.7234,-1.7942,-1.7771,-1.8141,-1.9131,-2.0576,-2.1293,-2.1382,-2.2589,-2.3135,-2.3135,-2.3135,-2.3135,-2.3135,-2.3135,-2.3135,-2.3135,-2.3135,-2.3135,-2.3135,-2.3135,-2.3135,-2.3135,-2.3135,-2.2862,-2.2658,-2.2921,-2.2524,-2.2136,-2.2303,-2.2178,-2.1549,-1.9754,-1.9036,-1.8312,-1.6508,-1.5785,-1.5545,-1.5331,-1.5284,-1.5204,-1.491,-1.4669,-1.4429,-1.4135,-1.4088,-1.4088,-1.4088,-1.4088,-1.4088,-1.4088,-1.4021,-1.3975,-1.3975,-1.3707,-1.3534,-1.3534,-1.326,-1.3093,-1.3093,-1.1248,-1.001,-0.9771,-0.7894,-0.6731,-0.6417,-0.6315,-0.6338,-0.6338,-0.6338,-0.6338,-0.6342,-0.6369,-0.6417,-1.9805,-2.0234,-2.0566,-2.0566,-2.0566,-2.0518,-2.0322,-2.0283,-2.0156,-1.9727,-1.9639,-1.9483,-1.9012,-1.7856,-1.7114,0.0,0.0,0.0,-1.6176,-1.6465,-1.6434,0.0,-1.6172,0.0,-1.6446,-1.6727,-1.6901,0.0,-1.7054,-1.7148,-1.7148,-1.7422,-1.7582,-1.7582,-1.7582,-1.7522,-1.7395,-1.7427,-1.781,-1.8334,-1.8933,-1.967,-2.0305,-2.1578,-2.212,-2.212,0.0,-2.3135,-2.3135,-2.3135,-2.3135,-2.3135,-2.3135,-2.3135,-2.3135,-2.3135,-2.3135,-2.3135,-2.3135,-2.3135,-2.3135,-2.3135,-2.3135,-2.3135,-2.3135,-2.3135,-2.3135,-2.3135,-2.3135,-2.2775,-2.1409,-2.0314,-1.9131,-1.7755,-1.656,-1.5785,-1.5618,-1.5585,-1.5504,-1.5211,-1.481,-1.4469,-1.4302,-1.4168,-1.4088,-1.4088,-1.4088,-1.4088,-1.4088,-1.4088,-1.4088,-1.4088,-1.3941,-1.3841,-1.3841,-1.3567,-1.3152,-1.265,-1.0891,-0.97,-0.9213,-0.7504,-0.6573,-0.6573,-0.6495,-0.6454,-0.6454,-0.6454,-0.6454,-0.6458,-0.6536,-0.6573,-1.9873,-2.0273,-2.0566,-2.0566,-2.0566,-2.0449,-2.0019,-1.9912,-1.9775,-1.9297,-1.9199,-1.9199,-1.9199,-1.7925,-1.7223,-1.8488,0.0,-1.672,-1.6876,-1.7217,-1.7095,-1.6373,-1.6279,-1.6426,-1.668,-1.7007,-1.7208,-1.7208,-1.7208,-1.7208,-1.7208,-1.7442,-1.7582,-1.7582,-1.7582,-1.7546,-1.7456,-1.8131,-1.8491,-1.864,-2.0394,-2.1382,-2.1569,-2.2589,-2.3135,-2.3135,0.0,0.0,-2.3135,-2.3135,-2.3135,-2.3135,-2.3135,-2.3135,-2.3135,-2.3135,-2.3135,-2.3135,-2.3135,-2.3135,-2.3135,-2.3135,-2.3135,-2.3135,-2.3135,-2.3135,-2.3135,-2.3135,-2.3135,-2.3047,-2.2862,-2.1311,-1.967,-1.9314,-1.7669,-1.6015,-1.5825,-1.5832,-1.5745,-1.5451,-1.4983,-1.4609,-1.4536,-1.4309,-1.4128,-1.4095,-1.4088,-1.4088,-1.4088,-1.4088,-1.4088,-1.4088,-1.4088,-1.4088,-1.4088,-1.3675,-1.3016,-1.1999,-1.0547,-0.9297,-0.8321,-0.7318,-0.6729,-0.6729,-0.6712,-0.6702,-0.6702,-0.6702,-0.6702,-0.6702,-0.6722,-0.6729,-2.0234,-2.0508,-2.0566,-2.0566,-2.0566,-2.0449,-2.0019,-1.9912,0.0,0.0,-1.875,-1.875,-1.875,-1.8055,-1.7462,-1.7128,0.0,0.0,0.0,0.0,-1.5851,0.0,0.0,0.0,0.0,0.0,0.0,0.0,0.0,0.0,-1.7508,-1.7555,-1.7582,-1.7582,-1.7582,-1.795,-1.8651,-1.8522,-1.9349,-2.1177,-2.122,-2.1845,-2.2775,-2.296,-2.3135,-2.3135,0.0,0.0,-2.3135,-2.3135,-2.3135,-2.3135,-2.3135,-2.3135,-2.3135,-2.3135,-2.3135,-2.3135,-2.3135,-2.3135,-2.3135,-2.3135,-2.3135,-2.3135,-2.3135,-2.3135,-2.3135,-2.3135,-2.3135,-2.2862,-2.1845,-2.1293,-2.0486,-1.8503,-1.7684,-1.7037,-1.6015,-1.5832,-1.5745,-1.5451,-1.5311,-1.509,-1.4603,-1.4476,-1.4362,-1.4122,-1.4088,-1.4088,-1.4088,-1.4088,-1.4088,-1.4088,-1.4088,-1.4088,-1.4088,-1.3159,-1.2433,-1.2257,-1.0257,-0.8966,-0.8793,-0.7547,-0.6888,-0.6888,-0.6766,-0.6702,-0.6702,-0.6702,-0.6702,-0.6705,-0.6831,-0.6888,-2.0332,-2.0566,-2.0566,-2.0566,-2.0391,-2.0107,-1.9687,0.0,0.0,-1.8437,-1.8311,-1.8379,-1.8523,-1.8108,-1.7676,-1.7588,0.0,0.0,0.0,0.0,0.0,0.0,0.0,0.0,0.0,0.0,0.0,0.0,0.0,0.0,-1.7582,-1.7582,-1.7582,-1.7582,-1.7582,-1.7977,-1.8696,-1.9215,-2.0202,-2.1509,-2.2036,-2.258,-2.3135,-2.3135,-2.3135,-2.3135,-2.3135,0.0,-2.3135,-2.3135,-2.3135,-2.3135,-2.3135,-2.3135,-2.3135,-2.3135,-2.3135,-2.3135,-2.3135,-2.3135,-2.3135,-2.3135,-2.3135,-2.3135,-2.3135,-2.3135,-2.3135,-2.3135,-2.3135,-2.296,-2.2403,-2.1302,-2.0215,-1.967,-1.8588,-1.7318,-1.6109,-1.5832,-1.5792,-1.5651,-1.5504,-1.5304,-1.5023,-1.4723,-1.4476,-1.4335,-1.4182,-1.4088,-1.4088,-1.4088,-1.4088,-1.4088,-1.4088,-1.3822,-1.3209,-1.2589,-1.1809,-1.0611,-0.9492,-0.8627,-0.8017,-0.7334,-0.7037,-0.7037,-0.6966,-0.6929,-0.6929,-0.6929,-0.6929,-0.6932,-0.7004,-0.7044,-2.0195,-2.0361,-2.0312,-2.04,-2.0098,-1.9668,-1.9248,-1.8887,0.0,-1.8096,-1.8008,-1.8135,-1.8555,-1.8326,-1.8136,0.0,-1.7407,-1.6723,0.0,0.0,0.0,0.0,0.0,0.0,0.0,0.0,0.0,0.0,0.0,0.0,-1.7582,-1.7582,-1.7681,-1.7989,-1.7996,-1.8409,-1.9334,-2.0289,-2.1147,-2.1658,-2.2677,-2.3135,-2.3135,-2.3135,-2.3135,-2.3135,-2.3135,0.0,0.0,-2.3135,-2.3135,-2.3135,-2.3135,-2.3135,-2.3135,-2.3135,-2.3135,-2.3135,-2.3135,-2.3135,-2.3135,-2.3135,-2.3135,-2.3135,-2.3135,-2.3135,-2.3135,-2.3135,-2.3135,-2.3135,-2.3135,-2.1676,-2.0494,-2.1114,-1.967,-1.7777,-1.648,-1.6204,-1.6109,-1.5825,-1.5645,-1.5471,-1.5404,-1.4963,-1.4596,-1.4529,-1.4275,-1.4088,-1.4088,-1.4088,-1.4088,-1.4088,-1.4088,-1.3646,-1.2413,-1.2072,-1.1037,-0.9065,-0.8627,-0.8105,-0.7139,-0.7139,-0.7139,-0.7139,-0.7139,-0.7139,-0.7139,-0.7139,-0.7139,-0.7139,-0.7139,-0.7064,-1.9746,-1.9697,-1.9492,-1.9873,-1.9658,-1.9228,-1.8799,0.0,-1.8516,-1.8096,-1.8008,-1.8135,-1.8555,-1.8913,-1.8972,-1.8375,-1.8565,-1.8198,-1.676,0.0,0.0,0.0,0.0,0.0,0.0,0.0,0.0,0.0,0.0,0.0,0.0,-1.7582,-1.8199,-1.9428,-1.942,-2.021,-2.2037,-2.2123,-2.2483,-2.295,-2.3047,-2.3135,-2.3135,-2.3135,-2.3135,-2.3135,0.0,0.0,0.0,-2.3135,-2.3135,-2.3135,-2.3135,-2.3135,-2.3135,-2.3135,-2.3135,-2.3135,-2.3135,-2.3135,-2.3135,-2.3135,-2.3135,-2.3135,-2.3135,-2.3135,-2.3135,-2.3135,-2.3135,-2.3135,-2.3135,-2.296,-2.2501,-2.1569,-2.0305,-1.9047,-1.7777,-1.7505,-1.7225,-1.6015,-1.5805,-1.5705,-1.5444,-1.513,-1.483,-1.4563,-1.4275,-1.4088,-1.4088,-1.4088,-1.4088,-1.4088,-1.4088,-1.3646,-1.2413,-1.1381,-1.0269,-0.8978,-0.7841,-0.7228,-0.7139,-0.7139,-0.7139,-0.7139,-0.7139,-0.7139,-0.7139,-0.7139,-0.7139,-0.7139,-0.7139,-0.7064,-1.9375,-1.9414,-1.9326,-1.9492,-1.9209,-1.8848,-1.8601,0.0,-1.8213,-1.8047,-1.8008,-1.8223,-1.8906,-1.917,-1.9364,-1.964,-1.933,-1.8816,-1.8347,0.0,0.0,0.0,0.0,0.0,0.0,0.0,0.0,0.0,0.0,0.0,0.0,-1.9213,-1.9013,-1.9627,-2.0436,-2.1404,-2.2425,-2.2416,-2.2677,-2.3135,-2.3135,-2.3135,-2.3135,-2.3135,-2.3135,-2.3135,0.0,0.0,0.0,-2.3135,-2.3135,-2.3135,-2.3135,-2.3135,-2.3135,-2.3135,-2.3135,-2.3135,-2.3135,-2.3135,-2.3135,-2.3135,-2.3135,-2.3135,-2.3135,-2.3135,-2.3135,-2.3135,-2.3135,-2.3135,-2.3135,-2.3135,-2.2589,-2.0674,-2.0395,-2.0034,-1.8141,-1.7692,-1.7318,-1.6015,-1.5832,-1.5792,-1.5678,-1.5271,-1.4923,-1.4803,-1.4389,-1.4088,-1.4088,-1.4088,-1.4088,-1.4088,-1.4088,-1.33,-1.1472,-1.0864,-0.9831,-0.7925,-0.7404,-0.7139,-0.7139,-0.7139,-0.7139,-0.7139,-0.7139,-0.7139,-0.7139,-0.7139,-0.7139,-0.7139,-0.7064,-0.7081,-1.8975,-1.9004,-1.8936,-1.9062,-1.8769,-1.8447,0.0,0.0,-1.8008,-1.8008,-1.8008,-1.8271,-1.9131,-1.9287,-1.957,-2.043,-2.0001,-1.95,-1.9398,-2.0135,0.0,0.0,0.0,0.0,0.0,0.0,0.0,0.0,0.0,0.0,0.0,-2.1151,-2.0845,-2.0845,-2.1653,-2.2388,-2.299,-2.287,-2.2931,-2.3135,-2.3135,-2.3135,-2.3135,-2.3135,-2.3135,-2.3135,0.0,0.0,0.0,-2.3135,-2.3135,-2.3135,-2.3135,-2.3135,-2.3135,-2.3135,-2.3135,-2.3135,-2.3135,-2.3135,-2.3135,-2.3135,-2.3135,-2.3135,-2.3135,-2.3135,-2.3135,-2.3135,-2.3135,-2.3135,-2.3135,-2.3135,-2.2589,-2.0494,-2.0666,-2.0666,-1.8234,-1.7692,-1.7318,-1.6015,-1.5832,-1.5832,-1.5832,-1.5351,-1.4963,-1.4963,-1.4462,-1.4088,-1.4088,-1.4088,-1.4088,-1.4088,-1.3822,-1.2772,-1.0783,-1.0611,-0.957,-0.7228,-0.7139,-0.7139,-0.7139,-0.7139,-0.7139,-0.7139,-0.7139,-0.7139,-0.7139,-0.7139,-0.7143,-0.7061,-0.7078,-0.7094,-1.8525,-1.834,-1.8125,-1.8545,-1.833,-1.8018,-1.8018,-1.8018,-1.8008,-1.8008,-1.8008,-1.8271,-1.9131,-1.9287,-1.957,-2.043,-2.0566,-2.0301,-1.948,-2.0834,0.0,0.0,0.0,0.0,0.0,0.0,0.0,0.0,0.0,0.0,0.0,-2.2968,-2.3692,-2.3692,-2.3206,-2.3395,-2.4322,-2.4004,-2.3574,-2.3135,-2.3135,-2.3135,-2.3135,-2.3135,-2.3135,0.0,0.0,0.0,0.0,-2.3135,-2.3135,-2.3135,-2.3135,-2.3135,-2.3135,-2.3135,-2.3135,-2.3135,-2.3135,-2.3135,-2.3135,-2.3135,-2.3135,-2.3135,-2.3135,-2.3135,-2.3135,-2.3135,-2.3135,-2.3135,-2.3135,-2.3135,-2.2775,-2.1569,-2.1293,-2.0666,-1.8234,-1.7692,-1.7318,-1.6015,-1.5832,-1.5832,-1.5832,-1.5351,-1.4963,-1.4963,-1.4462,-1.4088,-1.4088,-1.4088,-1.4088,-1.4088,-1.3027,-1.1809,-1.0697,-1.0611,-0.957,-0.7228,-0.7139,-0.7139,-0.7139,-0.7139,-0.7139,-0.7139,-0.7139,-0.7139,-0.7139,-0.7139,-0.7064,-0.7084,-0.7084,-0.7104,-1.8174,-1.8115,-1.8047,-1.8174,-1.8105,-1.8008,-1.8008,-1.8008,-1.8008,-1.8008,-1.8008,-1.8271,-1.9131,-1.9287,-1.957,-2.043,-2.0566,-2.0528,0.0,0.0,0.0,0.0,0.0,0.0,0.0,0.0,0.0,0.0,0.0,0.0,0.0,0.0,-2.4609,-2.3692,-2.4197,-2.4458,-2.4424,-2.4004,-2.3574,-2.3135,-2.3135,-2.3135,-2.3135,-2.3135,0.0,0.0,0.0,0.0,0.0,-2.3135,-2.3135,-2.3135,-2.3135,-2.3135,-2.3135,-2.3135,-2.3135,-2.3135,-2.3135,-2.3135,-2.3135,-2.3135,-2.3135,-2.3135,-2.3135,-2.3135,-2.3135,-2.3135,-2.3135,-2.3135,-2.3135,-2.2492,-2.1756,-2.1382,-2.0666,-1.967,-1.8048,-1.7692,-1.7318,-1.6015,-1.5832,-1.5832,-1.5832,-1.5351,-1.4963,-1.4963,-1.4462,-1.4088,-1.4088,-1.4088,-1.3822,-1.2942,-1.2504,-1.1815,-1.0697,-0.9923,-0.8798,-0.7228,-0.7139,-0.7139,-0.7139,-0.7139,-0.7139,-0.7139,-0.7139,-0.7061,-0.7074,-0.7074,-0.7091,-0.7121,-0.7121,-0.5397,-1.8008,-1.8008,-1.8008,-1.8008,-1.8008,0.0,-1.8008,-1.8008,-1.8008,-1.8008,-1.8008,-1.8271,-1.9131,-1.9287,-1.957,-2.043,-2.0566,-2.0479,0.0,0.0,0.0,0.0,0.0,0.0,0.0,0.0,0.0,0.0,0.0,0.0,0.0,0.0,-2.5006,-2.4035,-2.4563,-2.4619,-2.418,-2.376,-2.3408,-2.3135,-2.3135,-2.3135,-2.3135,-2.3135,0.0,0.0,0.0,0.0,0.0,-2.3135,-2.3135,-2.3135,-2.3135,-2.3135,-2.3135,-2.3135,-2.3135,-2.3135,-2.3135,-2.3135,-2.3135,-2.3135,-2.3135,-2.3135,-2.3135,-2.3135,-2.3135,-2.3135,-2.3135,-2.296,-2.258,-2.1845,-2.1114,-2.0124,-1.9405,-1.8495,-1.7217,-1.6943,-1.6763,-1.592,-1.5832,-1.5832,-1.5832,-1.5351,-1.4963,-1.4963,-1.4462,-1.4088,-1.4088,-1.373,-1.3118,-1.2413,-1.1552,-1.0697,-1.0009,-0.9323,-0.8364,-0.7139,-0.7139,-0.7139,-0.7139,-0.7139,-0.7139,-0.7139,-0.7061,-0.7071,-0.7084,-0.7098,-0.7115,-0.7045,-0.5223,-0.2875,0.0,-1.8008,-1.8008,-1.8008,-1.8008,-1.8008,-1.8008,-1.8008,0.0,-1.8008,-1.8008,-1.8271,-1.9131,-1.9287,-1.957,-2.043,-2.0566,0.0,0.0,0.0,0.0,0.0,0.0,0.0,0.0,0.0,0.0,0.0,0.0,0.0,0.0,0.0,-2.4824,-2.4385,-2.4375,-2.418,-2.3799,-2.3359,-2.3135,-2.3135,-2.3135,-2.3135,-2.3135,-2.3135,0.0,0.0,0.0,0.0,0.0,-2.3135,-2.3135,-2.3135,-2.3135,-2.3135,-2.3135,-2.3135,-2.3135,-2.3135,-2.3135,-2.3135,-2.3135,-2.3135,-2.3135,-2.3135,-2.3135,-2.3135,-2.3135,-2.3135,-2.3047,-2.2677,-2.1569,-2.1203,-2.0486,-1.8226,-1.7598,-1.7225,-1.6015,-1.5832,-1.5832,-1.5832,-1.5832,-1.5832,-1.5832,-1.5351,-1.4963,-1.4963,-1.4462,-1.4088,-1.3997,-1.3027,-1.2242,-1.2072,-1.0183,-0.889,-0.8803,-0.8803,-0.8277,-0.7139,-0.7139,-0.7139,-0.7139,-0.7139,-0.7139,-0.7139,-0.6982,-0.6903,-0.6815,-0.6662,-0.6585,-0.6496,-0.2066,-0.0,-1.8008,0.0,-1.8008,-1.8008,-1.8008,-1.8008,0.0,-1.8008,-1.8008,-1.8008,-1.8008,-1.8271,-1.9131,-1.9287,-1.957,-2.043,-2.0566,0.0,0.0,0.0,0.0,0.0,0.0,0.0,0.0,0.0,0.0,0.0,0.0,0.0,0.0,0.0,-2.4375,-2.3945,-2.3935,-2.3896,-2.3789,-2.3359,-2.3135,-2.3135,-2.3135,-2.3135,-2.3135,-2.3135,0.0,0.0,0.0,0.0,-2.3135,-2.3135,-2.3135,-2.3135,-2.3135,-2.3135,-2.3135,-2.3135,-2.3135,-2.3135,-2.3135,-2.3135,-2.3135,-2.3135,-2.3135,-2.3135,-2.3135,-2.3135,-2.3135,-2.3135,-2.2403,-2.1658,-2.1382,-1.9943,-1.8411,-1.787,-1.6943,-1.6204,-1.5825,-1.5832,-1.5832,-1.5832,-1.5832,-1.5832,-1.5832,-1.5351,-1.4963,-1.4963,-1.4462,-1.3737,-1.2851,-1.2498,-1.1638,-0.9923,-0.9235,-0.854,-0.7577,-0.7492,-0.7401,-0.7139,-0.7139,-0.7139,-0.7139,-0.7139,-0.7139,-0.7139,-0.598,-0.5001,-0.4376,-0.2593,-0.1702,-0.1617,-0.0539,-0.0,-1.8008,-1.8008,-1.8008,-1.8008,-1.8008,-1.8008,-1.8008,-1.8008,-1.7862,-1.7432,-1.7716,-1.8133,-1.8604,-1.8609,-1.9031,-2.0343,-2.0167,0.0,0.0,0.0,0.0,0.0,0.0,0.0,0.0,0.0,0.0,0.0,0.0,0.0,0.0,0.0,-2.3935,-2.3506,-2.3496,-2.3496,-2.3496,-2.3262,-2.3135,-2.3135,-2.3135,-2.3135,-2.3135,-2.3135,0.0,0.0,0.0,0.0,-2.3135,-2.3135,-2.3135,-2.3135,-2.3135,-2.3135,-2.3135,-2.3135,-2.3135,-2.3135,-2.3135,-2.3135,-2.3135,-2.3135,-2.3135,-2.3135,-2.3135,-2.3135,-2.3135,-2.3135,-2.2589,-2.1845,-2.0755,-1.9497,-1.8226,-1.7124,-1.6292,-1.5832,-1.5832,-1.5832,-1.5832,-1.5832,-1.5832,-1.5832,-1.5832,-1.5351,-1.4777,-1.4231,-1.3654,-1.2857,-1.1643,-1.1037,-1.0269,-0.9065,-0.8364,-0.7841,-0.7139,-0.7139,-0.7139,-0.7139,-0.7139,-0.7139,-0.7139,-0.7139,-0.7058,-0.7068,-0.6263,-0.5641,-0.5201,-0.1702,-0.0,-0.0,-0.0,-0.0,-1.8008,-1.8008,-1.8008,-1.8008,-1.8008,-1.8008,-1.8008,-1.8008,-1.7794,-1.7001,-1.7432,-1.7985,-1.7862,-1.7784,0.0,0.0,0.0,0.0,0.0,0.0,0.0,0.0,0.0,0.0,0.0,0.0,0.0,0.0,0.0,0.0,0.0,0.0,0.0,-2.3154,-2.3135,-2.3135,-2.3135,-2.3135,-2.3135,-2.3135,-2.3135,-2.3135,-2.3135,-2.3135,-2.3135,0.0,0.0,0.0,-2.3135,-2.3135,-2.3135,-2.3135,-2.3135,-2.3135,-2.3135,-2.3135,-2.3135,-2.3135,-2.3135,-2.3135,-2.3135,-2.3135,-2.3135,-2.3135,-2.3135,-2.3135,-2.3135,-2.3135,-2.296,-2.2315,-2.0042,-1.9405,-1.8672,-1.6379,-1.5832,-1.5832,-1.5832,-1.5832,-1.5832,-1.5832,-1.5832,-1.5812,-1.5772,-1.5226,-1.4392,-1.3339,-1.2552,-1.1638,-1.0524,-0.9492,-0.8803,-0.8627,-0.7753,-0.7139,-0.7139,-0.7139,-0.7139,-0.7139,-0.7139,-0.7139,-0.7139,-0.7139,-0.7061,-0.7084,-0.7094,-0.7111,-0.7045,-0.3056,-0.0719,-0.0,-0.0,-0.0,-1.8008,-1.8008,-1.8008,-1.8008,-1.8008,-1.8008,-1.8008,-1.8008,-1.794,-1.7794,-1.7862,-1.7916,-1.7788,-1.7701,-1.8046,0.0,0.0,0.0,0.0,0.0,0.0,0.0,0.0,0.0,0.0,0.0,0.0,0.0,0.0,0.0,0.0,0.0,0.0,-2.3135,-2.3135,-2.3135,-2.3135,-2.3135,-2.3135,-2.3135,-2.3135,-2.3135,-2.3135,-2.3135,-2.3135,0.0,0.0,-2.3135,-2.3135,-2.3135,-2.3135,-2.3135,-2.3135,-2.3135,-2.3135,-2.3135,-2.3135,-2.3135,-2.3135,-2.3135,-2.3135,-2.3135,-2.3135,-2.3135,-2.3135,-2.3135,-2.3135,-2.3135,-2.2403,-2.1302,-1.9852,-1.8772,-1.7591,-1.6109,-1.5832,-1.5832,-1.5832,-1.5832,-1.5832,-1.5832,-1.5832,-1.5752,-1.5504,-1.4343,-1.3321,-1.2898,-1.1734,-1.0438,-0.9323,-0.8978,-0.854,-0.7489,-0.7228,-0.7139,-0.7139,-0.7139,-0.7139,-0.7139,-0.7139,-0.7139,-0.7139,-0.7139,-0.7061,-0.7084,-0.7088,-0.7104,-0.7135,-0.6403,-0.3956,-0.0,-0.0,-0.0,-1.8008,-1.8008,-1.7862,-1.7354,-1.7647,-1.7725,-1.6724,-1.6862,-1.7079,-1.6585,-1.6862,-1.718,-1.6937,0.0,0.0,0.0,0.0,0.0,0.0,0.0,0.0,0.0,0.0,0.0,0.0,0.0,0.0,0.0,0.0,0.0,0.0,0.0,0.0,0.0,-2.3135,-2.3135,-2.3135,-2.3135,-2.3135,-2.3135,-2.3135,-2.3135,-2.3135,-2.3135,-2.3135,-2.3135,0.0,-2.3135,-2.3135,-2.3135,-2.3135,-2.3135,-2.3135,-2.3135,-2.3135,-2.3135,-2.3135,-2.3135,-2.3135,-2.3135,-2.3135,-2.3135,-2.3135,-2.3135,-2.3135,-2.3135,-2.3135,-2.3135,-2.2677,-2.1854,-1.9943,-1.9139,-1.8226,-1.6292,-1.5832,-1.5832,-1.5832,-1.5832,-1.5832,-1.5832,-1.5832,-1.5543,-1.4596,-1.3756,-1.2666,-1.1153,-1.0231,-0.9231,-0.8101,-0.7929,-0.7753,-0.7139,-0.7139,-0.7139,-0.7139,-0.7139,-0.7139,-0.7139,-0.7139,-0.7139,-0.7139,-0.7064,-0.7074,-0.7084,-0.7104,-0.7121,-0.7135,-0.4497,-0.2156,-0.0,-0.0,-0.0,-1.7716,-1.7862,-1.7794,-1.6853,-1.7285,-1.751,-1.5658,-1.5939,-1.6349,-1.5376,-1.6008,-1.6634,0.0,0.0,0.0,0.0,0.0,0.0,0.0,0.0,0.0,0.0,0.0,0.0,0.0,0.0,0.0,0.0,0.0,0.0,0.0,0.0,0.0,0.0,-2.3135,-2.3135,-2.3135,-2.3135,-2.3135,-2.3135,-2.3135,-2.3135,-2.3135,-2.3135,-2.3135,-2.3135,-2.3135,-2.3135,-2.3135,-2.3135,-2.3135,-2.3135,-2.3135,-2.3135,-2.3135,-2.3135,-2.3135,-2.3135,-2.3135,-2.3135,-2.3135,-2.3135,-2.3135,-2.3135,-2.3135,-2.2862,-2.2677,-2.2677,-2.2492,-2.1863,-1.9943,-1.9314,-1.8488,-1.6285,-1.5832,-1.5832,-1.5832,-1.5832,-1.5832,-1.5832,-1.5488,-1.4961,-1.3746,-1.2831,-1.1584,-0.9486,-0.8802,-0.8105,-0.7228,-0.7139,-0.7139,-0.7139,-0.7139,-0.7139,-0.7139,-0.7139,-0.7139,-0.7139,-0.7139,-0.7143,-0.7061,-0.7078,-0.7088,-0.7098,-0.7121,-0.6588,-0.5405,-0.1797,-0.0,-0.0,-0.0,-0.0,-1.6922,-1.7354,-1.7794,-1.6853,-1.7285,-1.751,-1.5658,-1.5939,-1.6349,-1.5376,-1.6225,-1.6963,0.0,0.0,0.0,0.0,0.0,0.0,0.0,0.0,0.0,0.0,0.0,0.0,0.0,0.0,0.0,0.0,0.0,0.0,0.0,0.0,0.0,0.0,0.0,-2.3135,-2.3135,-2.3135,-2.3135,-2.3135,-2.3135,-2.3135,-2.3135,-2.3135,-2.3135,-2.3135,-2.3135,-2.3135,-2.3135,-2.3135,-2.3135,-2.3135,-2.3135,-2.3135,-2.3135,-2.3135,-2.3135,-2.3135,-2.3135,-2.3135,-2.3135,-2.3135,-2.3135,-2.3135,-2.3135,-2.2306,-2.1382,-2.1382,-2.0576,-1.9679,-1.9588,-1.8688,-1.7498,-1.6103,-1.5832,-1.5832,-1.5832,-1.5832,-1.5832,-1.5832,-1.4754,-1.3734,-1.3288,-1.1212,-0.9387,-0.9024,-0.7937,-0.7228,-0.7139,-0.7139,-0.7139,-0.7139,-0.7139,-0.7139,-0.7139,-0.7139,-0.7139,-0.7139,-0.7139,-0.7061,-0.7081,-0.7084,-0.7101,-0.7131,-0.7135,-0.4949,-0.0539,-0.018,-0.0,-0.0,-0.0,-0.0,-1.6706,-1.6853,-1.6922,-1.593,-1.6428,-1.6645,-1.4665,-1.5021,-1.5505,-1.4733,-1.4956,-1.5591,0.0,0.0,0.0,0.0,0.0,0.0,0.0,0.0,0.0,0.0,0.0,0.0,0.0,0.0,0.0,0.0,0.0,0.0,0.0,0.0,0.0,0.0,0.0,-2.3135,-2.3135,-2.3135,-2.3135,-2.3135,-2.3135,-2.3135,-2.3135,-2.3135,-2.3135,-2.3135,-2.3135,-2.3135,-2.3135,-2.3135,-2.3135,-2.3135,-2.3135,-2.3135,-2.3135,-2.3135,-2.3135,-2.3135,-2.3135,-2.3135,-2.3135,-2.3135,-2.2589,-2.1943,-2.1943,-2.1123,-2.0172,-2.0021,-1.906,-1.8123,-1.8356,-1.8048,-1.7412,-1.6109,-1.5832,-1.5832,-1.5832,-1.5832,-1.5534,-1.4752,-1.4157,-1.3141,-1.1216,-1.0008,-0.8922,-0.7952,-0.7404,-0.7139,-0.7139,-0.7139,-0.7139,-0.7139,-0.7139,-0.7139,-0.7139,-0.7139,-0.7058,-0.7071,-0.7071,-0.7078,-0.7084,-0.7104,-0.7121,-0.7135,-0.4226,-0.1797,-0.0,-0.0,-0.0,-0.0,-0.0,-0.0,-1.586,-1.614,-1.6349,-1.5438,-1.5939,-1.607,-1.4171,-1.4537,-1.5041,-1.3969,-1.4471,-1.5396,-1.6681,0.0,0.0,0.0,0.0,0.0,0.0,0.0,0.0,0.0,0.0,0.0,0.0,0.0,0.0,0.0,0.0,0.0,0.0,0.0,0.0,0.0,0.0,0.0,-2.3135,-2.3135,-2.3135,-2.3135,-2.3135,-2.3135,-2.3135,-2.3135,-2.3135,-2.3135,-2.3135,-2.3135,-2.3135,-2.3135,-2.3135,-2.3135,-2.3135,-2.3135,-2.3135,-2.3135,-2.3135,-2.3047,-2.2677,-2.2492,-2.2473,-2.1989,-2.1307,-2.0553,-2.0519,-1.9588,-1.8652,-1.8411,-1.7458,-1.6538,-1.6776,-1.6834,-1.6679,-1.5852,-1.5691,-1.5718,-1.5812,-1.5758,-1.5402,-1.4527,-1.387,-1.2642,-1.037,-0.9552,-0.8678,-0.733,-0.7139,-0.7139,-0.7139,-0.7139,-0.7139,-0.7139,-0.7139,-0.7139,-0.7139,-0.7139,-0.7061,-0.7084,-0.7088,-0.7094,-0.7101,-0.7125,-0.6406,-0.486,-0.1617,-0.0,-0.0,-0.0,-0.0,-0.0,-0.0,-0.0,-1.4243,-1.5155,-1.6349,-1.5438,-1.586,-1.607,-1.4099,-1.4718,-1.5036,-1.3196,-1.4979,-1.6967,-1.7268,0.0,0.0,0.0,0.0,0.0,0.0,0.0,0.0,0.0,0.0,0.0,0.0,0.0,0.0,0.0,0.0,0.0,0.0,0.0,0.0,0.0,0.0,0.0,-2.3135,-2.3135,-2.3135,-2.3135,-2.3125,-2.3125,-2.3135,-2.3135,-2.3135,-2.3125,-2.3125,-2.3125,-2.3125,-2.3125,-2.3125,-2.3125,-2.3125,-2.3125,-2.3125,-2.3125,-2.3125,-2.294,-2.1747,-2.1284,-2.1042,-1.9601,-1.9137,-1.9062,-1.8696,-1.7715,-1.6763,-1.6755,-1.5903,-1.4957,-1.4957,-1.4957,-1.503,-1.5324,-1.5391,-1.5471,-1.5758,-1.5591,-1.5391,-1.5391,-1.3988,-1.2451,-1.13,-0.9888,-0.8452,-0.7316,-0.7139,-0.7139,-0.7139,-0.7139,-0.7139,-0.7139,-0.7139,-0.7139,-0.7139,-0.7139,-0.7061,-0.7084,-0.7094,-0.7111,-0.7135,-0.7045,-0.486,-0.009,-0.0,-0.0,-0.0,-0.0,-0.0,-0.0,-0.0,-0.0,-1.572,-1.5649,-1.5517,-1.5234,-1.4879,-1.4235,-1.3018,-1.4278,-1.5543,-1.4751,-1.5335,-1.6067,-1.6167,0.0,0.0,0.0,0.0,0.0,0.0,0.0,0.0,0.0,0.0,0.0,0.0,0.0,0.0,0.0,0.0,0.0,0.0,0.0,0.0,0.0,0.0,0.0,-2.3135,-2.2852,-2.2705,-2.2695,-2.2402,-2.2412,-2.2705,-2.2705,-2.2539,-2.2256,-2.2256,-2.2256,-2.2256,-2.2256,-2.2256,-2.2256,-2.2256,-2.2256,-2.2256,-2.2256,-2.2256,-2.2172,-2.1815,-2.1721,-2.1617,-2.1231,-1.9968,-1.8556,-1.8448,-1.7121,-1.552,-1.5216,-1.4906,-1.4603,-1.4402,-1.4349,-1.4476,-1.4977,-1.5097,-1.5117,-1.5204,-1.515,-1.4812,-1.3872,-1.2586,-1.1206,-0.9956,-0.8561,-0.7489,-0.7139,-0.7139,-0.7139,-0.7139,-0.7139,-0.7139,-0.7139,-0.7139,-0.7139,-0.7139,-0.7068,-0.7081,-0.7094,-0.7115,-0.7128,-0.7135,-0.3866,-0.1438,-0.0,-0.0,-0.0,-0.0,-0.0,-0.0,-0.0,-0.0,-0.0,-1.4863,-1.4728,-1.4522,-1.4163,-1.3882,-1.3667,-1.3337,-1.4057,0.0,0.0,-1.5323,-1.5538,-1.5137,0.0,0.0,0.0,0.0,0.0,0.0,0.0,0.0,0.0,0.0,0.0,0.0,0.0,0.0,0.0,0.0,0.0,0.0,0.0,0.0,0.0,0.0,0.0,-2.2646,-2.2393,-2.2266,-2.2266,-2.2012,-2.1924,-2.2012,-2.2187,-2.2129,-2.1885,-2.1885,-2.1885,-2.1885,-2.1885,-2.1885,-2.1885,-2.1885,-2.1885,-2.1885,-2.1885,-2.1885,-2.1792,-2.0838,-2.0493,-2.0382,-1.9277,-1.803,-1.6812,-1.6682,-1.5713,-1.4583,-1.4396,-1.4349,-1.4309,-1.4135,-1.4088,-1.4208,-1.4676,-1.4783,-1.4823,-1.4937,-1.487,-1.4415,-1.3135,-1.2203,-1.1071,-0.9313,-0.8344,-0.7665,-0.7139,-0.7139,-0.7139,-0.7139,-0.7139,-0.7139,-0.7139,-0.7139,-0.7143,-0.7064,-0.7078,-0.7094,-0.7115,-0.7128,-0.6221,-0.4318,-0.1527,-0.0,-0.0,-0.0,-0.0,-0.0,-0.0,-0.0,-0.0,-0.0,-0.0,-1.2872,-1.3164,-1.3528,-1.2659,-1.3098,0.0,-1.4644,-1.4116,-1.3607,-1.4129,0.0,0.0,0.0,0.0,0.0,0.0,0.0,0.0,0.0,0.0,0.0,0.0,0.0,0.0,0.0,0.0,0.0,0.0,0.0,0.0,0.0,0.0,0.0,0.0,0.0,0.0,-2.1885,-2.1846,-2.1826,0.0,-2.1787,-2.1562,-2.1191,-2.1631,-2.1807,-2.1768,-2.1768,-2.1768,-2.1768,-2.1768,-2.1768,-2.1768,-2.1768,-2.1768,-2.1768,-2.1685,-2.1675,-2.1336,-1.9092,-1.8316,-1.7924,-1.549,-1.4729,-1.4595,-1.4331,-1.4166,-1.4088,-1.4088,-1.4088,-1.4088,-1.4088,-1.4088,-1.4155,-1.4243,-1.4389,-1.4556,-1.4728,-1.4487,-1.3941,-1.2855,-1.2227,-1.1381,-0.9327,-0.8803,-0.8364,-0.7228,-0.7139,-0.7139,-0.7139,-0.7139,-0.7139,-0.7139,-0.7143,-0.7061,-0.7081,-0.6719,-0.6462,-0.649,-0.6493,-0.4497,-0.018,-0.0,-0.0,-0.0,-0.0,-0.0,-0.0,-0.0,-0.0,-0.0,-0.0,-0.0,-1.55,-1.4728,-1.3673,-1.3455,-1.3528,-1.3917,-1.4644,-1.5173,-1.5514,-1.5405,0.0,0.0,0.0,0.0,0.0,0.0,0.0,0.0,0.0,0.0,0.0,0.0,0.0,0.0,0.0,0.0,0.0,0.0,0.0,0.0,0.0,0.0,0.0,0.0,0.0,-2.1885,-2.1885,-2.1543,-2.1377,0.0,-2.1016,-2.0801,-2.0723,-2.1172,-2.1182,-2.085,-2.085,-2.085,-2.085,-2.085,-2.085,-2.085,-2.085,-2.085,-2.0771,-1.9949,-1.9629,-1.9379,-1.7983,-1.7565,-1.7475,-1.6908,-1.6141,-1.5467,-1.5394,-1.4734,-1.4088,-1.4088,-1.4088,-1.4088,-1.4088,-1.4088,-1.3841,-1.301,-1.3468,-1.3933,-1.3102,-1.2801,-1.2416,-1.1289,-1.0299,-0.9584,-0.9437,-0.8285,-0.7401,-0.7139,-0.7139,-0.7139,-0.7139,-0.7139,-0.7139,-0.7139,-0.7068,-0.7074,-0.7061,-0.3657,-0.1518,-0.1516,-0.1523,-0.1078,-0.0,-0.0,-0.0,-0.0,-0.0,-0.0,-0.0,-0.0,-0.0,-0.0,-0.0,-0.0,-1.5226,-1.445,-1.36,-1.3171,0.0,-1.3293,-1.4305,-1.5057,-1.5622,0.0,0.0,0.0,0.0,0.0,0.0,0.0,0.0,0.0,0.0,0.0,0.0,0.0,0.0,0.0,0.0,0.0,0.0,0.0,0.0,0.0,0.0,0.0,0.0,0.0,-2.125,-2.125,-2.125,-2.1025,-2.0918,-2.0908,-2.0674,-2.0566,-2.0576,-2.081,-2.0791,-2.0566,-2.0566,-2.0566,-2.0566,-2.0566,-2.0323,-1.9835,-1.9835,-1.952,-1.8948,-1.839,-1.823,-1.8069,-1.6927,-1.6519,-1.6437,-1.5959,-1.5387,-1.4894,-1.4894,-1.4573,-1.4088,-1.4088,-1.4088,-1.4088,-1.4088,-1.3646,-1.3118,-1.2413,-1.2766,-1.2942,-1.1729,-1.1466,-1.1123,-1.0009,-0.9323,-0.8807,-0.8376,-0.7672,-0.7139,-0.7139,-0.7139,-0.7139,-0.7139,-0.7139,-0.7139,-0.7139,-0.7071,-0.6171,-0.3914,-0.3486,-0.2418,-0.0179,-0.0,-0.0,-0.0,-0.0,-0.0,-0.0,-0.0,-0.0,-0.0,-0.0,-0.0,-0.0,-0.0,-0.0,-1.445,-1.3954,-1.3455,-1.2519,-1.2519,0.0,-1.4231,-1.4963,-1.5795,0.0,0.0,0.0,0.0,0.0,0.0,0.0,0.0,0.0,0.0,0.0,0.0,0.0,0.0,0.0,0.0,0.0,0.0,0.0,0.0,0.0,0.0,0.0,-2.0566,-2.0566,-2.0566,-2.0566,-2.0566,-2.0566,-2.0566,-2.0566,-2.0566,-2.0489,-2.0323,-2.0323,-2.0401,-2.0566,-2.0566,-2.0479,-2.0323,-2.0323,-1.9678,-1.8718,-1.8718,-1.8149,-1.7261,-1.709,-1.7009,-1.6846,-1.5786,-1.5462,-1.5296,-1.4412,-1.4088,-1.4088,-1.4088,-1.4088,-1.4088,-1.4088,-1.4088,-1.4082,-1.3822,-1.3027,-1.2242,-1.1815,-1.1724,-1.1466,-1.0524,-1.0269,-1.0009,-0.8803,-0.8627,-0.8277,-0.7316,-0.7139,-0.7139,-0.7139,-0.7139,-0.7139,-0.7139,-0.7139,-0.7139,-0.7139,-0.7074,-0.5544,-0.1602,-0.4123,-0.4589,-0.1438,-0.0449,-0.0,-0.0,-0.0,-0.0,-0.0,-0.0,-0.0,-0.0,-0.0,-0.0,-0.0,-0.0,-0.0,-1.628,-1.5013,-1.3455,-1.2519,-1.3593,-1.4968,0.0,0.0,0.0,0.0,0.0,0.0,0.0,0.0,0.0,0.0,0.0,0.0,0.0,0.0,0.0,0.0,0.0,0.0,0.0,0.0,0.0,0.0,0.0,0.0,0.0,-2.0566,-2.0566,-2.0566,-2.0566,-2.0566,-2.0566,-2.0566,-2.0566,-2.0566,-2.0566,-2.0079,-1.9195,-1.9195,-1.9678,-2.0566,-2.0566,-2.0079,-1.9195,-1.9195,-1.855,-1.7496,-1.7496,-1.7423,-1.7172,-1.6273,-1.5944,-1.5786,-1.4657,-1.4328,-1.4328,-1.4173,-1.4088,-1.4088,-1.4088,-1.4088,-1.4088,-1.4088,-1.4088,-1.3822,-1.2851,-1.2413,-1.1809,-0.9836,-0.9323,-0.9323,-0.9148,-0.9148,-0.8803,-0.7577,-0.7316,-0.7316,-0.7139,-0.7139,-0.7139,-0.7139,-0.7139,-0.7139,-0.7139,-0.7139,-0.7139,-0.7139,-0.7081,-0.6824,-0.6177,-0.2957,-0.2426,-0.595,-0.2247,-0.0,-0.0,-0.0,-0.0,-0.0,-0.0,-0.0,-0.0,-0.0,-0.0,-0.0,-0.0,-0.0,-1.6079,-1.4807,-1.3455,-1.2519,-1.331,-1.4561,-1.5289,0.0,0.0,0.0,0.0,0.0,0.0,0.0,0.0,0.0,0.0,0.0,0.0,0.0,0.0,0.0,0.0,0.0,0.0,0.0,0.0,0.0,0.0,0.0,-2.0566,-2.0566,-2.0566,-2.0566,-2.0566,-2.0566,-2.0566,-2.0566,-2.0566,-2.0566,-2.0566,-2.0323,-1.9923,-1.9923,-1.9844,-1.9678,-1.9036,-1.8868,-1.8957,-1.831,-1.7747,-1.7261,-1.6601,-1.6535,-1.6558,-1.5228,-1.4817,-1.4734,-1.425,-1.4088,-1.4088,-1.4088,-1.4088,-1.4088,-1.4088,-1.4088,-1.3997,-1.3294,-1.3112,-1.2851,-1.1643,-1.0869,-1.0178,-0.9148,-0.8364,-0.7929,-0.7929,-0.7929,-0.7753,-0.7228,-0.7139,-0.7139,-0.7139,-0.7139,-0.7139,-0.7139,-0.7139,-0.7139,-0.7139,-0.7139,-0.7058,-0.7068,-0.7088,-0.7104,-0.7111,-0.2781,-0.0898,-0.2966,-0.1168,-0.0,-0.0,-0.0,-0.0,-0.0,-0.0,-0.0,-0.0,-0.0,-0.0,-0.0,-0.0,-0.0,-1.6009,-1.5021,-1.4235,-1.3302,-1.373,-1.4665,0.0,0.0,0.0,0.0,0.0,0.0,0.0,0.0,0.0,0.0,0.0,0.0,0.0,0.0,0.0,0.0,0.0,0.0,0.0,0.0,0.0,0.0,0.0,0.0,-2.0566,-2.0566,-2.0566,-2.0566,-2.0566,-2.0566,-2.0566,-2.0566,-2.0566,-2.0566,-2.0566,-2.0479,-2.0157,-2.0157,-1.9766,-1.8957,-1.839,-1.847,-1.8877,-1.7747,-1.718,-1.687,-1.5711,-1.5484,-1.5514,-1.451,-1.4088,-1.4088,-1.4088,-1.4088,-1.4088,-1.4088,-1.4088,-1.4088,-1.4088,-1.4102,-1.3848,-1.2498,-1.1878,-1.1364,-1.0438,-0.9579,-0.8803,-0.854,-0.7753,-0.7139,-0.7139,-0.7139,-0.7139,-0.7139,-0.7139,-0.7139,-0.7139,-0.7139,-0.7139,-0.7139,-0.7139,-0.7143,-0.7061,-0.7061,-0.7068,-0.7088,-0.7101,-0.7118,-0.7135,-0.2695,-0.0,-0.0,-0.0,-0.0,-0.0,-0.0,-0.0,-0.0,-0.0,-0.0,-0.0,-0.0,-0.0,-0.0,-0.0,-0.0,-1.6784,-1.6489,-1.621,-1.5296,-1.572,-1.6498,0.0,0.0,0.0,0.0,0.0,0.0,0.0,0.0,0.0,0.0,0.0,0.0,0.0,0.0,0.0,0.0,0.0,0.0,0.0,0.0,0.0,0.0,0.0,0.0,-2.0566,-2.0566,-2.0566,-2.0566,-2.0566,-2.0566,-2.0566,-2.0566,-2.0566,-2.0566,-2.0566,-2.0079,-1.9116,-1.9116,-1.9036,-1.9036,-2.0001,-1.9844,-1.8877,-1.7747,-1.6878,-1.6102,-1.4755,-1.4173,-1.4173,-1.4173,-1.4088,-1.4088,-1.4088,-1.4088,-1.4088,-1.4088,-1.4088,-1.4088,-1.4088,-1.4064,-1.3749,-1.2237,-1.0813,-0.952,-0.9139,-0.8978,-0.8627,-0.7492,-0.7139,-0.7139,-0.7139,-0.7139,-0.7139,-0.7139,-0.7139,-0.7139,-0.7139,-0.7139,-0.7139,-0.7139,-0.7139,-0.7061,-0.7081,-0.7084,-0.7088,-0.7101,-0.7121,-0.7135,-0.7135,-0.2695,-0.0,-0.0,-0.0,-0.0,-0.0,-0.0,-0.0,-0.0,-0.0,-0.0,-0.0,-0.0,-0.0,-0.0,-0.0,-0.0,-1.6853,-1.6636,-1.6349,-1.5438,-1.5939,-1.6636,0.0,0.0,0.0,0.0,0.0,0.0,0.0,0.0,0.0,0.0,0.0,0.0,0.0,0.0,0.0,0.0,0.0,0.0,0.0,0.0,0.0,0.0,0.0,0.0,-2.0566,-2.0566,-2.0566,-2.0566,-2.0566,-2.0566,-2.0566,-2.0566,-2.0566,-2.0566,-2.0566,-2.0001,-1.9036,-1.9036,-1.8638,-1.7989,-1.8807,-1.8718,-1.7827,-1.6968,-1.6417,-1.6102,-1.4678,-1.5836,-1.7929,-1.5098,-1.4088,-1.4088,-1.4088,-1.4088,-1.4088,-1.4088,-1.4088,-1.4095,-1.4064,-1.4064,-1.3783,-1.2209,-1.0682,-0.9434,-0.8965,-0.8364,-0.7665,-0.7228,-0.7139,-0.7139,-0.7139,-0.7139,-0.7139,-0.7139,-0.7139,-0.7139,-0.7139,-0.7139,-0.7139,-0.7139,-0.7139,-0.7061,-0.7081,-0.7084,-0.7094,-0.7121,-0.7131,-0.5858,-0.2785,-0.0988,-0.0,-0.0,-0.0,-0.0,-0.0,-0.0,-0.0,-0.0,-0.0,-0.0,-0.0,-0.0,-0.0,-0.0,-0.0,-0.0,-1.7217,-1.707,-1.6922,0.0,-1.6576,-1.707,0.0,0.0,0.0,0.0,0.0,0.0,0.0,0.0,0.0,0.0,0.0,0.0,0.0,0.0,0.0,0.0,0.0,0.0,0.0,0.0,0.0,0.0,0.0,0.0,-2.0566,-2.0566,-2.0566,-2.0566,-2.0566,-2.0566,-2.0566,-2.0245,-2.0245,-2.0566,-2.0235,-1.9687,-1.9036,-1.9036,-1.8496,-1.7733,-1.8151,-1.8143,-1.7571,-1.6884,-1.698,-1.7399,-1.5063,-1.5844,-1.8029,-1.519,-1.4088,-1.4088,-1.4088,-1.4088,-1.4088,-1.4088,-1.4088,-1.4095,-1.407,-1.3039,-1.1861,-1.2451,-1.0743,-0.8674,-0.8356,-0.7665,-0.7139,-0.7139,-0.7139,-0.7139,-0.7139,-0.7139,-0.7139,-0.7139,-0.7139,-0.7139,-0.7139,-0.7139,-0.7143,-0.7061,-0.7064,-0.7071,-0.7098,-0.5733,-0.4746,-0.4678,-0.4681,-0.3416,-0.027,-0.0,-0.0,-0.0,-0.0,-0.0,-0.0,-0.0,-0.0,-0.0,-0.0,-0.0,-0.0,-0.0,-0.0,-0.0,-0.0,-0.0,0.0,0.0,0.0,0.0,0.0,0.0,0.0,0.0,0.0,0.0,0.0,0.0,0.0,0.0,0.0,0.0,0.0,0.0,0.0,0.0,0.0,0.0,0.0,0.0,0.0,0.0,0.0,0.0,0.0,-2.0566,-2.0566,-2.0566,-2.0566,-2.0566,-2.0566,-2.0557,-2.0557,-1.952,-1.9441,-2.0479,-1.9441,-1.8957,-1.8877,-1.8877,-1.8709,-1.8267,-1.8267,-1.8267,-1.8194,-1.768,-1.8594,-1.998,-1.5752,-1.4088,-1.4088,-1.4088,-1.4088,-1.4088,-1.4088,-1.4088,-1.4088,-1.4088,-1.4088,-1.4088,-1.4095,-1.0942,-0.8233,-1.2677,-1.0634,-0.7139,-0.7139,-0.7139,-0.7139,-0.7139,-0.7139,-0.7139,-0.7139,-0.7139,-0.7139,-0.7139,-0.7139,-0.7139,-0.7139,-0.7139,-0.7061,-0.7081,-0.6992,-0.6913,-0.7042,-0.3047,-0.0179,-0.0,-0.0,-0.0,-0.0,-0.0,-0.0,-0.0,-0.0,-0.0,-0.0,-0.0,-0.0,-0.0,-0.0,-0.0,-0.0,-0.0,-0.0,-0.0,-0.0,-0.0,-1.8008,0.0,0.0,0.0,0.0,0.0,0.0,0.0,0.0,0.0,0.0,0.0,0.0,0.0,0.0,0.0,0.0,0.0,0.0,0.0,0.0,0.0,0.0,0.0,0.0,0.0,0.0,0.0,-2.0566,-2.0566,-2.0566,-2.0566,-2.0566,-2.0566,-1.9844,-1.9441,-1.9441,-1.831,-1.79,-1.8221,-1.7908,-1.7334,-1.6593,-1.6593,-1.6131,-1.5278,-1.5278,-1.5278,-1.5551,-1.8445,-1.8187,-1.5752,-1.4544,-1.4088,-1.4088,-1.4088,-1.4088,-1.4088,-1.4088,-1.4088,-1.4088,-1.4088,-1.4088,-1.4115,-1.4084,-1.3151,-1.1746,-0.9653,-0.8066,-0.7099,-0.7132,-0.7139,-0.7139,-0.7139,-0.7139,-0.7139,-0.7139,-0.7139,-0.7139,-0.7139,-0.7139,-0.7139,-0.7139,-0.7064,-0.7078,-0.7084,-0.4192,-0.3213,-0.6675,-0.5944,-0.3773,-0.0359,-0.0,-0.0,-0.0,-0.0,-0.0,-0.0,-0.0,-0.0,-0.0,-0.0,-0.0,-0.0,-0.0,-0.0,-0.0,-0.0,-0.0,-0.0,-0.0,-0.0,-1.8008,-1.8008,0.0,0.0,0.0,0.0,0.0,-1.8008,0.0,0.0,0.0,0.0,0.0,0.0,0.0,0.0,0.0,0.0,0.0,0.0,0.0,0.0,0.0,0.0,0.0,0.0,0.0,0.0,-2.0566,-2.0401,-1.9923,-1.9923,-1.9678,-1.9274,-1.863,-1.831,-1.831,-1.7172,-1.6846,-1.7253,-1.6846,-1.6273,-1.5696,-1.5696,-1.5137,-1.4088,-1.4088,-1.4088,-1.4271,-1.6873,-1.6408,-1.4088,-1.4088,-1.4088,-1.4088,-1.4088,-1.4088,-1.4088,-1.4088,-1.4088,-1.4088,-1.4088,-1.4115,-1.4077,-1.4104,-1.2721,-1.0611,-0.7865,-0.7085,-0.7105,-0.7132,-0.7139,-0.7139,-0.7139,-0.7139,-0.7139,-0.7139,-0.7139,-0.7143,-0.7064,-0.7064,-0.7068,-0.7071,-0.7084,-0.6456,-0.4469,-0.1784,-0.0982,-0.3774,-0.4137,-0.3056,-0.027,-0.0,-0.0,-0.0,-0.0,-0.0,-0.0,-0.0,-0.0,-0.0,-0.0,-0.0,-0.0,-0.0,-0.0,-0.0,-0.0,-0.0,-0.0,-0.0,-0.0,-1.8008,-1.8008,-1.8008,0.0,0.0,0.0,-1.8008,-1.8008,0.0,0.0,0.0,0.0,0.0,0.0,0.0,0.0,0.0,0.0,0.0,0.0,0.0,0.0,0.0,0.0,0.0,0.0,-2.043,-2.043,-2.0391,-1.9847,-1.8806,-1.8771,-1.831,-1.7334,-1.7172,-1.709,-1.709,-1.6026,-1.6034,-1.6935,-1.5913,-1.5486,-1.5486,-1.5449,-1.4961,-1.4085,-1.4085,-1.3988,-1.3898,-1.4079,-1.4119,-1.4082,-1.3951,-1.3937,-1.3937,-1.4001,-1.3988,-1.3988,-1.3988,-1.3807,-1.3633,-1.3633,-1.3899,-1.4012,-1.3455,-1.0413,-0.7075,-0.7078,-0.7109,-0.7139,-0.7139,-0.7139,-0.7139,-0.7139,-0.7139,-0.7139,-0.7143,-0.7143,-0.7061,-0.7088,-0.6634,-0.6269,-0.6278,-0.6281,-0.4837,-0.0626,-0.0,-0.0,-0.0,-0.0,-0.0,-0.0,-0.0,-0.0,-0.0,-0.0,-0.0,-0.0,-0.0,-0.0,-0.0,-0.0,-0.0,-0.0,-0.0,-0.0,-0.0,-0.0,-0.0,-0.0,-0.0,-0.0,0.0,0.0,0.0,0.0,0.0,0.0,-1.8008,-1.8008,0.0,0.0,0.0,0.0,0.0,0.0,0.0,0.0,0.0,0.0,0.0,0.0,0.0,0.0,0.0,0.0,0.0,0.0,-1.9541,-1.9541,-1.907,-1.8315,-1.7352,-1.7489,-1.7496,-1.7342,-1.6437,-1.6026,-1.6026,-1.4977,-1.4496,-1.4741,-1.4241,-1.4042,-1.4036,-1.3978,-1.3982,-1.4111,-1.4111,-1.3561,-1.2747,-1.3661,-1.4124,-1.3971,-1.2991,-1.2624,-1.2694,-1.3198,-1.338,-1.338,-1.338,-1.2345,-1.0983,-1.0983,-1.2346,-1.3361,-0.9583,-0.7846,-0.7082,-0.7115,-0.7132,-0.7139,-0.7139,-0.7139,-0.7139,-0.7139,-0.7139,-0.7058,-0.7074,-0.7078,-0.7088,-0.7118,-0.402,-0.1422,-0.1425,-0.1428,-0.1073,-0.0179,-0.0,-0.0,-0.0,-0.0,-0.0,-0.0,-0.0,-0.0,-0.0,-0.0,-0.0,-0.0,-0.0,-0.0,-0.0,-0.0,-0.0,-0.0,-0.0,-0.0,-0.0,-0.0,-0.0,-0.0,-0.0,-0.0,0.0,0.0,0.0,-1.8008,0.0,0.0,0.0,-1.8008,-1.8008,0.0,0.0,0.0,0.0,0.0,0.0,0.0,0.0,0.0,0.0,0.0,0.0,0.0,0.0,0.0,0.0,0.0,-1.9141,-1.8609,-1.7796,-1.6894,-1.5888,-1.5984,-1.5769,-1.5305,-1.475,-1.4434,-1.4434,-1.3886,-1.3647,-1.3647,-1.35,-1.3427,-1.3427,-1.3459,-1.3571,-1.3663,-1.3936,-1.3398,-1.2324,-1.2942,-1.3206,-1.3173,-1.2575,-1.2258,-1.2333,-1.2823,-1.2619,-1.2123,-1.2387,-1.165,-1.0407,-0.9797,-0.9828,-0.9798,-0.7708,-0.7142,-0.7112,-0.7132,-0.7139,-0.7139,-0.7139,-0.7139,-0.7139,-0.7139,-0.7139,-0.7143,-0.7068,-0.7068,-0.7078,-0.7104,-0.3298,-0.0,-0.0,-0.0,-0.0,-0.0,-0.0,-0.0,-0.0,-0.0,-0.0,-0.0,-0.0,-0.0,-0.0,-0.0,-0.0,-0.0,-0.0,-0.0,-0.0,-0.0,-0.0,-0.0,-0.0,-0.0,-0.0,0.2425,0.3506,0.3506,0.3506,0.2872,0.0,0.0,0.0,0.0,0.0,-1.8008,0.0,0.0,0.0,-1.8008,0.0,0.0,0.0,0.0,0.0,0.0,0.0,0.0,0.0,0.0,0.0,0.0,0.0,0.0,0.0,0.0,-1.8518,-1.7172,-1.6546,-1.5751,-1.4473,-1.4455,-1.4116,-1.3213,-1.3213,-1.3213,-1.3213,-1.3213,-1.3213,-1.3213,-1.3153,-1.312,-1.312,-1.3236,-1.3209,-1.3039,-1.357,-1.3216,-1.2245,-1.148,-1.1492,-1.2017,-1.2223,-1.2164,-1.2,-1.238,-1.1715,-1.0666,-1.1101,-1.0811,-1.0098,-0.9068,-0.7648,-0.6473,-0.6939,-0.708,-0.7139,-0.7139,-0.7139,-0.7139,-0.7139,-0.7139,-0.7139,-0.7139,-0.7139,-0.7143,-0.7058,-0.7058,-0.7064,-0.7084,-0.4011,-0.1069,-0.0179,-0.0,-0.0,-0.0,-0.0,-0.0,-0.0,-0.0,-0.0,-0.0,-0.0,-0.0,-0.0,-0.0,0.036,0.1349,0.1348,0.1168,0.0719,0.1168,0.1168,0.0718,0.0718,0.0449,-0.0,0.4312,0.6671,0.7135,0.7131,0.6112,0.0,0.0,0.0,0.0,-1.8008,0.0,0.0,0.0,-1.8008,-1.8008,0.0,-1.8008,-1.8008,0.0,0.0,0.0,0.0,0.0,0.0,0.0,0.0,0.0,0.0,0.0,0.0,0.0,0.0,-1.4359,-1.5137,-1.4942,-1.3092,-1.3287,-1.3365,-1.3213,-1.3213,-1.3213,-1.3213,-1.3213,-1.3213,-1.3206,-1.2933,-1.2876,-1.2869,-1.2525,-1.2405,-1.2405,-1.2486,-1.2405,-1.1993,-0.8482,-0.8585,-1.1039,-1.1954,-1.1563,-1.0595,-1.0942,-1.0349,-0.9519,-0.9525,-0.8918,-0.8154,-0.7992,-0.7361,-0.6826,-0.7052,-0.7111,-0.7139,-0.7139,-0.7139,-0.7139,-0.7139,-0.7139,-0.7139,-0.7139,-0.7139,-0.7058,-0.7078,-0.7081,-0.7084,-0.7098,-0.6643,-0.4919,-0.0713,-0.0,-0.0,-0.0,-0.0,-0.0,-0.0,-0.0,-0.0,-0.0,-0.0,-0.0,-0.0,-0.0,0.1798,0.6065,0.6323,0.5318,0.3243,0.5228,0.5302,0.3215,0.3215,0.2144,-0.0,0.268,0.5109,0.7135,0.7115,0.6923,0.0,0.0,0.0,0.0,0.0,0.0,0.0,0.0,-1.8008,0.0,0.0,0.0,0.0,0.0,0.0,0.0,0.0,0.0,0.0,0.0,0.0,0.0,0.0,0.0,0.0,0.0,0.0,0.0,0.0,-1.394,-1.256,-1.2612,-1.2685,-1.2685,-1.2685,-1.2685,-1.2685,-1.2685,-1.2685,-1.2679,-1.2552,-1.2485,-1.2485,-1.2358,-1.2305,-1.2305,-1.2305,-1.2305,-1.2144,-1.0456,-1.0547,-1.1706,-1.212,-1.1244,-0.9785,-1.0519,-1.019,-0.9372,-0.997,-0.914,-0.7723,-0.7125,-0.6841,-0.6729,-0.6973,-0.7118,-0.7139,-0.7139,-0.7139,-0.7139,-0.7139,-0.7139,-0.7139,-0.7139,-0.7139,-0.7143,-0.7064,-0.7064,-0.7068,-0.7071,-0.7074,-0.6435,-0.445,-0.4107,-0.4123,-0.4127,-0.1793,-0.0,-0.0,-0.0,-0.0,-0.0,-0.0,0.1079,0.3877,0.4141,0.4954,0.6966,0.7128,0.6022,0.3674,0.5841,0.6653,0.5644,0.5644,0.5104,0.4117,0.5099,0.6094,0.7104,0.7098,0.7084,-1.8008,0.0,0.0,0.0,0.0,0.0,0.0,0.0,0.0,0.0,0.0,0.0,0.0,0.0,-1.8008,-1.8008,0.0,0.0,0.0,0.0,0.0,0.0,0.0,0.0,0.0,0.0,0.0,0.0,-1.4163,-1.3875,-1.2372,-1.2519,-1.2592,-1.2305,-1.2305,-1.2305,-1.2305,-1.2305,-1.2305,-1.2305,-1.2305,-1.2305,-1.2305,-1.2305,-1.2305,-1.2305,-1.2305,-1.2305,-1.2305,-1.2325,-1.2264,-1.2264,-1.188,-1.0588,-0.8993,-1.004,-0.9744,-0.8917,-0.9437,-0.8604,-0.7269,-0.653,-0.6461,-0.6636,-0.6922,-0.7083,-0.7139,-0.7139,-0.7139,-0.7139,-0.7139,-0.7139,-0.7139,-0.7139,-0.7139,-0.7139,-0.7139,-0.7139,-0.7143,-0.7061,-0.7061,-0.7061,-0.7064,-0.7098,-0.6665,-0.5389,-0.2241,-0.0,-0.0,-0.0,-0.0,-0.0,-0.0,0.1889,0.6709,0.7058,0.7131,0.7121,0.7108,0.6367,0.4639,0.618,0.7094,0.7088,0.7088,0.7091,0.7098,0.7084,0.7078,0.7084,0.7078,0.7068,0.0,0.0,0.0,-1.8008,0.0,0.0,0.0,0.0,-1.8008,0.0,0.0,0.0,0.0,-1.8008,-1.8008,-1.8008,-1.8008,0.0,0.0,0.0,0.0,0.0,0.0,0.0,0.0,0.0,0.0,-1.3882,-1.5438,-1.5288,-1.2445,-1.3164,-1.3244,-1.2305,-1.2305,-1.2305,-1.2305,-1.2305,-1.2305,-1.2305,-1.2305,-1.2305,-1.2305,-1.2305,-1.2305,-1.2305,-1.2305,-1.2305,-1.2311,-1.2317,-1.2276,-1.2201,-1.0889,-0.9337,-0.7931,-0.8993,-0.8694,-0.7706,-0.6795,-0.6412,-0.6338,-0.6345,-0.6464,-0.6702,-0.6791,-0.6912,-0.7139,-0.7139,-0.7139,-0.7139,-0.7139,-0.7139,-0.7139,-0.7139,-0.7139,-0.7139,-0.7139,-0.7139,-0.7058,-0.7081,-0.7084,-0.7088,-0.7098,-0.7094,-0.5544,-0.089,-0.0089,-0.0,-0.0,-0.0,-0.0,-0.0,-0.0,0.1889,0.6709,0.7058,0.7121,0.7088,0.7098,0.7088,0.6962,0.7071,0.7074,0.7143,0.7143,0.7064,0.7084,0.7064,0.7064,0.7084,0.7064,0.7139,0.0,0.0,-1.8721,-1.8134,0.0,0.0,0.0,0.0,0.0,0.0,0.0,0.0,0.0,-1.8008,-1.8008,-1.8008,-1.8008,-1.8008,0.0,0.0,0.0,0.0,0.0,0.0,0.0,0.0,0.0,-1.3882,-1.4307,-1.3947,0.0,-1.2592,-1.2666,-1.2305,-1.2305,-1.2305,-1.2305,-1.2305,-1.2305,-1.2305,-1.2305,-1.2305,-1.2305,-1.2305,-1.2305,-1.2305,-1.2305,-1.2305,-1.2305,-1.2331,-1.2271,-1.219,-1.0807,-1.0519,-1.064,-0.969,-0.8694,-0.7783,-0.7403,-0.733,-0.7173,-0.649,-0.6461,-0.6702,-0.6702,-0.6905,-0.7139,-0.7139,-0.7139,-0.7139,-0.7139,-0.7139,-0.7139,-0.7139,-0.7139,-0.7139,-0.7139,-0.7139,-0.7058,-0.7081,-0.7084,-0.7088,-0.7101,-0.7111,-0.657,-0.4935,-0.2061,-0.0,-0.0,-0.0,0.1169,0.433,0.4685,0.5318,0.6966,0.7118,0.7091,0.7064,0.7068,0.7064,0.7139,0.7058,0.7061,0.7139,0.7139,0.7143,0.7064,0.7143,0.7143,0.7064,0.7143,0.7139,-1.8076,-1.8395,0.0,-1.8134,-1.8395,0.0,-1.8144,0.0,0.0,0.0,0.0,0.0,0.0,0.0,-1.8076,-1.8395,-1.8202,-1.8008,0.0,-1.8008,0.0,0.0,0.0,0.0,0.0,0.0,-1.6149,-1.3882,-1.4307,-1.4019,0.0,0.0,-1.2659,-1.2305,-1.2305,-1.2305,-1.2305,-1.2305,-1.2305,-1.2305,-1.2305,-1.2305,-1.2305,-1.2305,-1.2305,-1.2305,-1.2305,-1.2305,-1.2305,-1.2305,-1.2318,-1.2116,-1.0593,-1.0335,-1.0726,-0.9311,-0.8161,-0.7249,-0.7249,-0.7249,-0.7176,-0.649,-0.6424,-0.663,-0.6685,-0.6871,-0.7088,-0.719,-0.7183,-0.7153,-0.7207,-0.7187,-0.7064,-0.7064,-0.7068,-0.7071,-0.7071,-0.7071,-0.7078,-0.7098,-0.5735,-0.4563,-0.4574,-0.4582,-0.4587,-0.4582,-0.1974,-0.0,-0.0,0.1439,0.3694,0.6789,0.7145,0.7131,0.7118,0.7098,0.7074,0.7143,0.7139,0.7139,0.7139,0.7139,0.7139,0.7139,0.7139,0.7139,0.7139,0.7139,0.7139,0.7139,0.7139,0.7316]},{"header":{"parameterUnit":"m.s-1","parameterCategory":1,"la1":30.6,"la2":29.2853,"lo1":-89.7004,"lo2":-87.6739,"dy":0.0162,"dx":0.0183,"nx":112,"ny":82,"refTime":"2023-06-01T12:00:00:Z","depth":0,"parameterNumber":3,"parameterNumberName":"V-component_of_WINDS"},"data":[0.0,0.0,0.0,0.0,0.0,0.0,0.0,0.0,0.0,0.0,0.0,0.0,0.0,0.0,0.0,0.0,0.0,0.0,0.0,0.0,0.0,0.0,0.0,0.0,0.0,0.0,0.0,0.0,0.0,0.0,0.0,0.0,0.0,0.0,0.0,0.0,0.0,0.0,0.0,0.0,0.0,0.0,0.0,0.0,0.0,0.0,0.0,0.0,0.0,0.0,0.0,0.0,0.0,0.0,0.0,0.0,0.0,0.0,0.0,0.0,0.0,0.0,0.0,0.0,0.0,0.0,0.0,0.0,0.0,0.0,0.0,0.0,0.0,0.0,0.0,0.0,0.0,0.0,0.0,0.0,0.0,0.0,0.0,0.0,0.0,0.0,0.0,0.0,0.0,0.0,0.0,-2.9731,-3.0095,-3.0355,-3.0398,-3.0398,-3.0398,-3.0398,0.0,0.0,0.0,0.0,0.0,0.0,0.0,0.0,0.0,0.0,0.0,0.0,0.0,0.0,0.0,0.0,0.0,0.0,0.0,0.0,0.0,0.0,0.0,0.0,0.0,0.0,0.0,0.0,0.0,0.0,0.0,0.0,0.0,0.0,0.0,0.0,0.0,0.0,0.0,0.0,0.0,0.0,0.0,0.0,0.0,0.0,0.0,0.0,0.0,0.0,0.0,0.0,0.0,0.0,0.0,0.0,0.0,0.0,0.0,0.0,0.0,0.0,0.0,0.0,0.0,0.0,0.0,0.0,0.0,0.0,0.0,0.0,0.0,0.0,0.0,0.0,0.0,0.0,0.0,0.0,0.0,0.0,0.0,0.0,0.0,0.0,0.0,0.0,0.0,0.0,0.0,0.0,0.0,0.0,0.0,0.0,0.0,0.0,0.0,0.0,0.0,0.0,0.0,0.0,-2.9533,-2.9924,-3.0013,-3.015,-3.0367,-3.0398,-3.0398,-3.0398,0.0,0.0,0.0,0.0,0.0,0.0,0.0,0.0,0.0,0.0,0.0,0.0,0.0,0.0,0.0,0.0,0.0,0.0,0.0,0.0,0.0,0.0,0.0,0.0,0.0,0.0,0.0,0.0,0.0,0.0,0.0,0.0,0.0,0.0,0.0,0.0,0.0,0.0,0.0,0.0,0.0,0.0,0.0,0.0,0.0,0.0,0.0,0.0,0.0,0.0,0.0,0.0,0.0,0.0,0.0,0.0,0.0,0.0,0.0,0.0,0.0,0.0,0.0,0.0,0.0,0.0,0.0,0.0,0.0,0.0,0.0,0.0,0.0,0.0,0.0,0.0,0.0,0.0,0.0,0.0,0.0,0.0,0.0,0.0,0.0,0.0,0.0,0.0,0.0,0.0,0.0,0.0,0.0,0.0,0.0,0.0,0.0,0.0,0.0,0.0,0.0,0.0,0.0,-2.9225,-2.9513,-2.9796,-2.9939,-3.0122,-3.0386,-3.0398,-3.0398,-3.0398,-3.0398,0.0,0.0,0.0,0.0,0.0,0.0,0.0,0.0,0.0,0.0,0.0,0.0,0.0,0.0,0.0,0.0,0.0,0.0,0.0,0.0,0.0,0.0,0.0,0.0,0.0,0.0,0.0,0.0,0.0,0.0,0.0,0.0,0.0,0.0,0.0,0.0,0.0,0.0,0.0,0.0,0.0,0.0,0.0,0.0,0.0,0.0,0.0,0.0,0.0,0.0,0.0,0.0,0.0,0.0,0.0,0.0,0.0,0.0,0.0,0.0,0.0,0.0,0.0,0.0,0.0,0.0,0.0,0.0,0.0,0.0,0.0,0.0,0.0,0.0,0.0,0.0,0.0,0.0,0.0,0.0,0.0,0.0,0.0,0.0,0.0,0.0,0.0,0.0,0.0,0.0,0.0,0.0,0.0,0.0,0.0,0.0,0.0,0.0,0.0,0.0,0.0,0.0,-2.9178,-2.9414,-2.9678,-2.9845,-3.0047,-3.0367,-3.0398,-3.0398,-3.0398,-3.0398,0.0,0.0,0.0,0.0,0.0,0.0,0.0,0.0,0.0,0.0,0.0,0.0,0.0,0.0,0.0,0.0,0.0,0.0,0.0,0.0,0.0,0.0,0.0,0.0,0.0,0.0,0.0,0.0,0.0,0.0,0.0,0.0,0.0,0.0,0.0,0.0,0.0,0.0,0.0,0.0,0.0,0.0,0.0,0.0,0.0,0.0,0.0,0.0,0.0,0.0,0.0,0.0,0.0,0.0,0.0,0.0,0.0,0.0,0.0,0.0,0.0,0.0,0.0,0.0,0.0,0.0,0.0,0.0,0.0,0.0,0.0,0.0,0.0,0.0,0.0,0.0,0.0,0.0,0.0,0.0,0.0,0.0,0.0,0.0,0.0,0.0,0.0,0.0,0.0,0.0,0.0,0.0,0.0,0.0,0.0,0.0,0.0,0.0,0.0,0.0,0.0,0.0,-2.9017,-2.9206,-2.9661,-2.9713,-2.9896,-3.0355,-3.0398,-3.0398,-3.0398,-3.0398,0.0,0.0,0.0,0.0,0.0,0.0,0.0,0.0,0.0,0.0,0.0,0.0,0.0,0.0,0.0,0.0,0.0,0.0,0.0,0.0,0.0,0.0,0.0,0.0,0.0,0.0,0.0,0.0,0.0,0.0,0.0,0.0,0.0,0.0,0.0,0.0,0.0,0.0,0.0,0.0,0.0,0.0,0.0,0.0,0.0,0.0,0.0,0.0,0.0,0.0,0.0,0.0,0.0,0.0,0.0,0.0,0.0,0.0,0.0,0.0,0.0,0.0,0.0,0.0,0.0,0.0,0.0,0.0,0.0,0.0,0.0,0.0,0.0,0.0,0.0,0.0,0.0,0.0,0.0,0.0,0.0,0.0,0.0,0.0,0.0,0.0,0.0,0.0,0.0,0.0,0.0,0.0,0.0,0.0,0.0,0.0,0.0,0.0,0.0,0.0,0.0,0.0,-2.8994,-2.9115,0.0,-2.9626,-2.9832,-3.0122,-3.0311,-3.0398,-3.0398,0.0,0.0,0.0,0.0,0.0,0.0,0.0,0.0,0.0,0.0,0.0,0.0,0.0,0.0,0.0,0.0,0.0,0.0,0.0,0.0,0.0,0.0,0.0,0.0,0.0,0.0,0.0,0.0,0.0,0.0,0.0,0.0,0.0,0.0,0.0,0.0,0.0,0.0,0.0,0.0,0.0,0.0,0.0,0.0,0.0,0.0,0.0,0.0,0.0,0.0,0.0,0.0,0.0,0.0,0.0,0.0,0.0,0.0,0.0,0.0,0.0,0.0,0.0,0.0,0.0,0.0,0.0,0.0,0.0,0.0,0.0,0.0,0.0,0.0,0.0,0.0,0.0,0.0,0.0,0.0,0.0,0.0,0.0,0.0,0.0,0.0,0.0,0.0,0.0,0.0,0.0,0.0,0.0,0.0,0.0,0.0,0.0,0.0,0.0,0.0,0.0,0.0,-2.9112,-2.9134,-2.9267,0.0,-2.9713,-2.9896,-3.0122,-3.0279,-3.0398,-3.0398,0.0,0.0,0.0,0.0,0.0,0.0,0.0,0.0,0.0,0.0,0.0,0.0,0.0,0.0,0.0,0.0,0.0,0.0,0.0,0.0,0.0,0.0,0.0,0.0,0.0,0.0,0.0,0.0,0.0,0.0,0.0,0.0,0.0,0.0,0.0,0.0,0.0,0.0,0.0,0.0,0.0,0.0,0.0,0.0,0.0,0.0,0.0,0.0,0.0,0.0,0.0,0.0,0.0,0.0,0.0,0.0,0.0,0.0,0.0,0.0,0.0,0.0,0.0,0.0,0.0,0.0,0.0,0.0,0.0,0.0,0.0,0.0,0.0,0.0,0.0,0.0,0.0,0.0,0.0,0.0,0.0,0.0,0.0,0.0,0.0,0.0,0.0,0.0,0.0,0.0,0.0,0.0,0.0,0.0,0.0,0.0,0.0,0.0,0.0,0.0,0.0,0.0,-2.9372,-2.9412,-2.957,-2.9954,-2.9999,-3.0122,-3.0367,-3.0398,-3.0398,0.0,0.0,0.0,0.0,0.0,0.0,0.0,0.0,0.0,0.0,0.0,0.0,0.0,0.0,0.0,0.0,0.0,0.0,0.0,0.0,0.0,0.0,0.0,0.0,0.0,0.0,0.0,0.0,0.0,0.0,0.0,0.0,0.0,0.0,0.0,0.0,0.0,0.0,0.0,0.0,0.0,0.0,0.0,0.0,0.0,0.0,0.0,0.0,0.0,0.0,0.0,0.0,0.0,0.0,0.0,0.0,0.0,0.0,0.0,0.0,0.0,0.0,0.0,0.0,0.0,0.0,0.0,0.0,0.0,0.0,0.0,0.0,0.0,0.0,0.0,0.0,0.0,0.0,0.0,0.0,0.0,0.0,0.0,0.0,0.0,0.0,0.0,0.0,0.0,0.0,0.0,0.0,0.0,0.0,0.0,0.0,0.0,0.0,0.0,0.0,0.0,0.0,0.0,-2.9392,-2.9532,-2.9661,-2.9782,-2.9924,-3.0028,-3.0103,-3.0299,-3.0398,-3.0398,0.0,0.0,0.0,0.0,0.0,0.0,0.0,0.0,0.0,0.0,0.0,0.0,0.0,0.0,0.0,0.0,0.0,0.0,0.0,0.0,0.0,0.0,0.0,0.0,0.0,0.0,0.0,0.0,0.0,0.0,0.0,0.0,0.0,0.0,0.0,0.0,0.0,0.0,0.0,0.0,0.0,0.0,0.0,0.0,0.0,0.0,0.0,0.0,0.0,0.0,0.0,0.0,0.0,0.0,0.0,0.0,0.0,0.0,0.0,0.0,0.0,0.0,0.0,0.0,0.0,0.0,0.0,0.0,0.0,0.0,0.0,0.0,0.0,0.0,0.0,0.0,0.0,0.0,0.0,0.0,0.0,0.0,0.0,0.0,0.0,0.0,0.0,0.0,0.0,0.0,0.0,0.0,0.0,0.0,0.0,0.0,0.0,0.0,0.0,0.0,0.0,0.0,-2.9626,-2.9729,-2.9845,-2.9977,-3.04,-3.068,-3.068,-3.1117,-3.1256,-3.0948,0.0,0.0,0.0,0.0,0.0,0.0,0.0,0.0,0.0,0.0,0.0,0.0,0.0,0.0,0.0,0.0,0.0,0.0,0.0,0.0,0.0,0.0,0.0,0.0,0.0,0.0,0.0,0.0,0.0,0.0,0.0,0.0,0.0,0.0,0.0,0.0,0.0,0.0,0.0,0.0,0.0,0.0,0.0,0.0,0.0,0.0,0.0,0.0,0.0,0.0,0.0,0.0,0.0,0.0,0.0,0.0,0.0,0.0,0.0,0.0,0.0,0.0,0.0,0.0,0.0,0.0,0.0,0.0,0.0,0.0,0.0,0.0,0.0,0.0,0.0,0.0,0.0,0.0,0.0,0.0,0.0,0.0,0.0,0.0,0.0,0.0,0.0,0.0,0.0,0.0,0.0,0.0,0.0,0.0,0.0,0.0,0.0,0.0,0.0,0.0,0.0,0.0,-3.0152,-3.0242,-3.0366,-3.0617,-3.1352,-3.1814,-3.1814,-3.2487,-3.2583,-3.1852,0.0,0.0,0.0,0.0,0.0,0.0,0.0,0.0,0.0,0.0,0.0,0.0,0.0,0.0,0.0,0.0,0.0,0.0,0.0,0.0,0.0,0.0,0.0,0.0,0.0,0.0,0.0,0.0,0.0,0.0,0.0,0.0,0.0,0.0,0.0,0.0,0.0,0.0,0.0,0.0,0.0,0.0,0.0,0.0,0.0,0.0,0.0,0.0,0.0,0.0,0.0,0.0,0.0,0.0,0.0,0.0,0.0,0.0,0.0,0.0,-2.8686,0.0,0.0,0.0,0.0,0.0,0.0,0.0,0.0,0.0,0.0,0.0,0.0,0.0,0.0,0.0,0.0,0.0,0.0,0.0,0.0,0.0,0.0,0.0,0.0,0.0,0.0,0.0,0.0,0.0,0.0,0.0,0.0,0.0,0.0,0.0,0.0,0.0,0.0,0.0,0.0,0.0,-3.1711,-3.2061,-3.2295,-3.2372,-3.2526,-3.2641,-3.2641,-3.2795,-3.2833,-3.2641,0.0,0.0,0.0,0.0,0.0,0.0,0.0,0.0,0.0,0.0,0.0,0.0,0.0,0.0,0.0,0.0,0.0,0.0,0.0,0.0,0.0,0.0,0.0,0.0,0.0,0.0,0.0,0.0,0.0,0.0,0.0,0.0,0.0,0.0,0.0,0.0,0.0,0.0,0.0,0.0,0.0,0.0,0.0,0.0,0.0,0.0,0.0,0.0,0.0,0.0,0.0,0.0,0.0,0.0,0.0,0.0,0.0,0.0,0.0,0.0,0.0,-2.8994,0.0,0.0,0.0,0.0,0.0,0.0,0.0,0.0,0.0,0.0,0.0,0.0,0.0,0.0,0.0,0.0,0.0,0.0,0.0,0.0,0.0,0.0,0.0,0.0,0.0,0.0,0.0,0.0,0.0,0.0,0.0,0.0,0.0,0.0,0.0,0.0,0.0,0.0,0.0,0.0,-3.233,-3.2565,-3.2746,-3.2878,-3.3276,-3.3526,-3.3526,-3.391,-3.3968,-3.3545,-3.3526,0.0,0.0,0.0,0.0,0.0,0.0,0.0,0.0,0.0,0.0,0.0,0.0,0.0,0.0,0.0,0.0,0.0,0.0,0.0,0.0,0.0,0.0,0.0,0.0,0.0,0.0,0.0,0.0,0.0,0.0,0.0,0.0,0.0,0.0,0.0,0.0,0.0,0.0,0.0,0.0,0.0,0.0,0.0,0.0,0.0,0.0,0.0,0.0,0.0,0.0,0.0,0.0,0.0,0.0,-3.076,-3.1384,-3.1384,-3.1384,-3.1329,-3.0008,-2.9439,-2.9439,0.0,0.0,0.0,0.0,0.0,0.0,0.0,0.0,0.0,0.0,0.0,0.0,0.0,0.0,0.0,0.0,0.0,0.0,0.0,0.0,0.0,0.0,0.0,0.0,0.0,-3.1384,-3.1035,0.0,0.0,0.0,0.0,0.0,0.0,0.0,0.0,0.0,0.0,0.0,0.0,-3.2817,-3.2969,-3.3115,-3.334,-3.4007,-3.443,-3.443,-3.5084,-3.5199,-3.4468,-3.443,-3.4103,0.0,0.0,0.0,0.0,0.0,0.0,0.0,0.0,0.0,0.0,0.0,0.0,0.0,0.0,0.0,0.0,0.0,0.0,0.0,0.0,0.0,0.0,0.0,0.0,0.0,0.0,0.0,0.0,0.0,0.0,0.0,0.0,-2.9351,-2.9351,0.0,0.0,0.0,0.0,0.0,0.0,0.0,0.0,0.0,0.0,0.0,0.0,0.0,0.0,-3.1072,-3.1072,-3.1127,-3.1237,-3.1237,-3.1292,-3.1384,-3.1384,-3.1384,-3.1384,-3.1182,0.0,-3.1072,-3.1072,0.0,0.0,0.0,0.0,0.0,0.0,0.0,0.0,0.0,0.0,0.0,0.0,0.0,0.0,0.0,0.0,0.0,0.0,0.0,0.0,0.0,0.0,-3.1384,-3.1384,-3.1384,-3.1329,0.0,-3.1164,-3.1237,-3.1237,0.0,0.0,0.0,0.0,0.0,0.0,0.0,0.0,-3.4394,-3.483,-3.5133,-3.5147,-3.5257,-3.5334,-3.5334,-3.543,-3.5449,-3.5353,-3.5334,-3.5276,-3.5161,-3.5161,0.0,0.0,0.0,0.0,0.0,0.0,0.0,0.0,0.0,0.0,0.0,0.0,0.0,0.0,0.0,0.0,0.0,0.0,0.0,0.0,0.0,0.0,0.0,0.0,0.0,0.0,0.0,0.0,0.0,-2.9178,-2.9344,-2.9787,-2.9747,-2.9861,0.0,0.0,0.0,0.0,0.0,0.0,0.0,0.0,0.0,-3.0852,-3.087,-3.1035,-3.1384,-3.1384,-3.1623,-3.2063,-3.2063,-3.2559,-3.3421,-3.2963,-3.2999,-3.3403,-3.2944,-3.2742,-3.2669,-3.177,-3.1384,-3.1384,0.0,0.0,0.0,0.0,0.0,-3.1384,-3.1384,0.0,0.0,0.0,0.0,0.0,0.0,0.0,0.0,0.0,0.0,0.0,0.0,0.0,0.0,-3.2742,-3.2742,-3.2742,-3.2742,-3.2742,-3.2614,0.0,-3.243,-3.2742,-3.2742,0.0,0.0,0.0,0.0,0.0,-3.4401,-3.4774,-3.5105,-3.5273,-3.5417,-3.5493,-3.5493,-3.5493,-3.5493,-3.5493,-3.5493,-3.5493,-3.5493,-3.5493,-3.5493,0.0,0.0,0.0,0.0,0.0,0.0,0.0,0.0,0.0,0.0,0.0,0.0,0.0,0.0,0.0,0.0,0.0,0.0,0.0,0.0,0.0,0.0,0.0,0.0,0.0,0.0,0.0,0.0,-2.972,-2.9941,-3.0549,-3.0551,-3.0742,0.0,0.0,0.0,0.0,0.0,0.0,-3.1384,-3.1384,-3.1586,-3.199,-3.2008,-3.221,-3.2651,-3.2651,-3.2944,-3.355,-3.355,-3.4174,-3.533,-3.4706,-3.478,-3.5312,-3.4706,-3.4431,-3.4302,-3.2669,-3.2008,-3.2008,-3.2008,-3.2008,-3.2008,-3.2008,-3.2008,-3.2008,-3.2008,-3.2008,-3.21,-3.2706,0.0,-3.3036,-3.3623,0.0,0.0,0.0,0.0,-3.3807,-3.3807,-3.3807,-3.3807,-3.3807,-3.3807,-3.3807,-3.3807,-3.3807,-3.3623,0.0,-3.3385,-3.3807,-3.3807,0.0,0.0,0.0,0.0,-3.3986,-3.4152,-3.4508,-3.4793,-3.507,-3.5289,-3.5432,-3.5493,-3.5493,-3.5493,-3.5493,-3.5493,-3.5493,-3.5493,-3.5493,-3.5493,-3.5493,0.0,0.0,0.0,0.0,0.0,0.0,0.0,0.0,0.0,0.0,0.0,0.0,0.0,0.0,0.0,0.0,0.0,0.0,0.0,0.0,0.0,0.0,0.0,0.0,0.0,0.0,0.0,0.0,0.0,-3.1715,-3.1505,0.0,0.0,0.0,0.0,-3.1384,-3.1384,-3.1384,-3.1384,-3.1384,-3.21,-3.3623,-3.3678,-3.4431,-3.6028,-3.6046,-3.6064,-3.6101,-3.6101,-3.6156,-3.6229,-3.6193,-3.6193,-3.6229,-3.6193,-3.6156,-3.6046,-3.4376,-3.3678,-3.3678,-3.3678,-3.3678,-3.3678,-3.3678,-3.3678,-3.3678,-3.3678,-3.3678,-3.3697,-3.3733,-3.3733,-3.3752,-3.3788,-3.3807,0.0,0.0,-3.3807,-3.3807,-3.3807,-3.3807,-3.3807,-3.3807,-3.3807,-3.3807,-3.3807,-3.3807,-3.3788,0.0,-3.377,-3.3807,-3.3807,0.0,-3.3807,-3.3807,-3.4018,-3.4176,-3.42,-3.4508,-3.4793,-3.507,-3.5105,-3.5223,-3.5479,-3.5493,-3.5493,-3.5493,-3.5493,-3.5493,-3.5493,-3.5493,-3.5493,-3.5493,-3.5493,0.0,0.0,0.0,0.0,0.0,0.0,0.0,0.0,0.0,0.0,0.0,0.0,0.0,0.0,0.0,0.0,0.0,0.0,0.0,0.0,0.0,0.0,0.0,0.0,0.0,0.0,0.0,0.0,-3.2232,-3.2249,0.0,0.0,-3.2944,-3.2944,-3.2944,-3.3421,-3.3733,-3.3733,-3.4247,-3.4816,-3.5385,-3.5404,-3.5697,-3.6285,-3.6303,-3.6303,-3.6303,-3.6303,-3.656,-3.7037,-3.6541,-3.6578,-3.7037,-3.6505,-3.6303,-3.6248,-3.5661,-3.5092,-3.4578,-3.4578,-3.4266,-3.3807,-3.3807,-3.3807,-3.3807,-3.3807,-3.3807,-3.3807,-3.3807,-3.3807,-3.3807,-3.3807,-3.3807,-3.3807,-3.3807,-3.3807,-3.3807,-3.3807,-3.3807,-3.3807,-3.3807,-3.3807,-3.3807,-3.3807,-3.3807,-3.3807,-3.3807,-3.3807,-3.3807,-3.3807,-3.3807,-3.3807,-3.3807,-3.3876,-3.3993,-3.4195,-3.4508,-3.4793,-3.507,-3.5239,-3.5403,-3.5493,-3.5493,-3.5493,-3.5493,-3.5493,-3.5493,-3.5493,-3.5493,-3.5493,-3.5493,-3.5493,-3.5493,0.0,0.0,0.0,0.0,0.0,0.0,0.0,0.0,0.0,0.0,0.0,0.0,0.0,0.0,0.0,0.0,0.0,0.0,0.0,0.0,0.0,0.0,0.0,0.0,0.0,0.0,-3.2504,-3.333,-3.3421,-3.3733,-3.4559,-3.4633,-3.4633,-3.4633,-3.5147,-3.5569,-3.5844,-3.6395,-3.6945,-3.7496,-3.7514,-3.7643,-3.7918,-3.7918,-3.7918,-3.7918,-3.7918,-3.8193,-3.8689,-3.7881,-3.7808,-3.8248,-3.7459,-3.711,-3.711,-3.711,-3.6615,-3.5826,-3.555,-3.511,-3.4633,-3.4633,-3.4633,-3.4633,-3.4633,-3.4633,-3.4596,-3.4302,-3.4211,-3.4156,-3.388,-3.3807,-3.3807,-3.3807,-3.3807,-3.3807,-3.3807,-3.3807,-3.3807,-3.3807,-3.3807,-3.3807,-3.3807,-3.3807,-3.3807,-3.3807,-3.3807,-3.3807,-3.3807,-3.3807,-3.3807,-3.3807,-3.3807,-3.385,-3.4043,-3.4353,-3.4634,-3.4944,-3.5207,-3.5398,-3.5493,-3.5493,-3.5493,-3.5493,-3.5493,-3.5493,-3.5493,-3.5493,-3.5493,-3.5493,-3.5493,-3.5493,-3.5493,0.0,0.0,0.0,0.0,0.0,0.0,0.0,0.0,0.0,0.0,0.0,0.0,0.0,0.0,0.0,0.0,0.0,0.0,0.0,0.0,0.0,0.0,0.0,-3.3844,-3.3844,-3.4137,-3.4935,-3.5027,-3.5385,-3.6248,-3.634,-3.634,-3.6376,-3.6395,-3.6743,-3.7544,-3.7588,-3.8322,-3.9882,-3.9937,-4.0304,-4.1111,-4.1111,-4.1111,-4.1111,-4.1111,-4.1111,-4.1075,-4.0286,-3.9937,-3.9882,-3.9111,-3.8781,-3.8781,-3.8762,-3.8267,-3.7477,-3.6652,-3.6321,-3.6303,-3.6303,-3.6303,-3.6303,-3.6303,-3.6303,-3.6156,-3.5302,-3.5027,-3.488,-3.4119,-3.388,-3.388,-3.388,-3.388,-3.388,-3.388,-3.388,-3.388,-3.388,-3.388,-3.388,-3.388,-3.3862,-3.3844,-3.3844,-3.3825,-3.3807,-3.3807,-3.3807,-3.3807,-3.3807,-3.3807,0.0,-3.3815,-3.4043,-3.4334,-3.4674,-3.4926,-3.5207,-3.546,-3.5493,-3.5493,-3.5493,-3.5493,-3.5493,-3.5493,-3.5493,-3.5493,-3.5493,-3.5493,-3.5493,-3.5493,0.0,0.0,0.0,0.0,0.0,0.0,0.0,0.0,0.0,0.0,0.0,0.0,0.0,0.0,0.0,0.0,0.0,0.0,0.0,0.0,0.0,0.0,-3.4688,-3.4688,-3.4688,-3.5,-3.5844,-3.5936,-3.6266,-3.7074,-3.7165,-3.7404,-3.7991,-3.8579,-3.9001,-3.9221,-3.979,-4.0322,-4.0763,-4.0781,-4.0891,-4.1111,-4.1111,-4.1111,-4.1111,-4.1111,-4.1111,-4.1111,-4.0873,-4.0781,-4.0763,-4.0543,-4.0451,-4.0396,-3.9808,-3.9441,-3.9093,-3.7698,-3.6798,-3.6303,-3.6303,-3.6303,-3.6303,-3.6303,-3.6303,-3.6266,-3.6028,-3.5936,-3.5899,-3.5679,-3.5605,-3.5605,-3.5605,-3.5605,-3.5605,-3.5605,-3.5605,-3.5605,-3.5605,-3.5605,-3.5605,-3.5605,-3.5128,-3.4688,-3.4688,-3.4211,-3.3807,-3.3807,-3.3807,-3.3807,-3.3807,-3.3807,0.0,-3.4068,-3.4152,-3.4334,-3.4674,-3.4773,-3.4926,-3.519,-3.5207,-3.5289,0.0,-3.5493,-3.5493,-3.5493,-3.5493,-3.5493,-3.5493,-3.5493,-3.5493,0.0,0.0,0.0,0.0,0.0,0.0,0.0,0.0,0.0,0.0,0.0,0.0,0.0,0.0,0.0,0.0,0.0,0.0,0.0,0.0,0.0,0.0,-3.5605,-3.6174,-3.6505,-3.6266,-3.6358,-3.7202,-3.7606,-3.812,-3.8927,-3.9001,-3.9203,-3.968,-4.0139,-4.0543,-4.0891,-4.135,-4.1772,-4.2084,-4.2121,-4.2121,-4.2121,-4.2121,-4.2121,-4.2121,-4.2121,-4.2121,-4.2084,-4.1772,-4.1607,0.0,-4.1258,-4.1111,-4.1075,-4.0598,-4.0396,0.0,0.0,0.0,0.0,0.0,-3.7312,-3.7312,-3.7312,-3.7312,-3.7239,-3.6909,-3.6798,-3.6725,-3.6395,-3.6303,-3.6303,-3.6303,-3.6303,-3.6303,-3.6303,-3.6303,-3.6303,-3.6303,-3.6303,-3.6303,-3.6303,-3.5899,-3.555,-3.555,0.0,0.0,-3.4376,-3.4027,-3.3807,-3.3807,-3.3807,-3.3868,-3.4018,-3.4123,-3.4269,-3.4486,-3.4632,-3.4754,-3.4926,-3.4926,0.0,0.0,0.0,-3.5383,-3.5493,-3.5493,0.0,0.0,0.0,-3.5493,-3.5493,0.0,0.0,0.0,-3.5493,-3.5493,0.0,0.0,0.0,0.0,0.0,0.0,0.0,0.0,0.0,0.0,0.0,0.0,0.0,0.0,0.0,0.0,-3.667,-3.7936,-3.8836,-3.8432,-3.8267,-3.8909,-3.9606,-4.0359,-4.1167,-4.1258,-4.1277,-4.1368,-4.1387,-4.168,-4.2396,0.0,0.0,0.0,0.0,-4.3497,-4.3497,-4.3497,-4.3497,-4.3497,-4.3497,-4.3497,-4.3461,-4.2763,-4.2433,-4.2396,-4.168,-4.1387,-4.1368,-4.1277,-4.1185,-4.0965,-3.9441,-3.8781,-3.8707,-3.8707,-3.8707,0.0,0.0,0.0,0.0,-3.7863,-3.7624,-3.7496,-3.678,-3.656,-3.656,-3.656,-3.656,-3.656,-3.656,-3.656,-3.656,-3.656,-3.656,-3.656,-3.656,-3.6486,-3.6431,-3.6431,-3.6358,-3.6046,-3.5265,-3.4486,-3.3899,-3.3807,-3.3807,-3.3807,-3.3807,-3.3993,-3.4152,-3.4152,0.0,0.0,-3.4653,-3.4653,-3.4754,-3.5053,-3.5088,-3.5207,-3.5446,-3.5493,-3.5493,-3.5493,-3.5493,-3.5493,-3.5493,-3.5493,-3.5493,-3.5493,-3.5493,-3.5493,0.0,0.0,0.0,0.0,0.0,0.0,0.0,0.0,0.0,0.0,0.0,0.0,0.0,0.0,0.0,-3.7771,-3.8267,-3.8982,-4.0432,-4.1056,-4.1185,-4.0708,-4.0781,-4.1185,-4.1992,-4.2066,-4.2341,-4.2983,-4.3039,-4.3094,-4.3259,-4.3259,0.0,-4.3497,-4.3497,-4.3497,-4.3497,-4.3497,-4.3497,-4.3497,0.0,0.0,-4.3479,-4.3332,-4.3259,-4.3259,-4.3094,-4.3039,-4.2983,-4.2341,-4.1699,-4.102,-4.0047,-3.9276,-3.8707,-3.8707,-3.8707,-3.8707,-3.8707,-3.8707,-3.867,-3.8524,-3.8469,-3.8432,-3.8285,-3.8248,0.0,-3.8248,-3.8248,-3.8248,-3.8248,-3.8248,-3.8248,-3.8248,-3.8248,-3.8248,-3.8248,-3.7716,-3.7257,-3.7257,-3.6725,-3.6248,-3.6083,-3.5349,-3.4559,-3.3899,-3.3807,-3.3807,-3.3807,-3.3842,-3.3876,-3.3876,-3.3928,-3.4062,-3.4288,-3.4311,-3.4423,-3.4754,-3.4981,-3.5122,-3.5174,-3.5383,-3.5493,-3.5493,-3.5493,-3.5493,-3.5493,-3.5493,-3.5493,-3.5493,-3.5493,-3.5493,0.0,0.0,0.0,0.0,0.0,0.0,0.0,0.0,0.0,0.0,0.0,-3.5247,0.0,0.0,-3.79,-3.9093,-3.9974,-4.0781,-4.1589,-4.2396,-4.2598,-4.1809,-4.2066,-4.2451,-4.2855,-4.2892,-4.3057,-4.3461,-4.3497,-4.3497,-4.3497,-4.3497,-4.3497,-4.3497,-4.3497,-4.3497,-4.3497,-4.3497,-4.3497,-4.3497,-4.3497,-4.3497,-4.3497,-4.3497,-4.3497,-4.3497,-4.3497,-4.3497,-4.3461,-4.3057,-4.2433,-4.1629,-4.0917,-3.9938,-3.8846,-3.8445,-3.815,-3.7948,-3.7948,-3.7948,-3.7948,-3.7948,-3.8117,-3.83,-3.83,-3.8496,-3.8707,-3.8707,-3.8707,-3.8707,-3.8707,-3.8707,-3.8707,-3.8707,-3.8707,-3.8707,-3.8707,-3.8377,-3.8102,-3.8102,-3.7771,-3.7367,-3.6964,-3.6541,-3.5826,-3.4596,-3.4412,-3.4266,-3.3844,-3.3807,-3.3807,-3.3807,-3.3807,-3.3868,-3.3986,-3.4123,-3.4269,-3.4423,-3.487,-3.5105,-3.5105,-3.5354,-3.5493,-3.5493,-3.5493,-3.5493,-3.5493,-3.5493,-3.5493,-3.5493,-3.5493,-3.5493,0.0,0.0,0.0,0.0,0.0,0.0,0.0,0.0,-3.4284,-3.5092,-3.5485,-3.6138,-3.7477,-3.8524,-3.9441,-4.023,-4.1442,-4.2359,-4.2506,-4.3075,-4.3259,-4.2598,-4.3112,-4.3497,-4.3497,-4.3497,-4.3497,-4.3497,-4.3497,-4.3497,-4.3497,-4.3497,-4.3497,-4.3497,-4.3497,-4.3497,-4.3497,-4.3497,-4.3497,-4.3497,-4.3497,-4.3497,-4.3497,-4.3497,-4.3497,-4.3497,-4.3497,-4.3497,-4.3497,-4.3497,-4.3112,-4.2472,-4.1832,-4.0691,-3.9301,-3.833,-3.7811,-3.7573,-3.7376,-3.7323,-3.736,-3.7451,-3.7703,-3.7893,-3.7893,-3.8183,-3.8546,-3.8546,-3.8627,-3.8707,-3.8707,-3.8707,-3.8707,-3.8707,-3.8707,-3.8707,-3.8707,-3.8707,-3.8707,-3.8707,-3.8707,-3.8487,-3.7826,-3.7716,-3.7165,-3.5514,-3.51,-3.4752,-3.4119,-3.3899,-3.3807,-3.3807,-3.3807,-3.3807,-3.3807,-3.4012,-3.4123,-3.4123,-3.4636,-3.4944,-3.5016,-3.5289,-3.5446,-3.5493,-3.5493,-3.5493,-3.5493,-3.5493,-3.5493,-3.5493,-3.5493,-3.5493,-3.1295,-3.1967,-3.2681,-3.3136,-3.3522,-3.399,0.0,0.0,-3.5128,-3.5973,-3.7294,-3.834,-3.8524,-3.9808,-4.1093,-4.1901,-4.2176,-4.2543,-4.3259,-4.3424,-4.3461,-4.3369,-4.3442,-4.3497,-4.3497,-4.3497,-4.3497,-4.3497,-4.3497,-4.3497,-4.3497,-4.3497,-4.3497,-4.3497,-4.3497,-4.3497,-4.3497,-4.3497,-4.3497,-4.3497,-4.3497,-4.3497,-4.3497,-4.3497,-4.3497,-4.3497,-4.3497,-4.3497,-4.3497,-4.3497,-4.3442,-4.3277,-4.2493,-4.1524,-4.0321,-3.8827,-3.8504,-3.8797,-3.8077,-3.7825,-3.7911,-3.8401,-3.8234,-3.7893,-3.7893,-3.7946,-3.798,-3.798,-3.8332,-3.8707,-3.8707,-3.8707,-3.8707,-3.8707,-3.8707,-3.8707,-3.8707,-3.8707,-3.8707,-3.8707,-3.8707,-3.867,-3.8579,-3.8579,-3.8028,-3.6395,-3.5514,-3.4954,-3.4862,-3.4247,-3.3807,-3.3807,-3.3807,-3.3807,-3.3807,-3.3815,-3.3842,-3.3842,-3.4123,-3.4445,-3.4734,-3.4999,-3.5273,-3.5493,-3.5493,-3.5493,-3.5493,-3.5493,-3.5493,-3.5493,-3.5493,-3.5493,-3.2213,-3.2417,-3.2787,0.0,-3.4204,-3.4451,-3.5512,-3.5771,-3.6138,-3.7441,-3.823,-3.9129,-4.0543,-4.135,-4.2066,0.0,-4.3002,-4.3112,-4.3442,-4.3497,-4.3497,-4.3497,-4.3497,-4.3497,-4.3497,-4.3497,-4.3497,-4.3497,-4.3497,-4.3497,-4.3497,-4.3938,-4.4195,-4.4195,-4.4654,-4.4892,-4.4892,-4.4433,-4.4195,-4.4195,-4.3718,-4.3497,-4.3497,-4.3497,-4.3497,-4.3497,-4.3497,-4.3497,-4.3497,-4.3497,-4.3339,-4.2977,-4.265,-4.2037,-4.1203,-3.9935,-3.8996,-3.8335,-3.7857,-3.7711,-3.7641,-3.7427,-3.7614,-3.7893,-3.7893,-3.8099,-3.8382,-3.8382,-3.8546,-3.8707,-3.8707,-3.8707,-3.8707,-3.8707,-3.8707,-3.8707,-3.8707,-3.8707,-3.8707,-3.8707,-3.8707,-3.8707,-3.8707,-3.8707,-3.8469,-3.7808,-3.6982,-3.6101,-3.5119,-3.4697,-3.4321,-3.3844,-3.3807,-3.3807,-3.3807,-3.3807,-3.3807,-3.3807,-3.4043,-3.4357,-3.4674,-3.4963,-3.5223,-3.5493,-3.5493,-3.5493,-3.5493,-3.5493,-3.5493,-3.5493,-3.5493,-3.5493,-3.2882,-3.3001,-3.3229,-3.4775,-3.5041,-3.523,-3.6373,-3.6615,-3.7092,-3.8707,-3.9221,-3.9974,-4.1937,-4.2488,-4.2818,-4.3406,-4.3497,-4.3497,-4.3497,-4.3497,-4.3497,-4.3497,-4.3497,-4.3497,-4.3497,-4.3497,-4.3497,-4.3497,-4.3497,-4.3589,-4.3809,-4.4378,-4.48,-4.5021,-4.5608,-4.5902,-4.5902,-4.5112,-4.4709,-4.4709,-4.3883,-4.3497,-4.3479,-4.3339,-4.3286,-4.325,-4.3105,-4.3014,-4.3014,-4.3014,-4.279,-4.244,-4.244,-4.2062,-4.148,-4.0939,-3.974,-3.8372,-3.7983,-3.7836,-3.775,-3.7363,-3.7733,-3.8295,-3.7917,-3.8271,-3.8739,-3.8391,-3.8483,-3.8707,-3.8707,-3.8707,-3.8707,-3.8707,-3.8707,-3.8707,-3.8707,-3.8707,-3.8707,-3.8707,-3.8707,-3.8707,-3.8707,-3.8707,-3.8707,-3.8707,-3.8193,-3.7312,-3.5881,-3.5284,-3.477,-3.4192,-3.3935,-3.3807,-3.3807,-3.3807,-3.3807,-3.3807,-3.3986,-3.4265,-3.4674,-3.4889,-3.5138,-3.5493,-3.5493,-3.5493,-3.5493,-3.5493,-3.5493,-3.5493,-3.5493,-3.5493,-3.2778,-3.3371,-3.3979,-3.5263,-3.5909,-3.6468,-3.7276,-3.7441,-3.79,-3.9515,-4.0487,-4.1295,-4.2139,-4.2928,-4.3461,-4.3497,-4.3497,-4.3497,-4.3497,-4.3497,-4.3497,-4.3497,-4.3497,-4.3497,0.0,-4.3497,-4.3497,-4.3497,-4.3497,-4.3828,-4.4635,-4.469,-4.5057,-4.5847,-4.5883,-4.5902,-4.5902,-4.5112,-4.4709,-4.4709,-4.3883,-4.3497,-4.3479,-4.2976,-4.2732,-4.2693,-4.2121,-4.1853,-4.1853,-4.1853,-4.1835,-4.1853,-4.1853,-4.1446,-4.0978,-4.1568,-4.0902,-3.9656,-3.8832,-3.8572,-3.8642,-3.9135,-3.9381,-3.9199,-3.7927,-3.827,-3.8833,-3.761,-3.7948,-3.8707,-3.8707,-3.8707,-3.8707,-3.8707,-3.8707,-3.8707,-3.8707,-3.8707,-3.8707,-3.8707,-3.8707,-3.8707,-3.8707,-3.8707,-3.8707,-3.8707,-3.8689,-3.8358,-3.7514,-3.6009,-3.499,-3.4954,-3.4284,-3.3807,-3.3807,-3.3807,-3.3807,-3.3807,-3.3807,-3.4062,-3.4674,-3.4694,-3.4963,-3.5493,-3.5493,-3.5493,-3.5493,-3.5493,-3.5493,-3.5493,-3.5493,-3.5493,-3.2821,-3.3252,-3.3883,-3.5421,-3.5723,-3.5936,-3.7058,-3.7308,-3.7613,-3.8672,-3.9102,-3.9805,-4.1452,-4.1996,-4.2468,-4.3353,-4.3497,-4.3497,-4.3497,-4.3497,-4.3497,-4.3497,-4.3497,0.0,0.0,0.0,0.0,-4.3497,-4.3993,-4.4415,-4.469,-4.5718,-4.6434,-4.6709,-4.7223,-4.7498,-4.7498,-4.6709,-4.603,-4.548,-4.414,-4.3497,-4.3479,-4.2939,-4.2711,-4.2673,-4.208,-4.181,-4.181,-4.181,-4.1578,-4.1251,-4.1621,-4.1196,-4.0466,-4.1013,-4.0671,-3.9939,-3.9554,-3.9368,-3.9282,-3.8981,-3.9122,-3.9358,-3.8889,-3.9005,-3.9189,-3.8784,-3.8907,-3.9264,-3.9606,-3.9675,-3.9797,-4.0189,-4.0304,-4.0157,-3.9606,-3.9496,-3.9331,-3.8799,-3.8707,-3.8707,-3.8707,-3.8707,-3.8707,-3.8707,-3.8248,-3.7808,-3.7544,-3.6541,-3.5862,-3.5862,-3.511,-3.4614,-3.4614,-3.4119,-3.3807,-3.3807,-3.3961,-3.426,-3.4674,-3.487,-3.5122,-3.5493,-3.5493,-3.5493,-3.5493,-3.5493,-3.5493,-3.5493,-3.5493,-3.5493,-3.3235,-3.3756,-3.4455,-3.5975,-3.6148,-3.619,-3.7029,-3.719,-3.7441,-3.8238,-3.8398,-3.8904,-4.05,-4.0978,-4.1397,-4.2341,-4.2632,-4.2849,-4.3178,-4.3214,-4.3304,-4.3479,-4.3497,0.0,0.0,0.0,0.0,-4.3516,-4.425,-4.4837,-4.5112,-4.6397,-4.7241,-4.7535,-4.8031,-4.8306,-4.8306,-4.7517,-4.6562,-4.5461,-4.3925,-4.3214,-4.3178,-4.2404,-4.208,-4.2021,-4.1464,-4.1196,-4.1196,-4.1196,-4.0967,-4.0655,-4.1013,-4.072,-4.0121,-4.0497,-4.0417,-4.0103,-3.9949,-3.9856,-3.9787,-3.9289,-3.951,-3.9834,-3.9417,-3.9543,-3.9723,-3.9234,-3.923,-3.9492,-3.9828,-4.0073,-4.0312,-4.0684,-4.0943,-4.0965,-4.0451,-4.0322,-4.0084,-3.9276,-3.9129,-3.9038,-3.8762,-3.8707,-3.8707,-3.8707,-3.8267,-3.7918,-3.7918,-3.7221,-3.6725,-3.6725,-3.5973,-3.5477,-3.5477,-3.4724,-3.4229,-3.4229,-3.421,-3.4357,-3.4674,-3.4963,-3.5223,-3.5493,-3.5493,-3.5493,-3.5493,-3.5493,-3.5493,-3.5493,-3.5493,-3.5493,-3.3891,-3.4753,-3.5618,-3.6805,-3.7114,-3.7114,-3.7114,-3.7114,-3.7347,-3.8054,-3.8196,-3.8465,-3.9284,-3.9835,-4.0272,-4.0628,-4.1088,-4.1738,-4.2569,-4.2714,-4.2939,0.0,0.0,0.0,0.0,0.0,0.0,-4.3663,0.0,-4.5168,-4.592,-4.6728,-4.7517,-4.8288,-4.8306,-4.8306,-4.8306,-4.748,-4.625,-4.471,-4.3356,-4.2693,-4.2616,-4.1446,-4.0903,-4.0856,-4.0336,-4.007,-4.007,-4.007,-4.007,-4.007,-4.007,-4.007,-4.007,-4.007,-4.007,-4.007,-4.007,-4.007,-4.007,-4.007,-4.0449,-4.0642,-3.9421,-3.9761,-4.032,-3.9051,-3.9058,-3.9435,-3.9534,-3.9914,-4.031,-4.0347,-4.0812,-4.1222,-4.1185,-4.1167,-4.0928,-4.012,-3.9918,-3.9643,-3.8836,-3.8707,-3.8707,-3.8707,-3.8707,-3.8707,-3.8707,-3.8028,-3.7551,-3.7551,-3.6835,-3.6358,-3.6358,-3.5569,-3.5064,-3.5064,-3.4624,-3.4491,-3.4806,-3.5039,-3.5296,-3.5551,-3.5526,-3.5493,-3.5493,-3.5493,-3.5493,-3.5493,-3.5532,-3.5565,-3.4168,-3.4959,-3.5615,-3.5916,-3.6011,-3.6011,-3.6011,-3.6011,-3.5908,-3.5574,-3.5488,-3.588,-3.7062,-3.7718,-3.8597,-4.0163,-4.1361,0.0,-4.2372,-4.292,0.0,-4.3479,0.0,-4.4397,-4.4397,-4.5131,0.0,0.0,-4.603,-4.6599,-4.6801,-4.7572,-4.8104,-4.8306,-4.8306,-4.8306,-4.8306,-4.6911,-4.579,-4.4971,-4.3439,-4.248,-4.1979,-4.1268,-4.0903,-4.0856,-4.0336,-4.007,-4.007,-4.007,-4.007,-4.007,-4.007,-4.007,-4.007,-4.007,-4.007,-4.007,-4.007,-4.007,-4.007,-4.007,-4.0204,-4.0252,-3.9901,-4.0014,-4.0141,-3.9825,-3.9805,-4.0105,-4.0954,-4.1292,-4.1618,-4.245,-4.2787,-4.2708,-4.2121,-4.1992,-4.1772,-4.0965,-4.0304,-3.9643,-3.8836,-3.8707,-3.8707,-3.8707,-3.8707,-3.8707,-3.8707,-3.8524,-3.8395,-3.8395,-3.7661,-3.7184,-3.7184,-3.6431,-3.5973,-3.5973,-3.6224,-3.6403,-3.6467,-3.636,-3.6315,-3.6392,-3.5815,-3.5493,-3.5493,-3.5493,-3.5493,-3.5512,-3.6122,-3.6392,-3.4303,-3.5047,-3.5622,-3.5622,-3.5622,-3.5537,-3.5199,-3.5131,-3.4912,-3.4167,-3.4015,-3.4262,-3.5015,-3.6011,-3.7124,0.0,0.0,0.0,-4.1866,-4.2613,-4.3378,0.0,-4.4433,0.0,-4.5186,-4.5957,-4.6434,0.0,-4.6856,-4.7113,-4.7113,-4.7865,-4.8306,-4.8306,-4.8306,-4.8141,-4.7792,-4.6302,-4.5212,-4.4538,-4.2775,-4.1707,-4.1402,-4.0797,-4.0528,-4.0528,0.0,-4.007,-4.007,-4.007,-4.007,-4.007,-4.007,-4.007,-4.007,-4.007,-4.007,-4.007,-4.007,-4.007,-4.007,-4.007,-4.007,-4.007,-4.007,-4.007,-4.007,-4.007,-4.007,-4.0254,-4.0908,-4.142,-4.1979,-4.26,-4.3142,-4.3369,-4.291,-4.2818,-4.2598,-4.1791,-4.0689,-3.9753,-3.9294,-3.8927,-3.8707,-3.8707,-3.8707,-3.8707,-3.8707,-3.8707,-3.8707,-3.8707,-3.8303,-3.8028,-3.8028,-3.7276,-3.6885,-3.6999,-3.7066,-3.7173,-3.7297,-3.7299,-3.7276,-3.7276,-3.6834,-3.6603,-3.6603,-3.6603,-3.6603,-3.6622,-3.7065,-3.7276,-3.4421,-3.5115,-3.5622,-3.5622,-3.5622,-3.5419,-3.4675,-3.4489,-3.4252,-3.3423,-3.3254,-3.3254,-3.3254,-3.4619,-3.5907,-3.6284,0.0,-4.0366,-4.1252,-4.2083,-4.3122,-4.4381,-4.4727,-4.5131,-4.5828,-4.6728,-4.7278,-4.7278,-4.7278,-4.7278,-4.7278,-4.7921,-4.8306,-4.8306,-4.8306,-4.7882,-4.7,-4.5736,-4.4642,-4.3647,-4.1815,-4.0856,-4.078,-4.0336,-4.007,-4.007,0.0,0.0,-4.007,-4.007,-4.007,-4.007,-4.007,-4.007,-4.007,-4.007,-4.007,-4.007,-4.007,-4.007,-4.007,-4.007,-4.007,-4.007,-4.007,-4.007,-4.007,-4.007,-4.007,-4.0121,-4.0204,-4.0938,-4.1707,-4.1895,-4.2657,-4.341,-4.3479,-4.3497,-4.3259,-4.2451,-4.1167,-4.0139,-3.9937,-3.9313,-3.8817,-3.8726,-3.8707,-3.8707,-3.8707,-3.8707,-3.8707,-3.8707,-3.8707,-3.8707,-3.8707,-3.8088,-3.7802,-3.8055,-3.7713,-3.7638,-3.7926,-3.8092,-3.8161,-3.8161,-3.8065,-3.8007,-3.8007,-3.8007,-3.8007,-3.8007,-3.8123,-3.8161,-3.5047,-3.552,-3.5622,-3.5622,-3.5622,-3.5419,-3.4675,-3.4489,0.0,0.0,-3.2476,-3.2476,-3.2476,-3.3601,-3.4833,-3.5909,0.0,0.0,0.0,0.0,-4.2679,0.0,0.0,0.0,0.0,0.0,0.0,0.0,0.0,0.0,-4.8104,-4.8233,-4.8306,-4.8306,-4.8306,-4.7691,-4.6454,-4.5558,-4.4235,-4.2474,-4.1424,-4.0655,-4.0254,-4.0171,-4.007,-4.007,0.0,0.0,-4.007,-4.007,-4.007,-4.007,-4.007,-4.007,-4.007,-4.007,-4.007,-4.007,-4.007,-4.007,-4.007,-4.007,-4.007,-4.007,-4.007,-4.007,-4.007,-4.007,-4.007,-4.0204,-4.0655,-4.0903,-4.1313,-4.2302,-4.2693,-4.2976,-4.341,-4.3497,-4.3259,-4.2451,-4.2066,-4.146,-4.012,-3.9772,-3.946,-3.8799,-3.8707,-3.8707,-3.8707,-3.8707,-3.8707,-3.8707,-3.8707,-3.8707,-3.8707,-3.8765,-3.884,-3.8875,-3.9309,-3.9623,-3.9662,-3.9282,-3.9065,-3.9065,-3.8373,-3.8007,-3.8007,-3.8007,-3.8007,-3.8027,-3.8738,-3.9065,-3.5216,-3.5622,-3.5622,-3.5622,-3.5318,-3.4827,-3.41,0.0,0.0,-3.1935,-3.1715,-3.1833,-3.2246,-3.335,-3.4505,-3.5469,0.0,0.0,0.0,0.0,0.0,0.0,0.0,0.0,0.0,0.0,0.0,0.0,0.0,0.0,-4.8306,-4.8306,-4.8306,-4.8306,-4.8306,-4.7451,-4.5698,-4.4994,-4.3572,-4.1539,-4.0796,-4.0319,-4.007,-4.007,-4.007,-4.007,-4.007,0.0,-4.007,-4.007,-4.007,-4.007,-4.007,-4.007,-4.007,-4.007,-4.007,-4.007,-4.007,-4.007,-4.007,-4.007,-4.007,-4.007,-4.007,-4.007,-4.007,-4.007,-4.007,-4.0171,-4.0417,-4.092,-4.1446,-4.1707,-4.2244,-4.2864,-4.3375,-4.3497,-4.3387,-4.3002,-4.2598,-4.2047,-4.1277,-4.0451,-3.9772,-3.9386,-3.8964,-3.8707,-3.8707,-3.8707,-3.8707,-3.8707,-3.8707,-3.8762,-3.8913,-3.9036,-3.9238,-3.9599,-3.9922,-4.0158,-4.0304,-4.0057,-3.9912,-3.9912,-3.9508,-3.9296,-3.9296,-3.9296,-3.9296,-3.9315,-3.9719,-3.995,-3.4979,-3.5267,-3.5182,-3.5334,-3.481,-3.4066,-3.3339,-3.2713,0.0,-3.1343,-3.119,-3.141,-3.2138,-3.3231,-3.4288,0.0,-3.7117,-3.8923,0.0,0.0,0.0,0.0,0.0,0.0,0.0,0.0,0.0,0.0,0.0,0.0,-4.8306,-4.8306,-4.8249,-4.8114,-4.8132,-4.7034,-4.4731,-4.4263,-4.2882,-4.0733,-4.0286,-4.007,-4.007,-4.007,-4.007,-4.007,-4.007,0.0,0.0,-4.007,-4.007,-4.007,-4.007,-4.007,-4.007,-4.007,-4.007,-4.007,-4.007,-4.007,-4.007,-4.007,-4.007,-4.007,-4.007,-4.007,-4.007,-4.007,-4.007,-4.007,-4.007,-4.0767,-4.1331,-4.0995,-4.1707,-4.2655,-4.3214,-4.3339,-4.3375,-4.3479,-4.2983,-4.2506,-4.2323,-4.1111,-4.0102,-3.9918,-3.9221,-3.8707,-3.8707,-3.8707,-3.8707,-3.8707,-3.8707,-3.8803,-3.9072,-3.9178,-3.9462,-4.0061,-4.0158,-4.0286,-4.0489,-4.0489,-4.0489,-4.0489,-4.0489,-4.0489,-4.0489,-4.0489,-4.0489,-4.0489,-4.0489,-4.0581,-3.4201,-3.4117,-3.3761,-3.4421,-3.4049,-3.3305,-3.256,0.0,-3.207,-3.1343,-3.119,-3.141,-3.2138,-3.2923,-3.3877,-3.5111,-3.6047,-3.7519,-3.9968,0.0,0.0,0.0,0.0,0.0,0.0,0.0,0.0,0.0,0.0,0.0,0.0,-4.8306,-4.8035,-4.7488,-4.747,-4.6203,-4.3485,-4.3419,-4.2285,-4.0154,-4.0121,-4.007,-4.007,-4.007,-4.007,-4.007,0.0,0.0,0.0,-4.007,-4.007,-4.007,-4.007,-4.007,-4.007,-4.007,-4.007,-4.007,-4.007,-4.007,-4.007,-4.007,-4.007,-4.007,-4.007,-4.007,-4.007,-4.007,-4.007,-4.007,-4.007,-4.0171,-4.0385,-4.078,-4.1402,-4.2038,-4.2655,-4.2788,-4.2902,-4.341,-4.3424,-4.3149,-4.2433,-4.157,-4.0744,-4.001,-3.9221,-3.8707,-3.8707,-3.8707,-3.8707,-3.8707,-3.8707,-3.8803,-3.9072,-3.9364,-3.9709,-4.0081,-4.0339,-4.0473,-4.0489,-4.0489,-4.0489,-4.0489,-4.0489,-4.0489,-4.0489,-4.0489,-4.0489,-4.0489,-4.0489,-4.0581,-3.3558,-3.3626,-3.3474,-3.3761,-3.3271,-3.2645,-3.2381,0.0,-3.1546,-3.1258,-3.119,-3.1562,-3.2747,-3.3203,-3.388,-3.5249,-3.5975,-3.6928,-3.8466,0.0,0.0,0.0,0.0,0.0,0.0,0.0,0.0,0.0,0.0,0.0,0.0,-4.7554,-4.7656,-4.7385,-4.6999,-4.564,-4.3308,-4.3291,-4.2204,-4.007,-4.007,-4.007,-4.007,-4.007,-4.007,-4.007,0.0,0.0,0.0,-4.007,-4.007,-4.007,-4.007,-4.007,-4.007,-4.007,-4.007,-4.007,-4.007,-4.007,-4.007,-4.007,-4.007,-4.007,-4.007,-4.007,-4.007,-4.007,-4.007,-4.007,-4.007,-4.007,-4.0336,-4.1241,-4.1358,-4.1534,-4.248,-4.2711,-4.2864,-4.341,-4.3497,-4.3387,-4.3075,-4.1956,-4.1001,-4.0671,-3.9533,-3.8707,-3.8707,-3.8707,-3.8707,-3.8707,-3.8707,-3.8902,-3.9358,-3.951,-3.98,-4.0302,-4.0441,-4.0489,-4.0489,-4.0489,-4.0489,-4.0489,-4.0489,-4.0489,-4.0489,-4.0489,-4.0489,-4.0489,-4.0581,-4.0677,-3.2865,-3.2916,-3.2797,-3.3017,-3.251,-3.1952,0.0,0.0,-3.119,-3.119,-3.119,-3.1647,-3.3136,-3.3406,-3.3897,-3.5385,-3.5898,-3.6483,-3.7463,-3.8069,0.0,0.0,0.0,0.0,0.0,0.0,0.0,0.0,0.0,0.0,0.0,-4.6682,-4.6819,-4.6819,-4.6171,-4.4904,-4.3011,-4.2787,-4.1799,-4.007,-4.007,-4.007,-4.007,-4.007,-4.007,-4.007,0.0,0.0,0.0,-4.007,-4.007,-4.007,-4.007,-4.007,-4.007,-4.007,-4.007,-4.007,-4.007,-4.007,-4.007,-4.007,-4.007,-4.007,-4.007,-4.007,-4.007,-4.007,-4.007,-4.007,-4.007,-4.007,-4.0336,-4.1331,-4.1223,-4.1223,-4.244,-4.2711,-4.2864,-4.341,-4.3497,-4.3497,-4.3497,-4.2176,-4.1111,-4.1111,-3.9735,-3.8707,-3.8707,-3.8707,-3.8707,-3.8707,-3.8762,-3.9017,-3.9552,-3.9599,-3.9863,-4.0473,-4.0489,-4.0489,-4.0489,-4.0489,-4.0489,-4.0489,-4.0489,-4.0489,-4.0489,-4.0489,-4.0508,-4.0562,-4.0658,-4.0754,-3.2087,-3.1765,-3.1393,-3.2121,-3.1749,-3.1207,-3.1207,-3.1207,-3.119,-3.119,-3.119,-3.1647,-3.3136,-3.3406,-3.3897,-3.5385,-3.5622,-3.6065,-3.7421,-3.7781,0.0,0.0,0.0,0.0,0.0,0.0,0.0,0.0,0.0,0.0,0.0,-4.5815,-4.5511,-4.5511,-4.4817,-4.3769,-4.2339,-4.1576,-4.0832,-4.007,-4.007,-4.007,-4.007,-4.007,-4.007,0.0,0.0,0.0,0.0,-4.007,-4.007,-4.007,-4.007,-4.007,-4.007,-4.007,-4.007,-4.007,-4.007,-4.007,-4.007,-4.007,-4.007,-4.007,-4.007,-4.007,-4.007,-4.007,-4.007,-4.007,-4.007,-4.007,-4.0254,-4.078,-4.0903,-4.1223,-4.244,-4.2711,-4.2864,-4.341,-4.3497,-4.3497,-4.3497,-4.2176,-4.1111,-4.1111,-3.9735,-3.8707,-3.8707,-3.8707,-3.8707,-3.8707,-3.8933,-3.9238,-3.9576,-3.9599,-3.9863,-4.0473,-4.0489,-4.0489,-4.0489,-4.0489,-4.0489,-4.0489,-4.0489,-4.0489,-4.0489,-4.0489,-4.0581,-4.0696,-4.0696,-4.0812,-3.1478,-3.1376,-3.1258,-3.1478,-3.136,-3.119,-3.119,-3.119,-3.119,-3.119,-3.119,-3.1647,-3.3136,-3.3406,-3.3897,-3.5385,-3.5622,-3.5735,0.0,0.0,0.0,0.0,0.0,0.0,0.0,0.0,0.0,0.0,0.0,0.0,0.0,0.0,-4.5089,-4.5511,-4.4334,-4.3229,-4.2303,-4.1576,-4.0832,-4.007,-4.007,-4.007,-4.007,-4.007,0.0,0.0,0.0,0.0,0.0,-4.007,-4.007,-4.007,-4.007,-4.007,-4.007,-4.007,-4.007,-4.007,-4.007,-4.007,-4.007,-4.007,-4.007,-4.007,-4.007,-4.007,-4.007,-4.007,-4.007,-4.007,-4.007,-4.0368,-4.0703,-4.0856,-4.1223,-4.1707,-4.2519,-4.2711,-4.2864,-4.341,-4.3497,-4.3497,-4.3497,-4.2176,-4.1111,-4.1111,-3.9735,-3.8707,-3.8707,-3.8707,-3.8762,-3.8961,-3.9063,-3.9257,-3.9576,-3.9797,-4.0101,-4.0473,-4.0489,-4.0489,-4.0489,-4.0489,-4.0489,-4.0489,-4.0489,-4.0562,-4.0639,-4.0639,-4.0735,-4.0908,-4.0908,-4.0994,-3.119,-3.119,-3.119,-3.119,-3.119,0.0,-3.119,-3.119,-3.119,-3.119,-3.119,-3.1647,-3.3136,-3.3406,-3.3897,-3.5385,-3.5622,-3.565,0.0,0.0,0.0,0.0,0.0,0.0,0.0,0.0,0.0,0.0,0.0,0.0,0.0,0.0,-4.4198,-4.4267,-4.3416,-4.2642,-4.188,-4.1153,-4.0544,-4.007,-4.007,-4.007,-4.007,-4.007,0.0,0.0,0.0,0.0,0.0,-4.007,-4.007,-4.007,-4.007,-4.007,-4.007,-4.007,-4.007,-4.007,-4.007,-4.007,-4.007,-4.007,-4.007,-4.007,-4.007,-4.007,-4.007,-4.007,-4.007,-4.0171,-4.0319,-4.0655,-4.0995,-4.149,-4.1853,-4.2284,-4.2884,-4.3014,-4.3105,-4.3444,-4.3497,-4.3497,-4.3497,-4.2176,-4.1111,-4.1111,-3.9735,-3.8707,-3.8707,-3.8773,-3.8923,-3.9072,-3.9314,-3.9576,-3.9775,-3.9982,-4.0213,-4.0489,-4.0489,-4.0489,-4.0489,-4.0489,-4.0489,-4.0489,-4.0562,-4.062,-4.0696,-4.0773,-4.087,-4.1001,-4.1056,-4.111,0.0,-3.119,-3.119,-3.119,-3.119,-3.119,-3.119,-3.119,0.0,-3.119,-3.119,-3.1647,-3.3136,-3.3406,-3.3897,-3.5385,-3.5622,0.0,0.0,0.0,0.0,0.0,0.0,0.0,0.0,0.0,0.0,0.0,0.0,0.0,0.0,0.0,-4.2997,-4.2236,-4.2219,-4.188,-4.1221,-4.046,-4.007,-4.007,-4.007,-4.007,-4.007,-4.007,0.0,0.0,0.0,0.0,0.0,-4.007,-4.007,-4.007,-4.007,-4.007,-4.007,-4.007,-4.007,-4.007,-4.007,-4.007,-4.007,-4.007,-4.007,-4.007,-4.007,-4.007,-4.007,-4.007,-4.0121,-4.0286,-4.078,-4.0949,-4.1313,-4.2422,-4.275,-4.2902,-4.341,-4.3497,-4.3497,-4.3497,-4.3497,-4.3497,-4.3497,-4.2176,-4.1111,-4.1111,-3.9735,-3.8707,-3.8719,-3.8933,-3.9125,-3.9178,-3.9731,-4.0101,-4.012,-4.012,-4.0232,-4.0489,-4.0489,-4.0489,-4.0489,-4.0489,-4.0489,-4.0489,-4.0635,-4.0708,-4.0723,-4.0906,-4.0998,-4.1012,-4.1139,-4.1191,-3.119,0.0,-3.119,-3.119,-3.119,-3.119,0.0,-3.119,-3.119,-3.119,-3.119,-3.1647,-3.3136,-3.3406,-3.3897,-3.5385,-3.5622,0.0,0.0,0.0,0.0,0.0,0.0,0.0,0.0,0.0,0.0,0.0,0.0,0.0,0.0,0.0,-4.2219,-4.1474,-4.1457,-4.139,-4.1204,-4.046,-4.007,-4.007,-4.007,-4.007,-4.007,-4.007,0.0,0.0,0.0,0.0,-4.007,-4.007,-4.007,-4.007,-4.007,-4.007,-4.007,-4.007,-4.007,-4.007,-4.007,-4.007,-4.007,-4.007,-4.007,-4.007,-4.007,-4.007,-4.007,-4.007,-4.0417,-4.0733,-4.0856,-4.1578,-4.2342,-4.2616,-4.3014,-4.3339,-4.3479,-4.3497,-4.3497,-4.3497,-4.3497,-4.3497,-4.3497,-4.2176,-4.1111,-4.1111,-3.9735,-3.8792,-3.8971,-3.9044,-3.9289,-3.9797,-4.0002,-4.0177,-4.0389,-4.0425,-4.0422,-4.0489,-4.0489,-4.0489,-4.0489,-4.0489,-4.0489,-4.0489,-4.0617,-4.0729,-4.0781,-4.0933,-4.1039,-4.116,-4.1188,-4.1191,-3.119,-3.119,-3.119,-3.119,-3.119,-3.119,-3.119,-3.119,-3.1252,-3.1449,-3.1312,-3.1726,-3.339,-3.3744,-3.4157,-3.5413,-3.5827,0.0,0.0,0.0,0.0,0.0,0.0,0.0,0.0,0.0,0.0,0.0,0.0,0.0,0.0,0.0,-4.1457,-4.0713,-4.0696,-4.0696,-4.0696,-4.029,-4.007,-4.007,-4.007,-4.007,-4.007,-4.007,0.0,0.0,0.0,0.0,-4.007,-4.007,-4.007,-4.007,-4.007,-4.007,-4.007,-4.007,-4.007,-4.007,-4.007,-4.007,-4.007,-4.007,-4.007,-4.007,-4.007,-4.007,-4.007,-4.007,-4.0336,-4.0655,-4.1178,-4.181,-4.2422,-4.2921,-4.3286,-4.3497,-4.3497,-4.3497,-4.3497,-4.3497,-4.3497,-4.3497,-4.3497,-4.2176,-4.1158,-4.1329,-3.9937,-3.899,-3.9308,-3.9462,-3.9709,-4.0061,-4.0213,-4.0339,-4.0489,-4.0489,-4.0489,-4.0489,-4.0489,-4.0489,-4.0489,-4.0489,-4.0543,-4.06,-4.0693,-4.0784,-4.0881,-4.1039,-4.1133,-4.1191,-4.1191,-4.1191,-3.119,-3.119,-3.119,-3.119,-3.119,-3.119,-3.119,-3.119,-3.1291,-3.164,-3.1449,-3.1788,-3.377,-3.4164,0.0,0.0,0.0,0.0,0.0,0.0,0.0,0.0,0.0,0.0,0.0,0.0,0.0,0.0,0.0,0.0,0.0,0.0,0.0,-4.0104,-4.007,-4.007,-4.007,-4.007,-4.007,-4.007,-4.007,-4.007,-4.007,-4.007,-4.007,0.0,0.0,0.0,-4.007,-4.007,-4.007,-4.007,-4.007,-4.007,-4.007,-4.007,-4.007,-4.007,-4.007,-4.007,-4.007,-4.007,-4.007,-4.007,-4.007,-4.007,-4.007,-4.007,-4.0171,-4.0466,-4.1552,-4.1853,-4.2185,-4.3232,-4.3497,-4.3497,-4.3497,-4.3497,-4.3497,-4.3497,-4.3497,-4.3442,-4.3332,-4.2117,-4.1212,-4.1359,-4.0113,-3.9289,-3.9622,-3.9922,-4.012,-4.0158,-4.0356,-4.0489,-4.0489,-4.0489,-4.0489,-4.0489,-4.0489,-4.0489,-4.0489,-4.0489,-4.0562,-4.0696,-4.0754,-4.085,-4.1001,-4.1117,-4.1185,-4.1191,-4.1191,-4.1191,-3.119,-3.119,-3.119,-3.119,-3.119,-3.119,-3.119,-3.119,-3.123,-3.1291,-3.1252,-3.1827,-3.3809,-3.4185,-3.4666,0.0,0.0,0.0,0.0,0.0,0.0,0.0,0.0,0.0,0.0,0.0,0.0,0.0,0.0,0.0,0.0,0.0,0.0,-4.007,-4.007,-4.007,-4.007,-4.007,-4.007,-4.007,-4.007,-4.007,-4.007,-4.007,-4.007,0.0,0.0,-4.007,-4.007,-4.007,-4.007,-4.007,-4.007,-4.007,-4.007,-4.007,-4.007,-4.007,-4.007,-4.007,-4.007,-4.007,-4.007,-4.007,-4.007,-4.007,-4.007,-4.007,-4.0417,-4.092,-4.1621,-4.2162,-4.2732,-4.3375,-4.3497,-4.3497,-4.3497,-4.3497,-4.3497,-4.3497,-4.3497,-4.3277,-4.2598,-4.1952,-4.1303,-4.0598,-3.9933,-3.9645,-3.9982,-4.0081,-4.0177,-4.0406,-4.0473,-4.0489,-4.0489,-4.0489,-4.0489,-4.0489,-4.0489,-4.0489,-4.0489,-4.0489,-4.0562,-4.0696,-4.0716,-4.0812,-4.0985,-4.1007,-4.1079,-4.1191,-4.1191,-4.1191,-3.119,-3.119,-3.1252,-3.147,-3.1351,-3.1329,-3.1787,-3.1714,-3.162,-3.186,-3.1714,-3.2142,-3.4156,0.0,0.0,0.0,0.0,0.0,0.0,0.0,0.0,0.0,0.0,0.0,0.0,0.0,0.0,0.0,0.0,0.0,0.0,0.0,0.0,0.0,-4.007,-4.007,-4.007,-4.007,-4.007,-4.007,-4.007,-4.007,-4.007,-4.007,-4.007,-4.007,0.0,-4.007,-4.007,-4.007,-4.007,-4.007,-4.007,-4.007,-4.007,-4.007,-4.007,-4.007,-4.007,-4.007,-4.007,-4.007,-4.007,-4.007,-4.007,-4.007,-4.007,-4.007,-4.0286,-4.0672,-4.1578,-4.1997,-4.2422,-4.3286,-4.3497,-4.3497,-4.3497,-4.3497,-4.3497,-4.3497,-4.3497,-4.329,-4.2691,-4.2025,-4.1427,-4.0909,-4.0284,-3.9983,-4.0267,-4.0321,-4.0356,-4.0489,-4.0489,-4.0489,-4.0489,-4.0489,-4.0489,-4.0489,-4.0489,-4.0489,-4.0489,-4.0581,-4.0639,-4.0696,-4.0812,-4.0908,-4.0985,-4.1063,-4.1135,-4.1191,-4.1191,-4.1191,-3.1312,-3.1252,-3.1291,-3.1696,-3.1507,-3.1428,-3.2282,-3.2144,-3.1915,-3.2417,-3.2284,-3.2647,0.0,0.0,0.0,0.0,0.0,0.0,0.0,0.0,0.0,0.0,0.0,0.0,0.0,0.0,0.0,0.0,0.0,0.0,0.0,0.0,0.0,0.0,-4.007,-4.007,-4.007,-4.007,-4.007,-4.007,-4.007,-4.007,-4.007,-4.007,-4.007,-4.007,-4.007,-4.007,-4.007,-4.007,-4.007,-4.007,-4.007,-4.007,-4.007,-4.007,-4.007,-4.007,-4.007,-4.007,-4.007,-4.007,-4.007,-4.007,-4.007,-4.0204,-4.0286,-4.0286,-4.0368,-4.0689,-4.1578,-4.1895,-4.2266,-4.3267,-4.3497,-4.3497,-4.3497,-4.3497,-4.3497,-4.3497,-4.3435,-4.3144,-4.2623,-4.1969,-4.1418,-4.1087,-4.054,-4.0286,-4.0473,-4.0489,-4.0489,-4.0489,-4.0489,-4.0489,-4.0489,-4.0489,-4.0489,-4.0489,-4.0489,-4.0508,-4.0562,-4.0658,-4.0716,-4.0773,-4.0908,-4.1017,-4.1052,-4.1152,-4.1191,-4.1191,-4.1191,-4.1191,-3.166,-3.147,-3.1291,-3.1696,-3.1507,-3.1428,-3.2282,-3.2144,-3.1915,-3.2417,-3.2721,-3.3291,0.0,0.0,0.0,0.0,0.0,0.0,0.0,0.0,0.0,0.0,0.0,0.0,0.0,0.0,0.0,0.0,0.0,0.0,0.0,0.0,0.0,0.0,0.0,-4.007,-4.007,-4.007,-4.007,-4.007,-4.007,-4.007,-4.007,-4.007,-4.007,-4.007,-4.007,-4.007,-4.007,-4.007,-4.007,-4.007,-4.007,-4.007,-4.007,-4.007,-4.007,-4.007,-4.007,-4.007,-4.007,-4.007,-4.007,-4.007,-4.007,-4.0449,-4.0856,-4.0856,-4.1268,-4.1725,-4.1768,-4.2221,-4.277,-4.3356,-4.3497,-4.3497,-4.3497,-4.3497,-4.3497,-4.3497,-4.3153,-4.2586,-4.1827,-4.148,-4.107,-4.0291,-4.036,-4.0473,-4.0489,-4.0489,-4.0489,-4.0489,-4.0489,-4.0489,-4.0489,-4.0489,-4.0489,-4.0489,-4.0489,-4.0562,-4.0677,-4.0696,-4.0793,-4.0966,-4.0985,-4.105,-4.1188,-4.1191,-4.1191,-4.1191,-4.1191,-4.1191,-3.1752,-3.1696,-3.166,-3.2127,-3.1897,-3.1806,-3.2745,-3.2583,-3.2507,-3.3484,-3.3791,-3.4212,0.0,0.0,0.0,0.0,0.0,0.0,0.0,0.0,0.0,0.0,0.0,0.0,0.0,0.0,0.0,0.0,0.0,0.0,0.0,0.0,0.0,0.0,0.0,-4.007,-4.007,-4.007,-4.007,-4.007,-4.007,-4.007,-4.007,-4.007,-4.007,-4.007,-4.007,-4.007,-4.007,-4.007,-4.007,-4.007,-4.007,-4.007,-4.007,-4.007,-4.007,-4.007,-4.007,-4.007,-4.007,-4.007,-4.0336,-4.0625,-4.0625,-4.1013,-4.1358,-4.0823,-4.1109,-4.168,-4.2217,-4.2519,-4.2826,-4.3375,-4.3497,-4.3497,-4.3497,-4.3497,-4.3563,-4.3772,-4.325,-4.265,-4.2227,-4.1686,-4.1093,-4.0436,-4.0441,-4.0489,-4.0489,-4.0489,-4.0489,-4.0489,-4.0489,-4.0489,-4.0489,-4.0489,-4.0543,-4.062,-4.062,-4.0658,-4.0696,-4.0812,-4.0908,-4.0985,-4.1072,-4.1152,-4.1191,-4.1191,-4.1191,-4.1191,-4.1191,-4.1191,-3.2161,-3.2022,-3.1915,-3.2366,-3.2144,-3.2057,-3.2983,-3.3037,-3.3197,-3.4359,-3.4722,-3.5198,-3.6184,0.0,0.0,0.0,0.0,0.0,0.0,0.0,0.0,0.0,0.0,0.0,0.0,0.0,0.0,0.0,0.0,0.0,0.0,0.0,0.0,0.0,0.0,0.0,-4.007,-4.007,-4.007,-4.007,-4.007,-4.007,-4.007,-4.007,-4.007,-4.007,-4.007,-4.007,-4.007,-4.007,-4.007,-4.007,-4.007,-4.007,-4.007,-4.007,-4.007,-4.0121,-4.0286,-4.0368,-4.0334,-4.0288,-4.0498,-4.0777,-4.0488,-4.0838,-4.1167,-4.0633,-4.0881,-4.1452,-4.205,-4.2195,-4.2341,-4.297,-4.3112,-4.3185,-4.3442,-4.3296,-4.3195,-4.3415,-4.2686,-4.2006,-4.198,-4.1373,-4.0826,-4.0534,-4.0489,-4.0489,-4.0489,-4.0489,-4.0489,-4.0489,-4.0489,-4.0489,-4.0489,-4.0489,-4.0562,-4.0696,-4.0716,-4.0754,-4.0793,-4.0927,-4.1026,-4.1061,-4.116,-4.1191,-4.1191,-4.1191,-4.1191,-4.1191,-4.1191,-4.1191,-3.2952,-3.25,-3.1915,-3.2366,-3.2161,-3.2057,-3.3014,-3.3448,-3.397,-3.483,-3.5504,-3.618,-3.7031,0.0,0.0,0.0,0.0,0.0,0.0,0.0,0.0,0.0,0.0,0.0,0.0,0.0,0.0,0.0,0.0,0.0,0.0,0.0,0.0,0.0,0.0,0.0,-4.007,-4.007,-4.007,-4.007,-4.0054,-4.0054,-4.007,-4.007,-4.007,-4.0054,-4.0054,-4.0054,-4.0054,-4.0054,-4.0054,-4.0054,-4.0054,-4.0054,-4.0054,-4.0054,-4.0054,-4.0137,-4.0685,-4.0886,-4.0856,-4.0637,-4.0577,-4.0418,-3.964,-3.9789,-4.0221,-4.0203,-4.0631,-4.1093,-4.1093,-4.1093,-4.1295,-4.2103,-4.2286,-4.2506,-4.3296,-4.2837,-4.2286,-4.2286,-4.1206,-4.041,-4.0747,-4.0409,-4.0195,-4.0457,-4.0489,-4.0489,-4.0489,-4.0489,-4.0489,-4.0489,-4.0489,-4.0489,-4.0489,-4.0489,-4.0562,-4.0696,-4.0754,-4.085,-4.0985,-4.1001,-4.1061,-4.1191,-4.1191,-4.1191,-4.1191,-4.1191,-4.1191,-4.1191,-4.1191,-4.1191,-3.223,-3.2264,-3.235,-3.2484,-3.2648,-3.2934,-3.3476,-3.3638,-3.4106,-3.5833,-3.6795,-3.7398,-3.7631,0.0,0.0,0.0,0.0,0.0,0.0,0.0,0.0,0.0,0.0,0.0,0.0,0.0,0.0,0.0,0.0,0.0,0.0,0.0,0.0,0.0,0.0,0.0,-4.007,-3.958,-3.9326,-3.9309,-3.8802,-3.8819,-3.9326,-3.9326,-3.9039,-3.8548,-3.8548,-3.8548,-3.8548,-3.8548,-3.8548,-3.8548,-3.8548,-3.8548,-3.8548,-3.8548,-3.8548,-3.8597,-3.8755,-3.8785,-3.8798,-3.8699,-3.919,-3.9792,-3.9562,-4.0091,-4.0696,-4.0163,-4.0134,-4.012,-3.957,-3.9423,-3.9772,-4.1148,-4.1479,-4.1534,-4.1772,-4.1625,-4.154,-4.176,-4.1166,-4.0753,-4.1076,-4.0711,-4.0406,-4.0489,-4.0489,-4.0489,-4.0489,-4.0489,-4.0489,-4.0489,-4.0489,-4.0489,-4.0489,-4.06,-4.0677,-4.0754,-4.087,-4.0947,-4.0985,-4.1088,-4.1166,-4.1191,-4.1191,-4.1191,-4.1191,-4.1191,-4.1191,-4.1191,-4.1191,-4.1191,-3.2613,-3.2695,-3.2809,-3.2965,-3.3105,-3.3406,-3.4295,-3.4576,0.0,0.0,-3.7688,-3.798,-3.8183,0.0,0.0,0.0,0.0,0.0,0.0,0.0,0.0,0.0,0.0,0.0,0.0,0.0,0.0,0.0,0.0,0.0,0.0,0.0,0.0,0.0,0.0,0.0,-3.9225,-3.8785,-3.8565,-3.8565,-3.8125,-3.7973,-3.8125,-3.843,-3.8328,-3.7905,-3.7905,-3.7905,-3.7905,-3.7905,-3.7905,-3.7905,-3.7905,-3.7905,-3.7905,-3.7905,-3.7905,-3.7936,-3.838,-3.8543,-3.8535,-3.8664,-3.911,-3.9607,-3.9301,-3.9636,-4.0065,-3.9551,-3.9423,-3.9313,-3.8836,-3.8707,-3.9038,-4.0322,-4.0616,-4.0726,-4.1038,-4.0855,-4.0707,-4.1035,-4.0547,-4.0263,-4.0746,-4.0557,-4.0372,-4.0489,-4.0489,-4.0489,-4.0489,-4.0489,-4.0489,-4.0489,-4.0489,-4.0508,-4.0581,-4.0658,-4.0754,-4.087,-4.0947,-4.1015,-4.1082,-4.1163,-4.1191,-4.1191,-4.1191,-4.1191,-4.1191,-4.1191,-4.1191,-4.1191,-4.1191,-4.1191,-3.3532,-3.3419,-3.3273,-3.3634,-3.3465,0.0,-3.5137,-3.5836,-3.6637,-3.8297,0.0,0.0,0.0,0.0,0.0,0.0,0.0,0.0,0.0,0.0,0.0,0.0,0.0,0.0,0.0,0.0,0.0,0.0,0.0,0.0,0.0,0.0,0.0,0.0,0.0,0.0,-3.7905,-3.7838,-3.7804,0.0,-3.7736,-3.7347,-3.6705,-3.7466,-3.777,-3.7702,-3.7702,-3.7702,-3.7702,-3.7702,-3.7702,-3.7702,-3.7702,-3.7702,-3.7702,-3.775,-3.7733,-3.7904,-3.8929,-3.9279,-3.9331,-3.9577,-3.9658,-3.9562,-3.8847,-3.8658,-3.8707,-3.8707,-3.8707,-3.8707,-3.8707,-3.8707,-3.8891,-3.9669,-3.9803,-3.9992,-4.074,-4.0349,-3.9921,-4.0161,-3.9682,-3.9364,-4.0001,-4.012,-4.0213,-4.0473,-4.0489,-4.0489,-4.0489,-4.0489,-4.0489,-4.0489,-4.0508,-4.0562,-4.0677,-4.0699,-4.08,-4.0974,-4.0993,-4.1063,-4.1191,-4.1191,-4.1191,-4.1191,-4.1191,-4.1191,-4.1191,-4.1191,-4.1191,-4.1191,-4.1191,-4.1191,-3.2315,-3.2695,-3.3214,-3.3302,-3.3273,-3.3599,-3.5137,-3.5316,-3.5679,-3.7654,0.0,0.0,0.0,0.0,0.0,0.0,0.0,0.0,0.0,0.0,0.0,0.0,0.0,0.0,0.0,0.0,0.0,0.0,0.0,0.0,0.0,0.0,0.0,0.0,0.0,-3.7905,-3.7905,-3.7313,-3.7026,0.0,-3.64,-3.6028,-3.5893,-3.6671,-3.6688,-3.6113,-3.6113,-3.6113,-3.6113,-3.6113,-3.6113,-3.6113,-3.6113,-3.6113,-3.6158,-3.6551,-3.6724,-3.6834,-3.7492,-3.7668,-3.7689,-3.7754,-3.8025,-3.8282,-3.8101,-3.8382,-3.8707,-3.8707,-3.8707,-3.8707,-3.8707,-3.8707,-3.8817,-3.9165,-3.9113,-3.9074,-3.9443,-3.9398,-3.9378,-3.9695,-3.9823,-3.992,-4.0076,-4.027,-4.0422,-4.0489,-4.0489,-4.0489,-4.0489,-4.0489,-4.0489,-4.0489,-4.06,-4.0639,-4.0562,-4.0774,-4.0909,-4.0851,-4.1046,-4.1177,-4.1191,-4.1191,-4.1191,-4.1191,-4.1191,-4.1191,-4.1191,-4.1191,-4.1191,-4.1191,-4.1191,-4.1191,-3.2466,-3.284,-3.3243,-3.3437,0.0,-3.3746,-3.4749,-3.5047,-3.5504,0.0,0.0,0.0,0.0,0.0,0.0,0.0,0.0,0.0,0.0,0.0,0.0,0.0,0.0,0.0,0.0,0.0,0.0,0.0,0.0,0.0,0.0,0.0,0.0,0.0,-3.6806,-3.6806,-3.6806,-3.6417,-3.6231,-3.6214,-3.5808,-3.5622,-3.5639,-3.6045,-3.6011,-3.5622,-3.5622,-3.5622,-3.5622,-3.5622,-3.5739,-3.5968,-3.5968,-3.6139,-3.6399,-3.6684,-3.6764,-3.6843,-3.736,-3.7542,-3.7578,-3.7826,-3.8083,-3.83,-3.83,-3.8465,-3.8707,-3.8707,-3.8707,-3.8707,-3.8707,-3.8803,-3.8923,-3.9072,-3.8999,-3.8961,-3.9282,-3.9339,-3.9438,-3.9775,-3.9982,-4.0139,-4.0271,-4.0411,-4.0489,-4.0489,-4.0489,-4.0489,-4.0489,-4.0489,-4.0489,-4.0489,-4.062,-4.0687,-4.0652,-4.0867,-4.1003,-4.0996,-4.1113,-4.1191,-4.1191,-4.1191,-4.1191,-4.1191,-4.1191,-4.1191,-4.1191,-4.1191,-4.1191,-4.1191,-4.1191,-4.1191,-3.284,-3.3075,-3.3302,-3.3707,-3.3707,0.0,-3.4145,-3.4619,-3.5064,0.0,0.0,0.0,0.0,0.0,0.0,0.0,0.0,0.0,0.0,0.0,0.0,0.0,0.0,0.0,0.0,0.0,0.0,0.0,0.0,0.0,0.0,0.0,-3.5622,-3.5622,-3.5622,-3.5622,-3.5622,-3.5622,-3.5622,-3.5622,-3.5622,-3.5667,-3.5739,-3.5739,-3.5694,-3.5622,-3.5622,-3.565,-3.5739,-3.5739,-3.6054,-3.6539,-3.6539,-3.6803,-3.7228,-3.7285,-3.7323,-3.7396,-3.7877,-3.8032,-3.8099,-3.8546,-3.8707,-3.8707,-3.8707,-3.8707,-3.8707,-3.8707,-3.8707,-3.8689,-3.8762,-3.8933,-3.9125,-3.9257,-3.9264,-3.9339,-3.9622,-3.9709,-3.9775,-4.012,-4.0158,-4.0232,-4.0457,-4.0489,-4.0489,-4.0489,-4.0489,-4.0489,-4.0489,-4.0489,-4.0489,-4.0489,-4.0639,-4.0738,-4.0769,-4.0945,-4.1072,-4.1166,-4.1189,-4.1191,-4.1191,-4.1191,-4.1191,-4.1191,-4.1191,-4.1191,-4.1191,-4.1191,-4.1191,-4.1191,-4.1191,-4.1191,-3.1951,-3.2565,-3.3302,-3.3707,-3.3225,-3.2844,0.0,0.0,0.0,0.0,0.0,0.0,0.0,0.0,0.0,0.0,0.0,0.0,0.0,0.0,0.0,0.0,0.0,0.0,0.0,0.0,0.0,0.0,0.0,0.0,0.0,-3.5622,-3.5622,-3.5622,-3.5622,-3.5622,-3.5622,-3.5622,-3.5622,-3.5622,-3.5622,-3.5854,-3.6291,-3.6291,-3.6054,-3.5622,-3.5622,-3.5854,-3.6291,-3.6291,-3.6603,-3.7097,-3.7097,-3.7152,-3.7248,-3.7649,-3.779,-3.7877,-3.8433,-3.8578,-3.8578,-3.8676,-3.8707,-3.8707,-3.8707,-3.8707,-3.8707,-3.8707,-3.8707,-3.8762,-3.8971,-3.9072,-3.9238,-3.9819,-3.9982,-3.9982,-4.0022,-4.0022,-4.012,-4.0389,-4.0457,-4.0457,-4.0489,-4.0489,-4.0489,-4.0489,-4.0489,-4.0489,-4.0489,-4.0489,-4.0489,-4.0489,-4.0677,-4.0781,-4.0725,-4.1007,-4.1139,-4.1036,-4.115,-4.1191,-4.1191,-4.1191,-4.1191,-4.1191,-4.1191,-4.1191,-4.1191,-4.1191,-4.1191,-4.1191,-4.1191,-4.1191,-3.2074,-3.2681,-3.3302,-3.3707,-3.3361,-3.2898,-3.2976,0.0,0.0,0.0,0.0,0.0,0.0,0.0,0.0,0.0,0.0,0.0,0.0,0.0,0.0,0.0,0.0,0.0,0.0,0.0,0.0,0.0,0.0,0.0,-3.5622,-3.5622,-3.5622,-3.5622,-3.5622,-3.5622,-3.5622,-3.5622,-3.5622,-3.5622,-3.5622,-3.5739,-3.5941,-3.5941,-3.5985,-3.6054,-3.6374,-3.644,-3.6416,-3.6724,-3.6999,-3.7228,-3.7506,-3.7578,-3.7631,-3.8168,-3.835,-3.8382,-3.8627,-3.8707,-3.8707,-3.8707,-3.8707,-3.8707,-3.8707,-3.8707,-3.8719,-3.8884,-3.8905,-3.8971,-3.9308,-3.9529,-3.9712,-4.0022,-4.0213,-4.0321,-4.0321,-4.0321,-4.0356,-4.0473,-4.0489,-4.0489,-4.0489,-4.0489,-4.0489,-4.0489,-4.0489,-4.0489,-4.0489,-4.0489,-4.0543,-4.06,-4.0716,-4.0812,-4.085,-4.1058,-4.1162,-4.1124,-4.1175,-4.1191,-4.1191,-4.1191,-4.1191,-4.1191,-4.1191,-4.1191,-4.1191,-4.1191,-4.1191,-4.1191,-4.1191,-4.1191,-3.2109,-3.2583,-3.2934,-3.3343,-3.3148,-3.2745,0.0,0.0,0.0,0.0,0.0,0.0,0.0,0.0,0.0,0.0,0.0,0.0,0.0,0.0,0.0,0.0,0.0,0.0,0.0,0.0,0.0,0.0,0.0,0.0,-3.5622,-3.5622,-3.5622,-3.5622,-3.5622,-3.5622,-3.5622,-3.5622,-3.5622,-3.5622,-3.5622,-3.565,-3.581,-3.581,-3.6028,-3.6416,-3.6684,-3.6643,-3.6457,-3.6999,-3.7266,-3.745,-3.7929,-3.8086,-3.8158,-3.8551,-3.8707,-3.8707,-3.8707,-3.8707,-3.8707,-3.8707,-3.8707,-3.8707,-3.8707,-3.8744,-3.8835,-3.9044,-3.9156,-3.9308,-3.9645,-3.9901,-4.012,-4.0177,-4.0356,-4.0489,-4.0489,-4.0489,-4.0489,-4.0489,-4.0489,-4.0489,-4.0489,-4.0489,-4.0489,-4.0489,-4.0489,-4.0508,-4.0562,-4.0562,-4.06,-4.0716,-4.0793,-4.0889,-4.0985,-4.1123,-4.1191,-4.1191,-4.1191,-4.1191,-4.1191,-4.1191,-4.1191,-4.1191,-4.1191,-4.1191,-4.1191,-4.1191,-4.1191,-4.1191,-4.1191,-4.1191,-3.1733,-3.1844,-3.1986,-3.2433,-3.223,-3.1861,0.0,0.0,0.0,0.0,0.0,0.0,0.0,0.0,0.0,0.0,0.0,0.0,0.0,0.0,0.0,0.0,0.0,0.0,0.0,0.0,0.0,0.0,0.0,0.0,-3.5622,-3.5622,-3.5622,-3.5622,-3.5622,-3.5622,-3.5622,-3.5622,-3.5622,-3.5622,-3.5622,-3.5854,-3.6333,-3.6333,-3.6374,-3.6374,-3.5898,-3.5985,-3.6457,-3.6999,-3.7468,-3.7935,-3.8437,-3.8676,-3.8676,-3.8676,-3.8707,-3.8707,-3.8707,-3.8707,-3.8707,-3.8707,-3.8707,-3.8707,-3.8707,-3.8903,-3.9098,-3.9107,-3.9322,-3.9654,-3.9984,-4.0081,-4.0158,-4.0425,-4.0489,-4.0489,-4.0489,-4.0489,-4.0489,-4.0489,-4.0489,-4.0489,-4.0489,-4.0489,-4.0489,-4.0489,-4.0489,-4.0562,-4.0677,-4.0696,-4.0716,-4.0793,-4.0908,-4.0985,-4.0985,-4.1123,-4.1191,-4.1191,-4.1191,-4.1191,-4.1191,-4.1191,-4.1191,-4.1191,-4.1191,-4.1191,-4.1191,-4.1191,-4.1191,-4.1191,-4.1191,-4.1191,-3.1696,-3.1789,-3.1915,-3.2366,-3.2144,-3.1789,0.0,0.0,0.0,0.0,0.0,0.0,0.0,0.0,0.0,0.0,0.0,0.0,0.0,0.0,0.0,0.0,0.0,0.0,0.0,0.0,0.0,0.0,0.0,0.0,-3.5622,-3.5622,-3.5622,-3.5622,-3.5622,-3.5622,-3.5622,-3.5622,-3.5622,-3.5622,-3.5622,-3.5898,-3.6374,-3.6374,-3.658,-3.6882,-3.6713,-3.6737,-3.696,-3.7449,-3.7757,-3.7935,-3.8488,-3.8469,-3.8231,-3.8576,-3.8707,-3.8707,-3.8707,-3.8707,-3.8707,-3.8707,-3.8707,-3.8726,-3.8903,-3.8903,-3.8921,-3.932,-3.9519,-3.9675,-4.0024,-4.0213,-4.0372,-4.0473,-4.0489,-4.0489,-4.0489,-4.0489,-4.0489,-4.0489,-4.0489,-4.0489,-4.0489,-4.0489,-4.0489,-4.0489,-4.0489,-4.0562,-4.0677,-4.0696,-4.0754,-4.0908,-4.0966,-4.1029,-4.1117,-4.1179,-4.1191,-4.1191,-4.1191,-4.1191,-4.1191,-4.1191,-4.1191,-4.1191,-4.1191,-4.1191,-4.1191,-4.1191,-4.1191,-4.1191,-4.1191,-4.1191,-3.1545,-3.1603,-3.166,0.0,-3.1842,-3.1603,0.0,0.0,0.0,0.0,0.0,0.0,0.0,0.0,0.0,0.0,0.0,0.0,0.0,0.0,0.0,0.0,0.0,0.0,0.0,0.0,0.0,0.0,0.0,0.0,-3.5622,-3.5622,-3.5622,-3.5622,-3.5622,-3.5622,-3.5622,-3.5783,-3.5783,-3.5622,-3.5766,-3.6071,-3.6374,-3.6374,-3.6696,-3.7179,-3.7216,-3.7198,-3.7256,-3.77,-3.7914,-3.796,-3.8485,-3.8487,-3.8227,-3.8561,-3.8707,-3.8707,-3.8707,-3.8707,-3.8707,-3.8707,-3.8707,-3.8726,-3.8921,-3.897,-3.91,-3.949,-3.9746,-3.9948,-4.0175,-4.0372,-4.0489,-4.0489,-4.0489,-4.0489,-4.0489,-4.0489,-4.0489,-4.0489,-4.0489,-4.0489,-4.0489,-4.0489,-4.0508,-4.0562,-4.0581,-4.062,-4.0773,-4.079,-4.0858,-4.1062,-4.1082,-4.1108,-4.119,-4.1191,-4.1191,-4.1191,-4.1191,-4.1191,-4.1191,-4.1191,-4.1191,-4.1191,-4.1191,-4.1191,-4.1191,-4.1191,-4.1191,-4.1191,-4.1191,-4.1191,0.0,0.0,0.0,0.0,0.0,0.0,0.0,0.0,0.0,0.0,0.0,0.0,0.0,0.0,0.0,0.0,0.0,0.0,0.0,0.0,0.0,0.0,0.0,0.0,0.0,0.0,0.0,0.0,0.0,-3.5622,-3.5622,-3.5622,-3.5622,-3.5622,-3.5622,-3.5605,-3.5605,-3.6139,-3.6182,-3.565,-3.6182,-3.6416,-3.6457,-3.6457,-3.6719,-3.7246,-3.7246,-3.7246,-3.7303,-3.7701,-3.7912,-3.7975,-3.8504,-3.8707,-3.8707,-3.8707,-3.8707,-3.8707,-3.8707,-3.8707,-3.8707,-3.8707,-3.8707,-3.8707,-3.8726,-3.9124,-3.9582,-3.9602,-4.0037,-4.0489,-4.0489,-4.0489,-4.0489,-4.0489,-4.0489,-4.0489,-4.0489,-4.0489,-4.0489,-4.0489,-4.0489,-4.0489,-4.0489,-4.0489,-4.0562,-4.0677,-4.0693,-4.0766,-4.0981,-4.1,-4.1054,-4.1191,-4.1191,-4.1191,-4.1191,-4.1191,-4.1191,-4.1191,-4.1191,-4.1191,-4.1191,-4.1191,-4.1191,-4.1191,-4.1191,-4.1191,-4.1191,-4.1191,-4.1191,-4.1191,-4.1191,-4.1191,-3.119,0.0,0.0,0.0,0.0,0.0,0.0,0.0,0.0,0.0,0.0,0.0,0.0,0.0,0.0,0.0,0.0,0.0,0.0,0.0,0.0,0.0,0.0,0.0,0.0,0.0,0.0,0.0,-3.5622,-3.5622,-3.5622,-3.5622,-3.5622,-3.5622,-3.5985,-3.6182,-3.6182,-3.6724,-3.6904,-3.6746,-3.6921,-3.7173,-3.7488,-3.7488,-3.7774,-3.8295,-3.8295,-3.8295,-3.8249,-3.8028,-3.8131,-3.8504,-3.8643,-3.8707,-3.8707,-3.8707,-3.8707,-3.8707,-3.8707,-3.8707,-3.8707,-3.8707,-3.8707,-3.8781,-3.9228,-3.9303,-3.9338,-3.9823,-4.0095,-4.0258,-4.045,-4.0489,-4.0489,-4.0489,-4.0489,-4.0489,-4.0489,-4.0489,-4.0489,-4.0489,-4.0489,-4.0489,-4.0489,-4.0581,-4.0658,-4.0696,-4.0742,-4.0831,-4.0983,-4.0997,-4.1057,-4.119,-4.1191,-4.1191,-4.1191,-4.1191,-4.1191,-4.1191,-4.1191,-4.1191,-4.1191,-4.1191,-4.1191,-4.1191,-4.1191,-4.1191,-4.1191,-4.1191,-4.1191,-4.1191,-4.1191,-4.1191,-3.119,-3.119,0.0,0.0,0.0,0.0,0.0,-3.119,0.0,0.0,0.0,0.0,0.0,0.0,0.0,0.0,0.0,0.0,0.0,0.0,0.0,0.0,0.0,0.0,0.0,0.0,0.0,0.0,-3.5622,-3.5694,-3.5941,-3.5941,-3.6054,-3.6249,-3.6563,-3.6724,-3.6724,-3.7248,-3.7396,-3.721,-3.7396,-3.7649,-3.7893,-3.7893,-3.8183,-3.8707,-3.8707,-3.8707,-3.8682,-3.8346,-3.842,-3.8707,-3.8707,-3.8707,-3.8707,-3.8707,-3.8707,-3.8707,-3.8707,-3.8707,-3.8707,-3.8707,-3.8781,-3.894,-3.9283,-3.9445,-3.9599,-3.9996,-4.0181,-4.0296,-4.045,-4.0489,-4.0489,-4.0489,-4.0489,-4.0489,-4.0489,-4.0489,-4.0508,-4.0581,-4.0581,-4.06,-4.062,-4.0696,-4.0761,-4.0811,-4.0859,-4.0926,-4.1077,-4.1081,-4.1117,-4.119,-4.1191,-4.1191,-4.1191,-4.1191,-4.1191,-4.1191,-4.1191,-4.1191,-4.1191,-4.1191,-4.1191,-4.1191,-4.1191,-4.1191,-4.1191,-4.1191,-4.1191,-4.1191,-4.1191,-4.1191,-3.119,-3.119,-3.119,0.0,0.0,0.0,-3.119,-3.119,0.0,0.0,0.0,0.0,0.0,0.0,0.0,0.0,0.0,0.0,0.0,0.0,0.0,0.0,0.0,0.0,0.0,0.0,-3.5385,-3.5385,-3.5497,-3.5805,-3.6318,-3.6446,-3.6724,-3.7173,-3.7248,-3.7285,-3.7285,-3.7755,-3.7773,-3.7377,-3.7718,-3.7853,-3.7853,-3.7763,-3.798,-3.8438,-3.8438,-3.8432,-3.8444,-3.842,-3.853,-3.8689,-3.8591,-3.8554,-3.8554,-3.8469,-3.8432,-3.8432,-3.8432,-3.8456,-3.8497,-3.8497,-3.8713,-3.9026,-3.9076,-3.9551,-4.0123,-4.0142,-4.0315,-4.0489,-4.0489,-4.0489,-4.0489,-4.0489,-4.0489,-4.0489,-4.0508,-4.0508,-4.0562,-4.0716,-4.0733,-4.0731,-4.0789,-4.0808,-4.0867,-4.0972,-4.1016,-4.1074,-4.1172,-4.1191,-4.1191,-4.1191,-4.1191,-4.1191,-4.1191,-4.1191,-4.1191,-4.1191,-4.1191,-4.1191,-4.1191,-4.1191,-4.1191,-4.1191,-4.1191,-4.1191,-4.1191,-4.1191,-4.1191,-4.1191,-4.1191,-4.1191,0.0,0.0,0.0,0.0,0.0,0.0,-3.119,-3.119,0.0,0.0,0.0,0.0,0.0,0.0,0.0,0.0,0.0,0.0,0.0,0.0,0.0,0.0,0.0,0.0,0.0,0.0,-3.3846,-3.3846,-3.4761,-3.5561,-3.5975,-3.6667,-3.7097,-3.719,-3.7578,-3.7755,-3.7755,-3.8267,-3.8515,-3.8401,-3.7838,-3.7558,-3.754,-3.6894,-3.6663,-3.676,-3.676,-3.6758,-3.6759,-3.6783,-3.7528,-3.8646,-3.7997,-3.7729,-3.7664,-3.7014,-3.6762,-3.6762,-3.6762,-3.6896,-3.7079,-3.7079,-3.7718,-3.853,-3.8795,-3.9442,-4.0162,-4.0354,-4.045,-4.0489,-4.0489,-4.0489,-4.0489,-4.0489,-4.0489,-4.0543,-4.0639,-4.0658,-4.0716,-4.0889,-4.0818,-4.0717,-4.0795,-4.0893,-4.0962,-4.0996,-4.1094,-4.1172,-4.1191,-4.1191,-4.1191,-4.1191,-4.1191,-4.1191,-4.1191,-4.1191,-4.1191,-4.1191,-4.1191,-4.1191,-4.1191,-4.1191,-4.1191,-4.1191,-4.1191,-4.1191,-4.1191,-4.1191,-4.1191,-4.1191,-4.1191,-4.1191,0.0,0.0,0.0,-3.119,0.0,0.0,0.0,-3.119,-3.119,0.0,0.0,0.0,0.0,0.0,0.0,0.0,0.0,0.0,0.0,0.0,0.0,0.0,0.0,0.0,0.0,0.0,-3.349,-3.3744,-3.4554,-3.522,-3.5685,-3.6113,-3.6484,-3.6723,-3.6971,-3.7116,-3.7116,-3.7387,-3.7496,-3.7496,-3.7092,-3.689,-3.689,-3.6483,-3.6296,-3.6303,-3.6304,-3.6318,-3.6305,-3.6297,-3.6783,-3.7458,-3.7045,-3.6904,-3.6859,-3.6463,-3.639,-3.6496,-3.649,-3.667,-3.69,-3.6885,-3.7664,-3.858,-3.8752,-3.9496,-4.0335,-4.045,-4.0489,-4.0489,-4.0489,-4.0489,-4.0489,-4.0489,-4.0489,-4.0508,-4.06,-4.06,-4.0658,-4.0812,-4.0765,-4.0762,-4.0957,-4.1055,-4.1094,-4.1094,-4.1152,-4.1191,-4.1191,-4.1191,-4.1191,-4.1191,-4.1191,-4.1191,-4.1191,-4.1191,-4.1191,-4.1191,-4.1191,-4.1191,-4.1191,-4.1191,-4.1191,-4.1191,-4.1191,-4.1191,-4.1191,-4.112,-4.1101,-4.1101,-4.1101,-4.1071,0.0,0.0,0.0,0.0,0.0,-3.119,0.0,0.0,0.0,-3.119,0.0,0.0,0.0,0.0,0.0,0.0,0.0,0.0,0.0,0.0,0.0,0.0,0.0,0.0,0.0,0.0,-3.3236,-3.3885,-3.4304,-3.4762,-3.5377,-3.5553,-3.5836,-3.6303,-3.6303,-3.6303,-3.6303,-3.6303,-3.6303,-3.6303,-3.6138,-3.6046,-3.6046,-3.5878,-3.5805,-3.5826,-3.5816,-3.5823,-3.5816,-3.5864,-3.5901,-3.5914,-3.6009,-3.6091,-3.6125,-3.5955,-3.6055,-3.6297,-3.631,-3.6499,-3.6723,-3.6709,-3.7589,-3.8681,-3.8858,-3.9646,-4.0489,-4.0489,-4.0489,-4.0489,-4.0489,-4.0489,-4.0489,-4.0489,-4.0489,-4.0508,-4.0543,-4.0543,-4.0581,-4.0696,-4.0721,-4.0806,-4.1074,-4.1113,-4.1133,-4.1152,-4.1152,-4.1172,-4.1191,-4.1191,-4.1191,-4.1191,-4.1191,-4.1191,-4.1191,-4.1191,-4.1209,-4.1208,-4.1189,-4.1175,-4.1205,-4.1175,-4.1155,-4.1126,-4.1126,-4.115,-4.1152,-4.1024,-4.0964,-4.0985,-4.0966,-4.0893,0.0,0.0,0.0,0.0,-3.119,0.0,0.0,0.0,-3.119,-3.119,0.0,-3.119,-3.119,0.0,0.0,0.0,0.0,0.0,0.0,0.0,0.0,0.0,0.0,0.0,0.0,0.0,0.0,-3.3221,-3.3603,-3.416,-3.5015,-3.5776,-3.6227,-3.6303,-3.6303,-3.6303,-3.6303,-3.6303,-3.6303,-3.6285,-3.5532,-3.5137,-3.5119,-3.4412,-3.4082,-3.4082,-3.4073,-3.4082,-3.4105,-3.4339,-3.4434,-3.4487,-3.4966,-3.5324,-3.5483,-3.4703,-3.466,-3.4917,-3.4936,-3.5116,-3.5321,-3.5318,-3.6591,-3.8223,-3.8996,-3.9819,-4.0489,-4.0489,-4.0489,-4.0489,-4.0489,-4.0489,-4.0489,-4.0489,-4.0489,-4.0543,-4.0658,-4.0677,-4.0696,-4.0773,-4.0791,-4.0798,-4.0834,-4.0859,-4.0898,-4.0996,-4.1016,-4.1074,-4.1172,-4.1191,-4.1191,-4.1191,-4.1191,-4.1191,-4.1191,-4.1191,-4.1191,-4.1196,-4.1079,-4.1083,-4.1201,-4.1094,-4.0967,-4.085,-4.085,-4.0901,-4.1016,-4.0889,-4.0873,-4.0985,-4.087,-4.0823,0.0,0.0,0.0,0.0,0.0,0.0,0.0,0.0,-3.119,0.0,0.0,0.0,0.0,0.0,0.0,0.0,0.0,0.0,0.0,0.0,0.0,0.0,0.0,0.0,0.0,0.0,0.0,0.0,0.0,-3.3653,-3.4275,-3.4651,-3.4853,-3.4853,-3.4853,-3.4853,-3.4853,-3.4853,-3.4853,-3.4835,-3.4486,-3.4302,-3.4302,-3.3954,-3.3807,-3.3807,-3.3807,-3.3807,-3.3823,-3.3933,-3.3967,-3.3998,-3.4226,-3.4606,-3.4986,-3.4404,-3.4401,-3.4674,-3.4486,-3.4715,-3.5198,-3.5822,-3.691,-3.8161,-3.905,-3.9858,-4.0489,-4.0489,-4.0489,-4.0489,-4.0489,-4.0489,-4.0489,-4.0489,-4.0489,-4.0508,-4.0581,-4.0581,-4.06,-4.062,-4.0639,-4.0626,-4.0636,-4.079,-4.0945,-4.0984,-4.1074,-4.1133,-4.1191,-4.1191,-4.1191,-4.1191,-4.1191,-4.1197,-4.1205,-4.112,-4.1089,-4.1074,-4.0947,-4.0907,-4.0968,-4.0913,-4.0848,-4.0803,-4.0803,-4.0834,-4.0887,-4.0796,-4.0777,-4.0812,-4.0773,-4.0696,-3.119,0.0,0.0,0.0,0.0,0.0,0.0,0.0,0.0,0.0,0.0,0.0,0.0,0.0,-3.119,-3.119,0.0,0.0,0.0,0.0,0.0,0.0,0.0,0.0,0.0,0.0,0.0,0.0,-3.2965,-3.3087,-3.3762,-3.3707,-3.368,-3.3807,-3.3807,-3.3807,-3.3807,-3.3807,-3.3807,-3.3807,-3.3807,-3.3807,-3.3807,-3.3807,-3.3807,-3.3807,-3.3807,-3.3807,-3.3807,-3.3862,-3.3925,-3.3925,-3.402,-3.4363,-3.4774,-3.4445,-3.4551,-3.4793,-3.4615,-3.4832,-3.5334,-3.6113,-3.7118,-3.8118,-3.8762,-3.9665,-4.0489,-4.0489,-4.0489,-4.0489,-4.0489,-4.0489,-4.0489,-4.0489,-4.0489,-4.0489,-4.0489,-4.0489,-4.0508,-4.0562,-4.0562,-4.0562,-4.0581,-4.0773,-4.0926,-4.0936,-4.1052,-4.1152,-4.1191,-4.1191,-4.1191,-4.1191,-4.1191,-4.1207,-4.1195,-4.1078,-4.0966,-4.0908,-4.0831,-4.0775,-4.0713,-4.0745,-4.0754,-4.0716,-4.0716,-4.0735,-4.0773,-4.0696,-4.0658,-4.0696,-4.0658,-4.06,0.0,0.0,0.0,-3.119,0.0,0.0,0.0,0.0,-3.119,0.0,0.0,0.0,0.0,-3.119,-3.119,-3.119,-3.119,0.0,0.0,0.0,0.0,0.0,0.0,0.0,0.0,0.0,0.0,-3.3105,-3.2366,-3.2415,-3.3734,-3.3419,-3.3408,-3.3807,-3.3807,-3.3807,-3.3807,-3.3807,-3.3807,-3.3807,-3.3807,-3.3807,-3.3807,-3.3807,-3.3807,-3.3807,-3.3807,-3.3807,-3.3825,-3.4072,-3.4191,-3.4218,-3.4535,-3.4845,-3.5051,-3.4774,-3.487,-3.5122,-3.5369,-3.546,-3.5493,-3.5532,-3.6661,-3.8007,-3.8031,-3.92,-4.0489,-4.0489,-4.0489,-4.0489,-4.0489,-4.0489,-4.0489,-4.0489,-4.0489,-4.0489,-4.0489,-4.0489,-4.0543,-4.0677,-4.0696,-4.0716,-4.0773,-4.0754,-4.0738,-4.0791,-4.0918,-4.1055,-4.1172,-4.1191,-4.1191,-4.1191,-4.1191,-4.1207,-4.1195,-4.1078,-4.0908,-4.0716,-4.0773,-4.0716,-4.0519,-4.062,-4.0639,-4.0508,-4.0508,-4.0581,-4.0696,-4.0581,-4.0581,-4.0696,-4.0581,-4.0489,0.0,0.0,-3.0699,-3.1095,0.0,0.0,0.0,0.0,0.0,0.0,0.0,0.0,0.0,-3.119,-3.119,-3.119,-3.119,-3.119,0.0,0.0,0.0,0.0,0.0,0.0,0.0,0.0,0.0,-3.3105,-3.2903,-3.3057,0.0,-3.368,-3.3652,-3.3807,-3.3807,-3.3807,-3.3807,-3.3807,-3.3807,-3.3807,-3.3807,-3.3807,-3.3807,-3.3807,-3.3807,-3.3807,-3.3807,-3.3807,-3.3807,-3.388,-3.3944,-3.3952,-3.4274,-3.4404,-3.4531,-3.4647,-3.487,-3.5105,-3.5207,-3.5242,-3.5254,-3.5446,-3.6642,-3.8007,-3.8007,-3.9161,-4.0489,-4.0489,-4.0489,-4.0489,-4.0489,-4.0489,-4.0489,-4.0489,-4.0489,-4.0489,-4.0489,-4.0489,-4.0543,-4.0677,-4.0696,-4.0716,-4.0793,-4.085,-4.0901,-4.0934,-4.1042,-4.1152,-4.1191,-4.1191,-4.1194,-4.1199,-4.1121,-4.1083,-4.1074,-4.0889,-4.0735,-4.0581,-4.06,-4.0581,-4.0489,-4.0543,-4.0562,-4.0489,-4.0489,-4.0508,-4.0581,-4.0508,-4.0508,-4.0581,-4.0508,-4.0489,-3.1151,-3.0918,0.0,-3.1095,-3.0918,0.0,-3.1112,0.0,0.0,0.0,0.0,0.0,0.0,0.0,-3.1151,-3.0918,-3.1055,-3.119,0.0,-3.119,0.0,0.0,0.0,0.0,0.0,0.0,-3.2039,-3.3105,-3.2903,-3.3027,0.0,0.0,-3.3634,-3.3807,-3.3807,-3.3807,-3.3807,-3.3807,-3.3807,-3.3807,-3.3807,-3.3807,-3.3807,-3.3807,-3.3807,-3.3807,-3.3807,-3.3807,-3.3807,-3.3807,-3.3844,-3.3979,-3.4116,-3.4338,-3.4545,-3.4751,-3.4999,-3.5239,-3.5239,-3.5239,-3.5273,-3.5446,-3.643,-3.7603,-3.7911,-3.8969,-4.02,-4.0777,-4.0739,-4.0566,-4.0873,-4.0758,-4.0581,-4.0581,-4.06,-4.062,-4.062,-4.062,-4.0658,-4.0773,-4.081,-4.084,-4.0937,-4.1014,-4.1053,-4.1014,-4.1105,-4.1191,-4.1191,-4.1205,-4.1182,-4.1123,-4.1043,-4.0966,-4.0889,-4.0773,-4.0639,-4.0508,-4.0489,-4.0489,-4.0489,-4.0489,-4.0489,-4.0489,-4.0489,-4.0489,-4.0489,-4.0489,-4.0489,-4.0489,-4.0489,-4.0457]}]]